<?xml version="1.0" encoding="UTF-8" standalone="no" ?>
<gpx xmlns="http://www.topografix.com/GPX/1/1" xmlns:xsi="http://www.w3.org/2001/XMLSchema-instance" xsi:schemaLocation="http://www.topografix.com/GPX/1/1 http://www.topografix.com/GPX/1/1/gpx.xsd" version="1.1" creator="VisuGPX - https://www.visugpx.com">
  <metadata>
    <name>ETAPE 21: Serralongue-Terrades  (santuaire )</name>
    <desc><![CDATA[On peut aller à l'hôtel en vtt ou en camion...]]></desc>
  </metadata>
  <trk>
    <name><![CDATA[CAMPRODON -  EMPURIABRAVA 2  ( camping mas nou )]]></name>
    <trkseg>
      <trkpt lat="42.38426" lon="2.54084">
        <ele>801.461</ele>
        <time>2014-07-05T06:01:25Z</time>
      </trkpt>
      <trkpt lat="42.38432" lon="2.54104">
        <ele>802.817</ele>
        <time>2014-07-05T06:01:36Z</time>
      </trkpt>
      <trkpt lat="42.38443" lon="2.54123">
        <ele>804.307</ele>
        <time>2014-07-05T06:01:45Z</time>
      </trkpt>
      <trkpt lat="42.38458" lon="2.54138">
        <ele>805.735</ele>
        <time>2014-07-05T06:01:57Z</time>
      </trkpt>
      <trkpt lat="42.3847" lon="2.54152">
        <ele>807.66</ele>
        <time>2014-07-05T06:02:07Z</time>
      </trkpt>
      <trkpt lat="42.38481" lon="2.5416">
        <ele>808.682</ele>
        <time>2014-07-05T06:02:13Z</time>
      </trkpt>
      <trkpt lat="42.38508" lon="2.54176">
        <ele>809.193</ele>
        <time>2014-07-05T06:02:26Z</time>
      </trkpt>
      <trkpt lat="42.38524" lon="2.54189">
        <ele>810.122</ele>
        <time>2014-07-05T06:02:36Z</time>
      </trkpt>
      <trkpt lat="42.38527" lon="2.54194">
        <ele>810.111</ele>
        <time>2014-07-05T06:02:39Z</time>
      </trkpt>
      <trkpt lat="42.38532" lon="2.54202">
        <ele>811.084</ele>
        <time>2014-07-05T06:02:44Z</time>
      </trkpt>
      <trkpt lat="42.38537" lon="2.54222">
        <ele>812.937</ele>
        <time>2014-07-05T06:02:57Z</time>
      </trkpt>
      <trkpt lat="42.38544" lon="2.54243">
        <ele>815.349</ele>
        <time>2014-07-05T06:03:09Z</time>
      </trkpt>
      <trkpt lat="42.3855" lon="2.54251">
        <ele>816.313</ele>
        <time>2014-07-05T06:03:15Z</time>
      </trkpt>
      <trkpt lat="42.38559" lon="2.54261">
        <ele>817.707</ele>
        <time>2014-07-05T06:03:23Z</time>
      </trkpt>
      <trkpt lat="42.38558" lon="2.5427">
        <ele>819.23</ele>
        <time>2014-07-05T06:03:30Z</time>
      </trkpt>
      <trkpt lat="42.38545" lon="2.54269">
        <ele>820.615</ele>
        <time>2014-07-05T06:03:42Z</time>
      </trkpt>
      <trkpt lat="42.38533" lon="2.5426">
        <ele>822.667</ele>
        <time>2014-07-05T06:03:54Z</time>
      </trkpt>
      <trkpt lat="42.3853" lon="2.54258">
        <ele>823.068</ele>
        <time>2014-07-05T06:03:57Z</time>
      </trkpt>
      <trkpt lat="42.38525" lon="2.54257">
        <ele>824.077</ele>
        <time>2014-07-05T06:04:02Z</time>
      </trkpt>
      <trkpt lat="42.38526" lon="2.54268">
        <ele>825.476</ele>
        <time>2014-07-05T06:04:12Z</time>
      </trkpt>
      <trkpt lat="42.38528" lon="2.5427">
        <ele>825.449</ele>
        <time>2014-07-05T06:04:14Z</time>
      </trkpt>
      <trkpt lat="42.38531" lon="2.54274">
        <ele>826.469</ele>
        <time>2014-07-05T06:04:17Z</time>
      </trkpt>
      <trkpt lat="42.38532" lon="2.54278">
        <ele>826.404</ele>
        <time>2014-07-05T06:04:20Z</time>
      </trkpt>
      <trkpt lat="42.38541" lon="2.54288">
        <ele>828.324</ele>
        <time>2014-07-05T06:04:30Z</time>
      </trkpt>
      <trkpt lat="42.38548" lon="2.54301">
        <ele>829.307</ele>
        <time>2014-07-05T06:04:41Z</time>
      </trkpt>
      <trkpt lat="42.3855" lon="2.5431">
        <ele>830.263</ele>
        <time>2014-07-05T06:04:47Z</time>
      </trkpt>
      <trkpt lat="42.38552" lon="2.54323">
        <ele>831.738</ele>
        <time>2014-07-05T06:04:54Z</time>
      </trkpt>
      <trkpt lat="42.38559" lon="2.54341">
        <ele>833.13</ele>
        <time>2014-07-05T06:05:08Z</time>
      </trkpt>
      <trkpt lat="42.38561" lon="2.54343">
        <ele>833.691</ele>
        <time>2014-07-05T06:05:10Z</time>
      </trkpt>
      <trkpt lat="42.38564" lon="2.54346">
        <ele>834.13</ele>
        <time>2014-07-05T06:05:13Z</time>
      </trkpt>
      <trkpt lat="42.38566" lon="2.54348">
        <ele>834.629</ele>
        <time>2014-07-05T06:05:15Z</time>
      </trkpt>
      <trkpt lat="42.38582" lon="2.54364">
        <ele>836.562</ele>
        <time>2014-07-05T06:05:28Z</time>
      </trkpt>
      <trkpt lat="42.38593" lon="2.54378">
        <ele>837.567</ele>
        <time>2014-07-05T06:05:38Z</time>
      </trkpt>
      <trkpt lat="42.38606" lon="2.54399">
        <ele>839.481</ele>
        <time>2014-07-05T06:05:51Z</time>
      </trkpt>
      <trkpt lat="42.3861" lon="2.54404">
        <ele>840.319</ele>
        <time>2014-07-05T06:05:55Z</time>
      </trkpt>
      <trkpt lat="42.38617" lon="2.54425">
        <ele>842.307</ele>
        <time>2014-07-05T06:06:08Z</time>
      </trkpt>
      <trkpt lat="42.38619" lon="2.54439">
        <ele>843.293</ele>
        <time>2014-07-05T06:06:15Z</time>
      </trkpt>
      <trkpt lat="42.38618" lon="2.54451">
        <ele>844.278</ele>
        <time>2014-07-05T06:06:21Z</time>
      </trkpt>
      <trkpt lat="42.38618" lon="2.54456">
        <ele>844.72</ele>
        <time>2014-07-05T06:06:24Z</time>
      </trkpt>
      <trkpt lat="42.38618" lon="2.54483">
        <ele>846.621</ele>
        <time>2014-07-05T06:06:38Z</time>
      </trkpt>
      <trkpt lat="42.38619" lon="2.54487">
        <ele>847.12</ele>
        <time>2014-07-05T06:06:40Z</time>
      </trkpt>
      <trkpt lat="42.38619" lon="2.54498">
        <ele>847.529</ele>
        <time>2014-07-05T06:06:46Z</time>
      </trkpt>
      <trkpt lat="42.38619" lon="2.54503">
        <ele>847.542</ele>
        <time>2014-07-05T06:06:49Z</time>
      </trkpt>
      <trkpt lat="42.38624" lon="2.54529">
        <ele>849.086</ele>
        <time>2014-07-05T06:07:02Z</time>
      </trkpt>
      <trkpt lat="42.38633" lon="2.54549">
        <ele>850.46</ele>
        <time>2014-07-05T06:07:15Z</time>
      </trkpt>
      <trkpt lat="42.38636" lon="2.54559">
        <ele>850.426</ele>
        <time>2014-07-05T06:07:19Z</time>
      </trkpt>
      <trkpt lat="42.3864" lon="2.54572">
        <ele>850.907</ele>
        <time>2014-07-05T06:07:25Z</time>
      </trkpt>
      <trkpt lat="42.38644" lon="2.54579">
        <ele>851.435</ele>
        <time>2014-07-05T06:07:29Z</time>
      </trkpt>
      <trkpt lat="42.3865" lon="2.54593">
        <ele>851.92</ele>
        <time>2014-07-05T06:07:37Z</time>
      </trkpt>
      <trkpt lat="42.38653" lon="2.54597">
        <ele>852.472</ele>
        <time>2014-07-05T06:07:40Z</time>
      </trkpt>
      <trkpt lat="42.38657" lon="2.54623">
        <ele>854.353</ele>
        <time>2014-07-05T06:07:51Z</time>
      </trkpt>
      <trkpt lat="42.38655" lon="2.54627">
        <ele>854.862</ele>
        <time>2014-07-05T06:07:54Z</time>
      </trkpt>
      <trkpt lat="42.3865" lon="2.54626">
        <ele>855.271</ele>
        <time>2014-07-05T06:07:58Z</time>
      </trkpt>
      <trkpt lat="42.38645" lon="2.54624">
        <ele>855.754</ele>
        <time>2014-07-05T06:08:03Z</time>
      </trkpt>
      <trkpt lat="42.38641" lon="2.54614">
        <ele>856.221</ele>
        <time>2014-07-05T06:08:08Z</time>
      </trkpt>
      <trkpt lat="42.38639" lon="2.5461">
        <ele>856.741</ele>
        <time>2014-07-05T06:08:21Z</time>
      </trkpt>
      <trkpt lat="42.38638" lon="2.54607">
        <ele>857.605</ele>
        <time>2014-07-05T06:08:41Z</time>
      </trkpt>
      <trkpt lat="42.38636" lon="2.54609">
        <ele>855.707</ele>
        <time>2014-07-05T06:08:50Z</time>
      </trkpt>
      <trkpt lat="42.38637" lon="2.5461">
        <ele>855.799</ele>
        <time>2014-07-05T06:09:19Z</time>
      </trkpt>
      <trkpt lat="42.38638" lon="2.5461">
        <ele>856.774</ele>
        <time>2014-07-05T06:09:44Z</time>
      </trkpt>
      <trkpt lat="42.38637" lon="2.54608">
        <ele>856.286</ele>
        <time>2014-07-05T06:09:59Z</time>
      </trkpt>
      <trkpt lat="42.38635" lon="2.54605">
        <ele>856.747</ele>
        <time>2014-07-05T06:10:14Z</time>
      </trkpt>
      <trkpt lat="42.38625" lon="2.54594">
        <ele>856.736</ele>
        <time>2014-07-05T06:10:27Z</time>
      </trkpt>
      <trkpt lat="42.38624" lon="2.54592">
        <ele>857.215</ele>
        <time>2014-07-05T06:10:29Z</time>
      </trkpt>
      <trkpt lat="42.38615" lon="2.54581">
        <ele>857.658</ele>
        <time>2014-07-05T06:10:40Z</time>
      </trkpt>
      <trkpt lat="42.38606" lon="2.54574">
        <ele>857.644</ele>
        <time>2014-07-05T06:10:54Z</time>
      </trkpt>
      <trkpt lat="42.38608" lon="2.54576">
        <ele>858.105</ele>
        <time>2014-07-05T06:11:15Z</time>
      </trkpt>
      <trkpt lat="42.38607" lon="2.54575">
        <ele>857.615</ele>
        <time>2014-07-05T06:11:22Z</time>
      </trkpt>
      <trkpt lat="42.38604" lon="2.54572">
        <ele>857.607</ele>
        <time>2014-07-05T06:11:26Z</time>
      </trkpt>
      <trkpt lat="42.38602" lon="2.54569">
        <ele>858.161</ele>
        <time>2014-07-05T06:11:28Z</time>
      </trkpt>
      <trkpt lat="42.38596" lon="2.54561">
        <ele>858.166</ele>
        <time>2014-07-05T06:11:34Z</time>
      </trkpt>
      <trkpt lat="42.3858" lon="2.5454">
        <ele>859.118</ele>
        <time>2014-07-05T06:11:49Z</time>
      </trkpt>
      <trkpt lat="42.38579" lon="2.54537">
        <ele>859.669</ele>
        <time>2014-07-05T06:12:00Z</time>
      </trkpt>
      <trkpt lat="42.38579" lon="2.54535">
        <ele>859.618</ele>
        <time>2014-07-05T06:12:12Z</time>
      </trkpt>
      <trkpt lat="42.38575" lon="2.54531">
        <ele>859.657</ele>
        <time>2014-07-05T06:12:16Z</time>
      </trkpt>
      <trkpt lat="42.38572" lon="2.54527">
        <ele>860.01</ele>
        <time>2014-07-05T06:12:19Z</time>
      </trkpt>
      <trkpt lat="42.38566" lon="2.54522">
        <ele>860.593</ele>
        <time>2014-07-05T06:12:24Z</time>
      </trkpt>
      <trkpt lat="42.38558" lon="2.54523">
        <ele>861.565</ele>
        <time>2014-07-05T06:12:32Z</time>
      </trkpt>
      <trkpt lat="42.38556" lon="2.5453">
        <ele>861.521</ele>
        <time>2014-07-05T06:12:44Z</time>
      </trkpt>
      <trkpt lat="42.38553" lon="2.54536">
        <ele>862.407</ele>
        <time>2014-07-05T06:12:56Z</time>
      </trkpt>
      <trkpt lat="42.38543" lon="2.54553">
        <ele>864.866</ele>
        <time>2014-07-05T06:13:07Z</time>
      </trkpt>
      <trkpt lat="42.3854" lon="2.5456">
        <ele>865.891</ele>
        <time>2014-07-05T06:13:11Z</time>
      </trkpt>
      <trkpt lat="42.38544" lon="2.5457">
        <ele>866.353</ele>
        <time>2014-07-05T06:13:16Z</time>
      </trkpt>
      <trkpt lat="42.38557" lon="2.546">
        <ele>869.254</ele>
        <time>2014-07-05T06:13:32Z</time>
      </trkpt>
      <trkpt lat="42.38568" lon="2.54622">
        <ele>871.143</ele>
        <time>2014-07-05T06:13:46Z</time>
      </trkpt>
      <trkpt lat="42.38572" lon="2.54634">
        <ele>872.542</ele>
        <time>2014-07-05T06:13:54Z</time>
      </trkpt>
      <trkpt lat="42.38572" lon="2.54638">
        <ele>873.055</ele>
        <time>2014-07-05T06:14:05Z</time>
      </trkpt>
      <trkpt lat="42.38572" lon="2.54638">
        <ele>873.523</ele>
        <time>2014-07-05T06:14:25Z</time>
      </trkpt>
      <trkpt lat="42.38572" lon="2.54641">
        <ele>873.583</ele>
        <time>2014-07-05T06:14:39Z</time>
      </trkpt>
      <trkpt lat="42.38573" lon="2.54641">
        <ele>873.511</ele>
        <time>2014-07-05T06:14:53Z</time>
      </trkpt>
      <trkpt lat="42.38571" lon="2.54641">
        <ele>873.507</ele>
        <time>2014-07-05T06:14:57Z</time>
      </trkpt>
      <trkpt lat="42.38569" lon="2.54641">
        <ele>873.599</ele>
        <time>2014-07-05T06:15:11Z</time>
      </trkpt>
      <trkpt lat="42.38569" lon="2.54643">
        <ele>874.064</ele>
        <time>2014-07-05T06:15:26Z</time>
      </trkpt>
      <trkpt lat="42.38569" lon="2.54643">
        <ele>874.096</ele>
        <time>2014-07-05T06:15:35Z</time>
      </trkpt>
      <trkpt lat="42.38562" lon="2.54638">
        <ele>874.097</ele>
        <time>2014-07-05T06:15:40Z</time>
      </trkpt>
      <trkpt lat="42.38539" lon="2.5463">
        <ele>875.496</ele>
        <time>2014-07-05T06:15:53Z</time>
      </trkpt>
      <trkpt lat="42.38522" lon="2.54615">
        <ele>876.475</ele>
        <time>2014-07-05T06:16:06Z</time>
      </trkpt>
      <trkpt lat="42.38509" lon="2.54606">
        <ele>876.918</ele>
        <time>2014-07-05T06:16:13Z</time>
      </trkpt>
      <trkpt lat="42.38497" lon="2.54598">
        <ele>877.352</ele>
        <time>2014-07-05T06:16:20Z</time>
      </trkpt>
      <trkpt lat="42.38476" lon="2.54589">
        <ele>879.353</ele>
        <time>2014-07-05T06:16:32Z</time>
      </trkpt>
      <trkpt lat="42.38471" lon="2.54584">
        <ele>879.308</ele>
        <time>2014-07-05T06:16:36Z</time>
      </trkpt>
      <trkpt lat="42.38446" lon="2.54572">
        <ele>881.207</ele>
        <time>2014-07-05T06:16:50Z</time>
      </trkpt>
      <trkpt lat="42.38414" lon="2.54559">
        <ele>882.652</ele>
        <time>2014-07-05T06:17:08Z</time>
      </trkpt>
      <trkpt lat="42.38391" lon="2.54546">
        <ele>884.657</ele>
        <time>2014-07-05T06:17:22Z</time>
      </trkpt>
      <trkpt lat="42.38374" lon="2.54534">
        <ele>886.519</ele>
        <time>2014-07-05T06:17:34Z</time>
      </trkpt>
      <trkpt lat="42.38358" lon="2.54521">
        <ele>889.42</ele>
        <time>2014-07-05T06:17:46Z</time>
      </trkpt>
      <trkpt lat="42.38352" lon="2.54519">
        <ele>890.359</ele>
        <time>2014-07-05T06:17:50Z</time>
      </trkpt>
      <trkpt lat="42.3834" lon="2.54523">
        <ele>891.818</ele>
        <time>2014-07-05T06:17:58Z</time>
      </trkpt>
      <trkpt lat="42.38336" lon="2.54528">
        <ele>892.741</ele>
        <time>2014-07-05T06:18:13Z</time>
      </trkpt>
      <trkpt lat="42.38335" lon="2.54531">
        <ele>893.269</ele>
        <time>2014-07-05T06:18:15Z</time>
      </trkpt>
      <trkpt lat="42.38332" lon="2.5454">
        <ele>894.204</ele>
        <time>2014-07-05T06:18:20Z</time>
      </trkpt>
      <trkpt lat="42.38323" lon="2.54571">
        <ele>897.124</ele>
        <time>2014-07-05T06:18:36Z</time>
      </trkpt>
      <trkpt lat="42.38314" lon="2.54592">
        <ele>898.507</ele>
        <time>2014-07-05T06:18:47Z</time>
      </trkpt>
      <trkpt lat="42.38296" lon="2.5461">
        <ele>900.993</ele>
        <time>2014-07-05T06:19:00Z</time>
      </trkpt>
      <trkpt lat="42.3829" lon="2.54612">
        <ele>901.468</ele>
        <time>2014-07-05T06:19:04Z</time>
      </trkpt>
      <trkpt lat="42.38278" lon="2.54615">
        <ele>902.31</ele>
        <time>2014-07-05T06:19:12Z</time>
      </trkpt>
      <trkpt lat="42.38264" lon="2.54613">
        <ele>903.331</ele>
        <time>2014-07-05T06:19:22Z</time>
      </trkpt>
      <trkpt lat="42.38254" lon="2.5461">
        <ele>903.87</ele>
        <time>2014-07-05T06:19:28Z</time>
      </trkpt>
      <trkpt lat="42.38241" lon="2.54601">
        <ele>904.799</ele>
        <time>2014-07-05T06:19:37Z</time>
      </trkpt>
      <trkpt lat="42.38241" lon="2.54585">
        <ele>906.262</ele>
        <time>2014-07-05T06:19:44Z</time>
      </trkpt>
      <trkpt lat="42.38244" lon="2.54571">
        <ele>906.755</ele>
        <time>2014-07-05T06:19:50Z</time>
      </trkpt>
      <trkpt lat="42.3825" lon="2.54536">
        <ele>907.607</ele>
        <time>2014-07-05T06:20:02Z</time>
      </trkpt>
      <trkpt lat="42.38248" lon="2.54494">
        <ele>909.517</ele>
        <time>2014-07-05T06:20:17Z</time>
      </trkpt>
      <trkpt lat="42.3825" lon="2.54458">
        <ele>911.507</ele>
        <time>2014-07-05T06:20:30Z</time>
      </trkpt>
      <trkpt lat="42.38239" lon="2.54455">
        <ele>913.422</ele>
        <time>2014-07-05T06:20:40Z</time>
      </trkpt>
      <trkpt lat="42.38235" lon="2.54475">
        <ele>914.467</ele>
        <time>2014-07-05T06:20:48Z</time>
      </trkpt>
      <trkpt lat="42.38222" lon="2.54487">
        <ele>915.899</ele>
        <time>2014-07-05T06:20:58Z</time>
      </trkpt>
      <trkpt lat="42.38217" lon="2.5449">
        <ele>916.89</ele>
        <time>2014-07-05T06:21:02Z</time>
      </trkpt>
      <trkpt lat="42.38202" lon="2.54502">
        <ele>918.269</ele>
        <time>2014-07-05T06:21:14Z</time>
      </trkpt>
      <trkpt lat="42.38186" lon="2.54518">
        <ele>920.638</ele>
        <time>2014-07-05T06:21:26Z</time>
      </trkpt>
      <trkpt lat="42.38178" lon="2.54525">
        <ele>921.161</ele>
        <time>2014-07-05T06:21:32Z</time>
      </trkpt>
      <trkpt lat="42.38166" lon="2.54533">
        <ele>922.512</ele>
        <time>2014-07-05T06:21:41Z</time>
      </trkpt>
      <trkpt lat="42.3815" lon="2.5455">
        <ele>924.532</ele>
        <time>2014-07-05T06:21:53Z</time>
      </trkpt>
      <trkpt lat="42.38137" lon="2.54565">
        <ele>925.405</ele>
        <time>2014-07-05T06:22:02Z</time>
      </trkpt>
      <trkpt lat="42.38127" lon="2.54568">
        <ele>925.407</ele>
        <time>2014-07-05T06:22:07Z</time>
      </trkpt>
      <trkpt lat="42.38108" lon="2.54567">
        <ele>926.988</ele>
        <time>2014-07-05T06:22:16Z</time>
      </trkpt>
      <trkpt lat="42.38088" lon="2.54576">
        <ele>929.393</ele>
        <time>2014-07-05T06:22:27Z</time>
      </trkpt>
      <trkpt lat="42.38067" lon="2.54597">
        <ele>930.745</ele>
        <time>2014-07-05T06:22:39Z</time>
      </trkpt>
      <trkpt lat="42.38061" lon="2.54603">
        <ele>931.276</ele>
        <time>2014-07-05T06:22:43Z</time>
      </trkpt>
      <trkpt lat="42.38055" lon="2.54609">
        <ele>931.785</ele>
        <time>2014-07-05T06:22:55Z</time>
      </trkpt>
      <trkpt lat="42.38052" lon="2.54615">
        <ele>931.714</ele>
        <time>2014-07-05T06:23:07Z</time>
      </trkpt>
      <trkpt lat="42.38049" lon="2.54612">
        <ele>931.777</ele>
        <time>2014-07-05T06:23:24Z</time>
      </trkpt>
      <trkpt lat="42.38049" lon="2.54613">
        <ele>931.777</ele>
        <time>2014-07-05T06:23:41Z</time>
      </trkpt>
      <trkpt lat="42.38043" lon="2.5462">
        <ele>931.261</ele>
        <time>2014-07-05T06:23:53Z</time>
      </trkpt>
      <trkpt lat="42.38042" lon="2.54623">
        <ele>931.227</ele>
        <time>2014-07-05T06:24:11Z</time>
      </trkpt>
      <trkpt lat="42.3804" lon="2.54626">
        <ele>931.207</ele>
        <time>2014-07-05T06:24:27Z</time>
      </trkpt>
      <trkpt lat="42.38041" lon="2.54626">
        <ele>930.734</ele>
        <time>2014-07-05T06:24:42Z</time>
      </trkpt>
      <trkpt lat="42.38042" lon="2.54626">
        <ele>930.269</ele>
        <time>2014-07-05T06:24:58Z</time>
      </trkpt>
      <trkpt lat="42.38042" lon="2.54628">
        <ele>929.741</ele>
        <time>2014-07-05T06:25:00Z</time>
      </trkpt>
      <trkpt lat="42.38041" lon="2.54639">
        <ele>927.822</ele>
        <time>2014-07-05T06:25:11Z</time>
      </trkpt>
      <trkpt lat="42.38045" lon="2.54645">
        <ele>925.941</ele>
        <time>2014-07-05T06:25:22Z</time>
      </trkpt>
      <trkpt lat="42.38046" lon="2.54647">
        <ele>924.57</ele>
        <time>2014-07-05T06:25:37Z</time>
      </trkpt>
      <trkpt lat="42.38046" lon="2.54648">
        <ele>924.523</ele>
        <time>2014-07-05T06:25:47Z</time>
      </trkpt>
      <trkpt lat="42.38037" lon="2.54653">
        <ele>925.422</ele>
        <time>2014-07-05T06:25:59Z</time>
      </trkpt>
      <trkpt lat="42.3803" lon="2.54659">
        <ele>926.462</ele>
        <time>2014-07-05T06:26:13Z</time>
      </trkpt>
      <trkpt lat="42.38021" lon="2.54662">
        <ele>928.308</ele>
        <time>2014-07-05T06:26:26Z</time>
      </trkpt>
      <trkpt lat="42.38015" lon="2.54669">
        <ele>927.807</ele>
        <time>2014-07-05T06:26:38Z</time>
      </trkpt>
      <trkpt lat="42.38011" lon="2.54673">
        <ele>927.889</ele>
        <time>2014-07-05T06:26:51Z</time>
      </trkpt>
      <trkpt lat="42.38003" lon="2.54674">
        <ele>927.884</ele>
        <time>2014-07-05T06:27:03Z</time>
      </trkpt>
      <trkpt lat="42.37993" lon="2.54679">
        <ele>926.956</ele>
        <time>2014-07-05T06:27:14Z</time>
      </trkpt>
      <trkpt lat="42.37989" lon="2.54678">
        <ele>926.497</ele>
        <time>2014-07-05T06:27:28Z</time>
      </trkpt>
      <trkpt lat="42.37989" lon="2.54678">
        <ele>926.446</ele>
        <time>2014-07-05T06:27:29Z</time>
      </trkpt>
      <trkpt lat="42.37987" lon="2.54677">
        <ele>926.945</ele>
        <time>2014-07-05T06:27:45Z</time>
      </trkpt>
      <trkpt lat="42.37985" lon="2.54676">
        <ele>927.328</ele>
        <time>2014-07-05T06:28:05Z</time>
      </trkpt>
      <trkpt lat="42.37982" lon="2.54676">
        <ele>927.364</ele>
        <time>2014-07-05T06:28:19Z</time>
      </trkpt>
      <trkpt lat="42.37982" lon="2.54677">
        <ele>926.906</ele>
        <time>2014-07-05T06:28:45Z</time>
      </trkpt>
      <trkpt lat="42.3798" lon="2.54677">
        <ele>926.916</ele>
        <time>2014-07-05T06:28:48Z</time>
      </trkpt>
      <trkpt lat="42.37975" lon="2.54679">
        <ele>926.407</ele>
        <time>2014-07-05T06:28:52Z</time>
      </trkpt>
      <trkpt lat="42.3797" lon="2.54682">
        <ele>925.993</ele>
        <time>2014-07-05T06:28:56Z</time>
      </trkpt>
      <trkpt lat="42.3795" lon="2.54694">
        <ele>924.588</ele>
        <time>2014-07-05T06:29:10Z</time>
      </trkpt>
      <trkpt lat="42.37941" lon="2.54703">
        <ele>924.07</ele>
        <time>2014-07-05T06:29:18Z</time>
      </trkpt>
      <trkpt lat="42.37939" lon="2.54705">
        <ele>924.011</ele>
        <time>2014-07-05T06:29:20Z</time>
      </trkpt>
      <trkpt lat="42.37924" lon="2.54717">
        <ele>922.54</ele>
        <time>2014-07-05T06:29:33Z</time>
      </trkpt>
      <trkpt lat="42.37919" lon="2.54733">
        <ele>922.519</ele>
        <time>2014-07-05T06:29:45Z</time>
      </trkpt>
      <trkpt lat="42.37912" lon="2.54743">
        <ele>923.052</ele>
        <time>2014-07-05T06:29:56Z</time>
      </trkpt>
      <trkpt lat="42.37908" lon="2.54756">
        <ele>922.589</ele>
        <time>2014-07-05T06:30:07Z</time>
      </trkpt>
      <trkpt lat="42.37901" lon="2.54763">
        <ele>923.006</ele>
        <time>2014-07-05T06:30:15Z</time>
      </trkpt>
      <trkpt lat="42.37899" lon="2.54773">
        <ele>923.026</ele>
        <time>2014-07-05T06:30:30Z</time>
      </trkpt>
      <trkpt lat="42.37896" lon="2.54779">
        <ele>923.007</ele>
        <time>2014-07-05T06:30:40Z</time>
      </trkpt>
      <trkpt lat="42.37895" lon="2.5478">
        <ele>923.065</ele>
        <time>2014-07-05T06:30:42Z</time>
      </trkpt>
      <trkpt lat="42.37893" lon="2.54788">
        <ele>923.01</ele>
        <time>2014-07-05T06:30:49Z</time>
      </trkpt>
      <trkpt lat="42.37891" lon="2.54794">
        <ele>923.022</ele>
        <time>2014-07-05T06:30:53Z</time>
      </trkpt>
      <trkpt lat="42.37889" lon="2.54799">
        <ele>923.053</ele>
        <time>2014-07-05T06:30:57Z</time>
      </trkpt>
      <trkpt lat="42.3788" lon="2.54816">
        <ele>923.052</ele>
        <time>2014-07-05T06:31:10Z</time>
      </trkpt>
      <trkpt lat="42.37877" lon="2.54829">
        <ele>922.531</ele>
        <time>2014-07-05T06:31:20Z</time>
      </trkpt>
      <trkpt lat="42.37874" lon="2.54841">
        <ele>922.554</ele>
        <time>2014-07-05T06:31:31Z</time>
      </trkpt>
      <trkpt lat="42.37872" lon="2.54847">
        <ele>922.079</ele>
        <time>2014-07-05T06:31:37Z</time>
      </trkpt>
      <trkpt lat="42.37865" lon="2.54861">
        <ele>922.005</ele>
        <time>2014-07-05T06:31:50Z</time>
      </trkpt>
      <trkpt lat="42.37863" lon="2.54864">
        <ele>921.125</ele>
        <time>2014-07-05T06:32:07Z</time>
      </trkpt>
      <trkpt lat="42.37864" lon="2.54866">
        <ele>921.607</ele>
        <time>2014-07-05T06:32:22Z</time>
      </trkpt>
      <trkpt lat="42.37863" lon="2.54872">
        <ele>921.684</ele>
        <time>2014-07-05T06:32:42Z</time>
      </trkpt>
      <trkpt lat="42.37859" lon="2.54882">
        <ele>922.089</ele>
        <time>2014-07-05T06:32:56Z</time>
      </trkpt>
      <trkpt lat="42.3785" lon="2.54886">
        <ele>922.571</ele>
        <time>2014-07-05T06:33:05Z</time>
      </trkpt>
      <trkpt lat="42.37841" lon="2.54883">
        <ele>923.552</ele>
        <time>2014-07-05T06:33:11Z</time>
      </trkpt>
      <trkpt lat="42.37831" lon="2.5487">
        <ele>924.581</ele>
        <time>2014-07-05T06:33:20Z</time>
      </trkpt>
      <trkpt lat="42.3782" lon="2.54864">
        <ele>925.46</ele>
        <time>2014-07-05T06:33:27Z</time>
      </trkpt>
      <trkpt lat="42.37809" lon="2.54858">
        <ele>925.923</ele>
        <time>2014-07-05T06:33:35Z</time>
      </trkpt>
      <trkpt lat="42.37807" lon="2.54854">
        <ele>926.475</ele>
        <time>2014-07-05T06:33:38Z</time>
      </trkpt>
      <trkpt lat="42.37802" lon="2.54851">
        <ele>925.928</ele>
        <time>2014-07-05T06:33:50Z</time>
      </trkpt>
      <trkpt lat="42.37802" lon="2.54851">
        <ele>925.42</ele>
        <time>2014-07-05T06:34:10Z</time>
      </trkpt>
      <trkpt lat="42.37803" lon="2.5485">
        <ele>925.407</ele>
        <time>2014-07-05T06:34:44Z</time>
      </trkpt>
      <trkpt lat="42.37802" lon="2.54847">
        <ele>924.994</ele>
        <time>2014-07-05T06:35:14Z</time>
      </trkpt>
      <trkpt lat="42.37802" lon="2.54845">
        <ele>924.919</ele>
        <time>2014-07-05T06:35:45Z</time>
      </trkpt>
      <trkpt lat="42.37801" lon="2.54847">
        <ele>924.931</ele>
        <time>2014-07-05T06:36:18Z</time>
      </trkpt>
      <trkpt lat="42.378" lon="2.5485">
        <ele>924.572</ele>
        <time>2014-07-05T06:36:45Z</time>
      </trkpt>
      <trkpt lat="42.378" lon="2.54851">
        <ele>925.471</ele>
        <time>2014-07-05T06:37:09Z</time>
      </trkpt>
      <trkpt lat="42.37801" lon="2.54852">
        <ele>925.45</ele>
        <time>2014-07-05T06:37:32Z</time>
      </trkpt>
      <trkpt lat="42.37801" lon="2.54852">
        <ele>924.923</ele>
        <time>2014-07-05T06:37:54Z</time>
      </trkpt>
      <trkpt lat="42.37798" lon="2.54847">
        <ele>925.412</ele>
        <time>2014-07-05T06:38:12Z</time>
      </trkpt>
      <trkpt lat="42.37796" lon="2.54845">
        <ele>925.432</ele>
        <time>2014-07-05T06:38:14Z</time>
      </trkpt>
      <trkpt lat="42.37792" lon="2.54837">
        <ele>925.405</ele>
        <time>2014-07-05T06:38:19Z</time>
      </trkpt>
      <trkpt lat="42.37788" lon="2.54831">
        <ele>925.407</ele>
        <time>2014-07-05T06:38:23Z</time>
      </trkpt>
      <trkpt lat="42.37767" lon="2.54822">
        <ele>925.958</ele>
        <time>2014-07-05T06:38:36Z</time>
      </trkpt>
      <trkpt lat="42.37746" lon="2.54813">
        <ele>926.493</ele>
        <time>2014-07-05T06:38:48Z</time>
      </trkpt>
      <trkpt lat="42.37731" lon="2.548">
        <ele>926.975</ele>
        <time>2014-07-05T06:38:58Z</time>
      </trkpt>
      <trkpt lat="42.37716" lon="2.54793">
        <ele>927.356</ele>
        <time>2014-07-05T06:39:07Z</time>
      </trkpt>
      <trkpt lat="42.37693" lon="2.5477">
        <ele>927.385</ele>
        <time>2014-07-05T06:39:21Z</time>
      </trkpt>
      <trkpt lat="42.37685" lon="2.54763">
        <ele>927.894</ele>
        <time>2014-07-05T06:39:26Z</time>
      </trkpt>
      <trkpt lat="42.37674" lon="2.54743">
        <ele>928.827</ele>
        <time>2014-07-05T06:39:37Z</time>
      </trkpt>
      <trkpt lat="42.37662" lon="2.54723">
        <ele>929.765</ele>
        <time>2014-07-05T06:39:47Z</time>
      </trkpt>
      <trkpt lat="42.37655" lon="2.54714">
        <ele>929.768</ele>
        <time>2014-07-05T06:39:52Z</time>
      </trkpt>
      <trkpt lat="42.37654" lon="2.54712">
        <ele>929.714</ele>
        <time>2014-07-05T06:39:53Z</time>
      </trkpt>
      <trkpt lat="42.3765" lon="2.54703">
        <ele>929.707</ele>
        <time>2014-07-05T06:39:58Z</time>
      </trkpt>
      <trkpt lat="42.37636" lon="2.54695">
        <ele>930.283</ele>
        <time>2014-07-05T06:40:06Z</time>
      </trkpt>
      <trkpt lat="42.37629" lon="2.54694">
        <ele>930.268</ele>
        <time>2014-07-05T06:40:12Z</time>
      </trkpt>
      <trkpt lat="42.37599" lon="2.54683">
        <ele>930.71</ele>
        <time>2014-07-05T06:40:25Z</time>
      </trkpt>
      <trkpt lat="42.37583" lon="2.54674">
        <ele>930.711</ele>
        <time>2014-07-05T06:40:33Z</time>
      </trkpt>
      <trkpt lat="42.37566" lon="2.54657">
        <ele>931.26</ele>
        <time>2014-07-05T06:40:40Z</time>
      </trkpt>
      <trkpt lat="42.37562" lon="2.54649">
        <ele>931.799</ele>
        <time>2014-07-05T06:40:44Z</time>
      </trkpt>
      <trkpt lat="42.37541" lon="2.54625">
        <ele>932.632</ele>
        <time>2014-07-05T06:40:57Z</time>
      </trkpt>
      <trkpt lat="42.37511" lon="2.54613">
        <ele>932.177</ele>
        <time>2014-07-05T06:41:08Z</time>
      </trkpt>
      <trkpt lat="42.37496" lon="2.546">
        <ele>930.261</ele>
        <time>2014-07-05T06:41:12Z</time>
      </trkpt>
      <trkpt lat="42.37477" lon="2.54601">
        <ele>929.327</ele>
        <time>2014-07-05T06:41:18Z</time>
      </trkpt>
      <trkpt lat="42.37476" lon="2.54616">
        <ele>929.707</ele>
        <time>2014-07-05T06:41:22Z</time>
      </trkpt>
      <trkpt lat="42.3748" lon="2.54633">
        <ele>930.754</ele>
        <time>2014-07-05T06:41:28Z</time>
      </trkpt>
      <trkpt lat="42.37479" lon="2.54658">
        <ele>930.729</ele>
        <time>2014-07-05T06:41:38Z</time>
      </trkpt>
      <trkpt lat="42.3749" lon="2.54681">
        <ele>931.241</ele>
        <time>2014-07-05T06:41:47Z</time>
      </trkpt>
      <trkpt lat="42.375" lon="2.54711">
        <ele>933.172</ele>
        <time>2014-07-05T06:41:59Z</time>
      </trkpt>
      <trkpt lat="42.37499" lon="2.5474">
        <ele>934.581</ele>
        <time>2014-07-05T06:42:10Z</time>
      </trkpt>
      <trkpt lat="42.375" lon="2.54756">
        <ele>935.05</ele>
        <time>2014-07-05T06:42:17Z</time>
      </trkpt>
      <trkpt lat="42.37499" lon="2.5476">
        <ele>935.083</ele>
        <time>2014-07-05T06:42:18Z</time>
      </trkpt>
      <trkpt lat="42.37498" lon="2.54765">
        <ele>935.599</ele>
        <time>2014-07-05T06:42:20Z</time>
      </trkpt>
      <trkpt lat="42.37494" lon="2.5478">
        <ele>936.007</ele>
        <time>2014-07-05T06:42:26Z</time>
      </trkpt>
      <trkpt lat="42.37502" lon="2.54803">
        <ele>936.027</ele>
        <time>2014-07-05T06:42:33Z</time>
      </trkpt>
      <trkpt lat="42.37507" lon="2.54816">
        <ele>936.007</ele>
        <time>2014-07-05T06:42:37Z</time>
      </trkpt>
      <trkpt lat="42.37508" lon="2.54822">
        <ele>936.016</ele>
        <time>2014-07-05T06:42:39Z</time>
      </trkpt>
      <trkpt lat="42.37526" lon="2.54848">
        <ele>936.951</ele>
        <time>2014-07-05T06:42:49Z</time>
      </trkpt>
      <trkpt lat="42.37542" lon="2.54875">
        <ele>938.483</ele>
        <time>2014-07-05T06:43:00Z</time>
      </trkpt>
      <trkpt lat="42.37542" lon="2.54877">
        <ele>938.454</ele>
        <time>2014-07-05T06:43:01Z</time>
      </trkpt>
      <trkpt lat="42.37559" lon="2.54907">
        <ele>939.843</ele>
        <time>2014-07-05T06:43:12Z</time>
      </trkpt>
      <trkpt lat="42.37563" lon="2.54921">
        <ele>940.882</ele>
        <time>2014-07-05T06:43:17Z</time>
      </trkpt>
      <trkpt lat="42.37574" lon="2.54937">
        <ele>941.855</ele>
        <time>2014-07-05T06:43:24Z</time>
      </trkpt>
      <trkpt lat="42.37577" lon="2.54945">
        <ele>942.253</ele>
        <time>2014-07-05T06:43:26Z</time>
      </trkpt>
      <trkpt lat="42.37587" lon="2.54979">
        <ele>943.204</ele>
        <time>2014-07-05T06:43:39Z</time>
      </trkpt>
      <trkpt lat="42.37582" lon="2.55021">
        <ele>943.214</ele>
        <time>2014-07-05T06:43:51Z</time>
      </trkpt>
      <trkpt lat="42.37565" lon="2.55051">
        <ele>940.807</ele>
        <time>2014-07-05T06:44:02Z</time>
      </trkpt>
      <trkpt lat="42.37562" lon="2.55054">
        <ele>940.312</ele>
        <time>2014-07-05T06:44:03Z</time>
      </trkpt>
      <trkpt lat="42.37554" lon="2.55071">
        <ele>939.427</ele>
        <time>2014-07-05T06:44:07Z</time>
      </trkpt>
      <trkpt lat="42.37546" lon="2.55079">
        <ele>938.939</ele>
        <time>2014-07-05T06:44:09Z</time>
      </trkpt>
      <trkpt lat="42.37533" lon="2.55092">
        <ele>938.99</ele>
        <time>2014-07-05T06:44:13Z</time>
      </trkpt>
      <trkpt lat="42.37494" lon="2.55129">
        <ele>939.889</ele>
        <time>2014-07-05T06:44:26Z</time>
      </trkpt>
      <trkpt lat="42.37472" lon="2.55119">
        <ele>942.218</ele>
        <time>2014-07-05T06:44:37Z</time>
      </trkpt>
      <trkpt lat="42.37452" lon="2.55098">
        <ele>943.731</ele>
        <time>2014-07-05T06:44:49Z</time>
      </trkpt>
      <trkpt lat="42.37437" lon="2.55083">
        <ele>945.631</ele>
        <time>2014-07-05T06:44:58Z</time>
      </trkpt>
      <trkpt lat="42.37433" lon="2.55077">
        <ele>946.161</ele>
        <time>2014-07-05T06:45:01Z</time>
      </trkpt>
      <trkpt lat="42.37419" lon="2.55069">
        <ele>947.007</ele>
        <time>2014-07-05T06:45:09Z</time>
      </trkpt>
      <trkpt lat="42.37409" lon="2.55058">
        <ele>947.507</ele>
        <time>2014-07-05T06:45:15Z</time>
      </trkpt>
      <trkpt lat="42.37401" lon="2.55049">
        <ele>948.06</ele>
        <time>2014-07-05T06:45:20Z</time>
      </trkpt>
      <trkpt lat="42.37377" lon="2.55039">
        <ele>949.025</ele>
        <time>2014-07-05T06:45:32Z</time>
      </trkpt>
      <trkpt lat="42.37365" lon="2.55039">
        <ele>949.917</ele>
        <time>2014-07-05T06:45:41Z</time>
      </trkpt>
      <trkpt lat="42.37353" lon="2.55042">
        <ele>951.458</ele>
        <time>2014-07-05T06:45:50Z</time>
      </trkpt>
      <trkpt lat="42.37333" lon="2.55051">
        <ele>952.817</ele>
        <time>2014-07-05T06:46:01Z</time>
      </trkpt>
      <trkpt lat="42.3732" lon="2.55057">
        <ele>953.326</ele>
        <time>2014-07-05T06:46:06Z</time>
      </trkpt>
      <trkpt lat="42.37299" lon="2.55057">
        <ele>954.349</ele>
        <time>2014-07-05T06:46:14Z</time>
      </trkpt>
      <trkpt lat="42.37291" lon="2.55066">
        <ele>954.785</ele>
        <time>2014-07-05T06:46:27Z</time>
      </trkpt>
      <trkpt lat="42.3729" lon="2.55069">
        <ele>953.889</ele>
        <time>2014-07-05T06:46:40Z</time>
      </trkpt>
      <trkpt lat="42.37289" lon="2.55069">
        <ele>954.317</ele>
        <time>2014-07-05T06:47:08Z</time>
      </trkpt>
      <trkpt lat="42.37289" lon="2.5507">
        <ele>954.707</ele>
        <time>2014-07-05T06:47:22Z</time>
      </trkpt>
      <trkpt lat="42.37289" lon="2.55069">
        <ele>954.375</ele>
        <time>2014-07-05T06:47:45Z</time>
      </trkpt>
      <trkpt lat="42.37289" lon="2.5507">
        <ele>954.35</ele>
        <time>2014-07-05T06:48:18Z</time>
      </trkpt>
      <trkpt lat="42.3729" lon="2.55071">
        <ele>954.722</ele>
        <time>2014-07-05T06:48:41Z</time>
      </trkpt>
      <trkpt lat="42.3729" lon="2.5507">
        <ele>954.783</ele>
        <time>2014-07-05T06:49:07Z</time>
      </trkpt>
      <trkpt lat="42.37289" lon="2.55071">
        <ele>954.722</ele>
        <time>2014-07-05T06:49:32Z</time>
      </trkpt>
      <trkpt lat="42.3729" lon="2.55071">
        <ele>955.751</ele>
        <time>2014-07-05T06:49:48Z</time>
      </trkpt>
      <trkpt lat="42.37289" lon="2.5507">
        <ele>954.734</ele>
        <time>2014-07-05T06:50:02Z</time>
      </trkpt>
      <trkpt lat="42.37288" lon="2.55069">
        <ele>954.765</ele>
        <time>2014-07-05T06:50:34Z</time>
      </trkpt>
      <trkpt lat="42.37288" lon="2.55069">
        <ele>955.268</ele>
        <time>2014-07-05T06:51:00Z</time>
      </trkpt>
      <trkpt lat="42.37288" lon="2.55067">
        <ele>956.214</ele>
        <time>2014-07-05T06:51:26Z</time>
      </trkpt>
      <trkpt lat="42.37288" lon="2.55067">
        <ele>956.207</ele>
        <time>2014-07-05T06:51:43Z</time>
      </trkpt>
      <trkpt lat="42.37287" lon="2.5507">
        <ele>956.213</ele>
        <time>2014-07-05T06:52:00Z</time>
      </trkpt>
      <trkpt lat="42.37286" lon="2.5507">
        <ele>956.288</ele>
        <time>2014-07-05T06:52:16Z</time>
      </trkpt>
      <trkpt lat="42.37268" lon="2.55066">
        <ele>957.61</ele>
        <time>2014-07-05T06:52:28Z</time>
      </trkpt>
      <trkpt lat="42.37261" lon="2.55065">
        <ele>958.181</ele>
        <time>2014-07-05T06:52:33Z</time>
      </trkpt>
      <trkpt lat="42.37253" lon="2.55063">
        <ele>958.63</ele>
        <time>2014-07-05T06:52:38Z</time>
      </trkpt>
      <trkpt lat="42.3723" lon="2.55057">
        <ele>960.039</ele>
        <time>2014-07-05T06:52:51Z</time>
      </trkpt>
      <trkpt lat="42.37223" lon="2.55055">
        <ele>960.582</ele>
        <time>2014-07-05T06:52:55Z</time>
      </trkpt>
      <trkpt lat="42.37208" lon="2.55052">
        <ele>961.582</ele>
        <time>2014-07-05T06:53:02Z</time>
      </trkpt>
      <trkpt lat="42.372" lon="2.5505">
        <ele>961.943</ele>
        <time>2014-07-05T06:53:08Z</time>
      </trkpt>
      <trkpt lat="42.37173" lon="2.55041">
        <ele>961.517</ele>
        <time>2014-07-05T06:53:20Z</time>
      </trkpt>
      <trkpt lat="42.37152" lon="2.55017">
        <ele>961.007</ele>
        <time>2014-07-05T06:53:29Z</time>
      </trkpt>
      <trkpt lat="42.37114" lon="2.55016">
        <ele>960.025</ele>
        <time>2014-07-05T06:53:41Z</time>
      </trkpt>
      <trkpt lat="42.37062" lon="2.54996">
        <ele>958.62</ele>
        <time>2014-07-05T06:53:55Z</time>
      </trkpt>
      <trkpt lat="42.37051" lon="2.54986">
        <ele>958.662</ele>
        <time>2014-07-05T06:54:01Z</time>
      </trkpt>
      <trkpt lat="42.37043" lon="2.54969">
        <ele>958.673</ele>
        <time>2014-07-05T06:54:07Z</time>
      </trkpt>
      <trkpt lat="42.37029" lon="2.54949">
        <ele>959.572</ele>
        <time>2014-07-05T06:54:14Z</time>
      </trkpt>
      <trkpt lat="42.3701" lon="2.54958">
        <ele>962.461</ele>
        <time>2014-07-05T06:54:25Z</time>
      </trkpt>
      <trkpt lat="42.36992" lon="2.54958">
        <ele>965.344</ele>
        <time>2014-07-05T06:54:36Z</time>
      </trkpt>
      <trkpt lat="42.36972" lon="2.54947">
        <ele>968.246</ele>
        <time>2014-07-05T06:54:50Z</time>
      </trkpt>
      <trkpt lat="42.36956" lon="2.54935">
        <ele>971.188</ele>
        <time>2014-07-05T06:55:03Z</time>
      </trkpt>
      <trkpt lat="42.36941" lon="2.54922">
        <ele>974.016</ele>
        <time>2014-07-05T06:55:15Z</time>
      </trkpt>
      <trkpt lat="42.36938" lon="2.54922">
        <ele>974.007</ele>
        <time>2014-07-05T06:55:17Z</time>
      </trkpt>
      <trkpt lat="42.36932" lon="2.5492">
        <ele>974.421</ele>
        <time>2014-07-05T06:55:21Z</time>
      </trkpt>
      <trkpt lat="42.36913" lon="2.54915">
        <ele>974.936</ele>
        <time>2014-07-05T06:55:31Z</time>
      </trkpt>
      <trkpt lat="42.36876" lon="2.54907">
        <ele>975.488</ele>
        <time>2014-07-05T06:55:44Z</time>
      </trkpt>
      <trkpt lat="42.36855" lon="2.54914">
        <ele>975.939</ele>
        <time>2014-07-05T06:55:51Z</time>
      </trkpt>
      <trkpt lat="42.36845" lon="2.54913">
        <ele>975.988</ele>
        <time>2014-07-05T06:55:54Z</time>
      </trkpt>
      <trkpt lat="42.36823" lon="2.54917">
        <ele>975.967</ele>
        <time>2014-07-05T06:56:01Z</time>
      </trkpt>
      <trkpt lat="42.36801" lon="2.54883">
        <ele>973.03</ele>
        <time>2014-07-05T06:56:10Z</time>
      </trkpt>
      <trkpt lat="42.36795" lon="2.54889">
        <ele>973.078</ele>
        <time>2014-07-05T06:56:12Z</time>
      </trkpt>
      <trkpt lat="42.36786" lon="2.54913">
        <ele>971.133</ele>
        <time>2014-07-05T06:56:16Z</time>
      </trkpt>
      <trkpt lat="42.36782" lon="2.54925">
        <ele>970.126</ele>
        <time>2014-07-05T06:56:18Z</time>
      </trkpt>
      <trkpt lat="42.36779" lon="2.54932">
        <ele>969.607</ele>
        <time>2014-07-05T06:56:19Z</time>
      </trkpt>
      <trkpt lat="42.36758" lon="2.54947">
        <ele>968.774</ele>
        <time>2014-07-05T06:56:22Z</time>
      </trkpt>
      <trkpt lat="42.3674" lon="2.54955">
        <ele>966.769</ele>
        <time>2014-07-05T06:56:25Z</time>
      </trkpt>
      <trkpt lat="42.3673" lon="2.54965">
        <ele>965.831</ele>
        <time>2014-07-05T06:56:26Z</time>
      </trkpt>
      <trkpt lat="42.36729" lon="2.54973">
        <ele>965.842</ele>
        <time>2014-07-05T06:56:27Z</time>
      </trkpt>
      <trkpt lat="42.36736" lon="2.54996">
        <ele>966.741</ele>
        <time>2014-07-05T06:56:32Z</time>
      </trkpt>
      <trkpt lat="42.3674" lon="2.55007">
        <ele>967.74</ele>
        <time>2014-07-05T06:56:35Z</time>
      </trkpt>
      <trkpt lat="42.36741" lon="2.55035">
        <ele>968.733</ele>
        <time>2014-07-05T06:56:43Z</time>
      </trkpt>
      <trkpt lat="42.36743" lon="2.55037">
        <ele>969.212</ele>
        <time>2014-07-05T06:56:44Z</time>
      </trkpt>
      <trkpt lat="42.36745" lon="2.55037">
        <ele>969.232</ele>
        <time>2014-07-05T06:56:45Z</time>
      </trkpt>
      <trkpt lat="42.36749" lon="2.55035">
        <ele>969.205</ele>
        <time>2014-07-05T06:56:46Z</time>
      </trkpt>
      <trkpt lat="42.36779" lon="2.55023">
        <ele>970.607</ele>
        <time>2014-07-05T06:56:58Z</time>
      </trkpt>
      <trkpt lat="42.36781" lon="2.55023">
        <ele>971.178</ele>
        <time>2014-07-05T06:56:59Z</time>
      </trkpt>
      <trkpt lat="42.36801" lon="2.55033">
        <ele>971.693</ele>
        <time>2014-07-05T06:57:09Z</time>
      </trkpt>
      <trkpt lat="42.36807" lon="2.55036">
        <ele>972.075</ele>
        <time>2014-07-05T06:57:12Z</time>
      </trkpt>
      <trkpt lat="42.36827" lon="2.55057">
        <ele>973.576</ele>
        <time>2014-07-05T06:57:24Z</time>
      </trkpt>
      <trkpt lat="42.36833" lon="2.55065">
        <ele>974.025</ele>
        <time>2014-07-05T06:57:29Z</time>
      </trkpt>
      <trkpt lat="42.36836" lon="2.55071">
        <ele>974.454</ele>
        <time>2014-07-05T06:57:33Z</time>
      </trkpt>
      <trkpt lat="42.36847" lon="2.55077">
        <ele>974.947</ele>
        <time>2014-07-05T06:57:37Z</time>
      </trkpt>
      <trkpt lat="42.36872" lon="2.55099">
        <ele>975.431</ele>
        <time>2014-07-05T06:57:50Z</time>
      </trkpt>
      <trkpt lat="42.36877" lon="2.5511">
        <ele>975.961</ele>
        <time>2014-07-05T06:57:53Z</time>
      </trkpt>
      <trkpt lat="42.36881" lon="2.5512">
        <ele>977.307</ele>
        <time>2014-07-05T06:57:57Z</time>
      </trkpt>
      <trkpt lat="42.36883" lon="2.55126">
        <ele>977.807</ele>
        <time>2014-07-05T06:57:59Z</time>
      </trkpt>
      <trkpt lat="42.36884" lon="2.55129">
        <ele>977.89</ele>
        <time>2014-07-05T06:58:01Z</time>
      </trkpt>
      <trkpt lat="42.36885" lon="2.55139">
        <ele>978.895</ele>
        <time>2014-07-05T06:58:05Z</time>
      </trkpt>
      <trkpt lat="42.36888" lon="2.5515">
        <ele>979.237</ele>
        <time>2014-07-05T06:58:08Z</time>
      </trkpt>
      <trkpt lat="42.36896" lon="2.55161">
        <ele>980.228</ele>
        <time>2014-07-05T06:58:14Z</time>
      </trkpt>
      <trkpt lat="42.36897" lon="2.55163">
        <ele>980.227</ele>
        <time>2014-07-05T06:58:15Z</time>
      </trkpt>
      <trkpt lat="42.3692" lon="2.55179">
        <ele>981.226</ele>
        <time>2014-07-05T06:58:26Z</time>
      </trkpt>
      <trkpt lat="42.36924" lon="2.55192">
        <ele>981.679</ele>
        <time>2014-07-05T06:58:30Z</time>
      </trkpt>
      <trkpt lat="42.36924" lon="2.55199">
        <ele>981.632</ele>
        <time>2014-07-05T06:58:31Z</time>
      </trkpt>
      <trkpt lat="42.36924" lon="2.55219">
        <ele>982.692</ele>
        <time>2014-07-05T06:58:37Z</time>
      </trkpt>
      <trkpt lat="42.36926" lon="2.55259">
        <ele>983.611</ele>
        <time>2014-07-05T06:58:49Z</time>
      </trkpt>
      <trkpt lat="42.36927" lon="2.55289">
        <ele>984.507</ele>
        <time>2014-07-05T06:58:57Z</time>
      </trkpt>
      <trkpt lat="42.36908" lon="2.55315">
        <ele>986.53</ele>
        <time>2014-07-05T06:59:08Z</time>
      </trkpt>
      <trkpt lat="42.36904" lon="2.5532">
        <ele>986.935</ele>
        <time>2014-07-05T06:59:10Z</time>
      </trkpt>
      <trkpt lat="42.36901" lon="2.5533">
        <ele>987.467</ele>
        <time>2014-07-05T06:59:14Z</time>
      </trkpt>
      <trkpt lat="42.36899" lon="2.55333">
        <ele>987.948</ele>
        <time>2014-07-05T06:59:15Z</time>
      </trkpt>
      <trkpt lat="42.36904" lon="2.55337">
        <ele>988.427</ele>
        <time>2014-07-05T06:59:18Z</time>
      </trkpt>
      <trkpt lat="42.36905" lon="2.55354">
        <ele>989.396</ele>
        <time>2014-07-05T06:59:23Z</time>
      </trkpt>
      <trkpt lat="42.36907" lon="2.5536">
        <ele>989.369</ele>
        <time>2014-07-05T06:59:25Z</time>
      </trkpt>
      <trkpt lat="42.36908" lon="2.55369">
        <ele>990.361</ele>
        <time>2014-07-05T06:59:28Z</time>
      </trkpt>
      <trkpt lat="42.36909" lon="2.55372">
        <ele>990.321</ele>
        <time>2014-07-05T06:59:29Z</time>
      </trkpt>
      <trkpt lat="42.36911" lon="2.55385">
        <ele>991.313</ele>
        <time>2014-07-05T06:59:33Z</time>
      </trkpt>
      <trkpt lat="42.36911" lon="2.55388">
        <ele>991.307</ele>
        <time>2014-07-05T06:59:34Z</time>
      </trkpt>
      <trkpt lat="42.36912" lon="2.55391">
        <ele>991.763</ele>
        <time>2014-07-05T06:59:35Z</time>
      </trkpt>
      <trkpt lat="42.36912" lon="2.554">
        <ele>992.218</ele>
        <time>2014-07-05T06:59:38Z</time>
      </trkpt>
      <trkpt lat="42.3691" lon="2.55402">
        <ele>992.25</ele>
        <time>2014-07-05T06:59:39Z</time>
      </trkpt>
      <trkpt lat="42.36912" lon="2.5541">
        <ele>992.771</ele>
        <time>2014-07-05T06:59:42Z</time>
      </trkpt>
      <trkpt lat="42.36911" lon="2.55413">
        <ele>993.25</ele>
        <time>2014-07-05T06:59:43Z</time>
      </trkpt>
      <trkpt lat="42.36901" lon="2.55444">
        <ele>994.179</ele>
        <time>2014-07-05T06:59:54Z</time>
      </trkpt>
      <trkpt lat="42.36894" lon="2.55471">
        <ele>995.632</ele>
        <time>2014-07-05T07:00:03Z</time>
      </trkpt>
      <trkpt lat="42.36895" lon="2.55473">
        <ele>995.649</ele>
        <time>2014-07-05T07:00:04Z</time>
      </trkpt>
      <trkpt lat="42.36893" lon="2.5548">
        <ele>996.502</ele>
        <time>2014-07-05T07:00:07Z</time>
      </trkpt>
      <trkpt lat="42.3689" lon="2.55481">
        <ele>996.522</ele>
        <time>2014-07-05T07:00:09Z</time>
      </trkpt>
      <trkpt lat="42.36888" lon="2.55493">
        <ele>997.507</ele>
        <time>2014-07-05T07:00:13Z</time>
      </trkpt>
      <trkpt lat="42.3689" lon="2.55524">
        <ele>999.081</ele>
        <time>2014-07-05T07:00:22Z</time>
      </trkpt>
      <trkpt lat="42.36895" lon="2.55544">
        <ele>999.496</ele>
        <time>2014-07-05T07:00:28Z</time>
      </trkpt>
      <trkpt lat="42.36899" lon="2.55565">
        <ele>999.488</ele>
        <time>2014-07-05T07:00:34Z</time>
      </trkpt>
      <trkpt lat="42.36909" lon="2.55602">
        <ele>999.959</ele>
        <time>2014-07-05T07:00:43Z</time>
      </trkpt>
      <trkpt lat="42.369" lon="2.55623">
        <ele>1001.438</ele>
        <time>2014-07-05T07:00:52Z</time>
      </trkpt>
      <trkpt lat="42.36895" lon="2.5563">
        <ele>1001.887</ele>
        <time>2014-07-05T07:00:55Z</time>
      </trkpt>
      <trkpt lat="42.36887" lon="2.55652">
        <ele>1003.38</ele>
        <time>2014-07-05T07:01:03Z</time>
      </trkpt>
      <trkpt lat="42.36885" lon="2.55682">
        <ele>1004.288</ele>
        <time>2014-07-05T07:01:13Z</time>
      </trkpt>
      <trkpt lat="42.36893" lon="2.55708">
        <ele>1005.224</ele>
        <time>2014-07-05T07:01:24Z</time>
      </trkpt>
      <trkpt lat="42.36902" lon="2.55719">
        <ele>1005.726</ele>
        <time>2014-07-05T07:01:32Z</time>
      </trkpt>
      <trkpt lat="42.36906" lon="2.55731">
        <ele>1005.707</ele>
        <time>2014-07-05T07:01:36Z</time>
      </trkpt>
      <trkpt lat="42.36907" lon="2.55739">
        <ele>1006.245</ele>
        <time>2014-07-05T07:01:39Z</time>
      </trkpt>
      <trkpt lat="42.36907" lon="2.55746">
        <ele>1006.69</ele>
        <time>2014-07-05T07:01:42Z</time>
      </trkpt>
      <trkpt lat="42.3691" lon="2.55749">
        <ele>1006.652</ele>
        <time>2014-07-05T07:01:44Z</time>
      </trkpt>
      <trkpt lat="42.36918" lon="2.5575">
        <ele>1007.163</ele>
        <time>2014-07-05T07:01:48Z</time>
      </trkpt>
      <trkpt lat="42.36932" lon="2.55757">
        <ele>1007.642</ele>
        <time>2014-07-05T07:02:02Z</time>
      </trkpt>
      <trkpt lat="42.36931" lon="2.55754">
        <ele>1007.111</ele>
        <time>2014-07-05T07:02:23Z</time>
      </trkpt>
      <trkpt lat="42.36929" lon="2.55759">
        <ele>1007.174</ele>
        <time>2014-07-05T07:02:58Z</time>
      </trkpt>
      <trkpt lat="42.36929" lon="2.55761">
        <ele>1008.126</ele>
        <time>2014-07-05T07:03:10Z</time>
      </trkpt>
      <trkpt lat="42.36935" lon="2.55765">
        <ele>1008.147</ele>
        <time>2014-07-05T07:03:23Z</time>
      </trkpt>
      <trkpt lat="42.36937" lon="2.55768">
        <ele>1008.611</ele>
        <time>2014-07-05T07:03:26Z</time>
      </trkpt>
      <trkpt lat="42.36949" lon="2.55778">
        <ele>1009.007</ele>
        <time>2014-07-05T07:03:35Z</time>
      </trkpt>
      <trkpt lat="42.36956" lon="2.55779">
        <ele>1009.559</ele>
        <time>2014-07-05T07:03:39Z</time>
      </trkpt>
      <trkpt lat="42.36962" lon="2.55779">
        <ele>1009.524</ele>
        <time>2014-07-05T07:03:42Z</time>
      </trkpt>
      <trkpt lat="42.36987" lon="2.55785">
        <ele>1011.096</ele>
        <time>2014-07-05T07:03:54Z</time>
      </trkpt>
      <trkpt lat="42.36995" lon="2.55789">
        <ele>1011.467</ele>
        <time>2014-07-05T07:03:58Z</time>
      </trkpt>
      <trkpt lat="42.37001" lon="2.55791">
        <ele>1011.926</ele>
        <time>2014-07-05T07:04:01Z</time>
      </trkpt>
      <trkpt lat="42.37023" lon="2.558">
        <ele>1013.915</ele>
        <time>2014-07-05T07:04:14Z</time>
      </trkpt>
      <trkpt lat="42.37025" lon="2.55801">
        <ele>1013.918</ele>
        <time>2014-07-05T07:04:15Z</time>
      </trkpt>
      <trkpt lat="42.37043" lon="2.55824">
        <ele>1014.832</ele>
        <time>2014-07-05T07:04:25Z</time>
      </trkpt>
      <trkpt lat="42.37047" lon="2.55856">
        <ele>1018.292</ele>
        <time>2014-07-05T07:04:38Z</time>
      </trkpt>
      <trkpt lat="42.37048" lon="2.5586">
        <ele>1017.211</ele>
        <time>2014-07-05T07:04:40Z</time>
      </trkpt>
      <trkpt lat="42.37051" lon="2.55873">
        <ele>1018.207</ele>
        <time>2014-07-05T07:04:46Z</time>
      </trkpt>
      <trkpt lat="42.37051" lon="2.55883">
        <ele>1019.19</ele>
        <time>2014-07-05T07:04:50Z</time>
      </trkpt>
      <trkpt lat="42.37054" lon="2.55887">
        <ele>1019.185</ele>
        <time>2014-07-05T07:04:52Z</time>
      </trkpt>
      <trkpt lat="42.37057" lon="2.55911">
        <ele>1020.667</ele>
        <time>2014-07-05T07:05:02Z</time>
      </trkpt>
      <trkpt lat="42.37059" lon="2.55927">
        <ele>1021.548</ele>
        <time>2014-07-05T07:05:08Z</time>
      </trkpt>
      <trkpt lat="42.37059" lon="2.55954">
        <ele>1023.997</ele>
        <time>2014-07-05T07:05:20Z</time>
      </trkpt>
      <trkpt lat="42.37056" lon="2.55971">
        <ele>1025.476</ele>
        <time>2014-07-05T07:05:28Z</time>
      </trkpt>
      <trkpt lat="42.37053" lon="2.55983">
        <ele>1025.999</ele>
        <time>2014-07-05T07:05:34Z</time>
      </trkpt>
      <trkpt lat="42.37056" lon="2.55991">
        <ele>1026.815</ele>
        <time>2014-07-05T07:05:38Z</time>
      </trkpt>
      <trkpt lat="42.37063" lon="2.55999">
        <ele>1027.365</ele>
        <time>2014-07-05T07:05:42Z</time>
      </trkpt>
      <trkpt lat="42.37071" lon="2.56005">
        <ele>1028.311</ele>
        <time>2014-07-05T07:05:46Z</time>
      </trkpt>
      <trkpt lat="42.37078" lon="2.56013">
        <ele>1029.207</ele>
        <time>2014-07-05T07:05:53Z</time>
      </trkpt>
      <trkpt lat="42.37102" lon="2.56011">
        <ele>1031.298</ele>
        <time>2014-07-05T07:06:05Z</time>
      </trkpt>
      <trkpt lat="42.37108" lon="2.56012">
        <ele>1031.613</ele>
        <time>2014-07-05T07:06:09Z</time>
      </trkpt>
      <trkpt lat="42.37121" lon="2.56018">
        <ele>1032.635</ele>
        <time>2014-07-05T07:06:17Z</time>
      </trkpt>
      <trkpt lat="42.37128" lon="2.56021">
        <ele>1033.646</ele>
        <time>2014-07-05T07:06:21Z</time>
      </trkpt>
      <trkpt lat="42.37144" lon="2.56023">
        <ele>1034.585</ele>
        <time>2014-07-05T07:06:30Z</time>
      </trkpt>
      <trkpt lat="42.37165" lon="2.56012">
        <ele>1036.484</ele>
        <time>2014-07-05T07:06:43Z</time>
      </trkpt>
      <trkpt lat="42.37186" lon="2.56002">
        <ele>1038.437</ele>
        <time>2014-07-05T07:06:55Z</time>
      </trkpt>
      <trkpt lat="42.37205" lon="2.55993">
        <ele>1038.899</ele>
        <time>2014-07-05T07:07:06Z</time>
      </trkpt>
      <trkpt lat="42.37211" lon="2.55987">
        <ele>1039.307</ele>
        <time>2014-07-05T07:07:10Z</time>
      </trkpt>
      <trkpt lat="42.3723" lon="2.55978">
        <ele>1042.227</ele>
        <time>2014-07-05T07:07:22Z</time>
      </trkpt>
      <trkpt lat="42.37247" lon="2.5597">
        <ele>1043.707</ele>
        <time>2014-07-05T07:07:32Z</time>
      </trkpt>
      <trkpt lat="42.37253" lon="2.55965">
        <ele>1044.666</ele>
        <time>2014-07-05T07:07:36Z</time>
      </trkpt>
      <trkpt lat="42.37257" lon="2.55962">
        <ele>1045.131</ele>
        <time>2014-07-05T07:07:38Z</time>
      </trkpt>
      <trkpt lat="42.37271" lon="2.55947">
        <ele>1046.583</ele>
        <time>2014-07-05T07:07:49Z</time>
      </trkpt>
      <trkpt lat="42.37277" lon="2.55942">
        <ele>1047.534</ele>
        <time>2014-07-05T07:07:53Z</time>
      </trkpt>
      <trkpt lat="42.37287" lon="2.55927">
        <ele>1048.953</ele>
        <time>2014-07-05T07:08:02Z</time>
      </trkpt>
      <trkpt lat="42.37297" lon="2.55912">
        <ele>1050.952</ele>
        <time>2014-07-05T07:08:11Z</time>
      </trkpt>
      <trkpt lat="42.37311" lon="2.55913">
        <ele>1052.385</ele>
        <time>2014-07-05T07:08:23Z</time>
      </trkpt>
      <trkpt lat="42.37311" lon="2.55915">
        <ele>1052.343</ele>
        <time>2014-07-05T07:08:24Z</time>
      </trkpt>
      <trkpt lat="42.37302" lon="2.55945">
        <ele>1056.664</ele>
        <time>2014-07-05T07:08:40Z</time>
      </trkpt>
      <trkpt lat="42.37293" lon="2.55957">
        <ele>1056.21</ele>
        <time>2014-07-05T07:08:48Z</time>
      </trkpt>
      <trkpt lat="42.37289" lon="2.55968">
        <ele>1057.107</ele>
        <time>2014-07-05T07:08:53Z</time>
      </trkpt>
      <trkpt lat="42.37278" lon="2.55987">
        <ele>1059.091</ele>
        <time>2014-07-05T07:09:05Z</time>
      </trkpt>
      <trkpt lat="42.37268" lon="2.56006">
        <ele>1061.026</ele>
        <time>2014-07-05T07:09:17Z</time>
      </trkpt>
      <trkpt lat="42.37266" lon="2.56008">
        <ele>1061.478</ele>
        <time>2014-07-05T07:09:19Z</time>
      </trkpt>
      <trkpt lat="42.37248" lon="2.56023">
        <ele>1062.449</ele>
        <time>2014-07-05T07:09:33Z</time>
      </trkpt>
      <trkpt lat="42.37244" lon="2.56026">
        <ele>1063.428</ele>
        <time>2014-07-05T07:09:36Z</time>
      </trkpt>
      <trkpt lat="42.3724" lon="2.56033">
        <ele>1063.877</ele>
        <time>2014-07-05T07:09:41Z</time>
      </trkpt>
      <trkpt lat="42.37228" lon="2.56047">
        <ele>1066.22</ele>
        <time>2014-07-05T07:09:52Z</time>
      </trkpt>
      <trkpt lat="42.37221" lon="2.56054">
        <ele>1067.724</ele>
        <time>2014-07-05T07:10:00Z</time>
      </trkpt>
      <trkpt lat="42.37213" lon="2.56058">
        <ele>1068.604</ele>
        <time>2014-07-05T07:10:05Z</time>
      </trkpt>
      <trkpt lat="42.37196" lon="2.56069">
        <ele>1069.614</ele>
        <time>2014-07-05T07:10:15Z</time>
      </trkpt>
      <trkpt lat="42.37189" lon="2.56075">
        <ele>1070.107</ele>
        <time>2014-07-05T07:10:21Z</time>
      </trkpt>
      <trkpt lat="42.37181" lon="2.56089">
        <ele>1071.539</ele>
        <time>2014-07-05T07:10:29Z</time>
      </trkpt>
      <trkpt lat="42.37174" lon="2.56096">
        <ele>1072.094</ele>
        <time>2014-07-05T07:10:34Z</time>
      </trkpt>
      <trkpt lat="42.37157" lon="2.56114">
        <ele>1074.996</ele>
        <time>2014-07-05T07:10:48Z</time>
      </trkpt>
      <trkpt lat="42.37136" lon="2.56122">
        <ele>1076.837</ele>
        <time>2014-07-05T07:11:01Z</time>
      </trkpt>
      <trkpt lat="42.37131" lon="2.56123">
        <ele>1077.326</ele>
        <time>2014-07-05T07:11:04Z</time>
      </trkpt>
      <trkpt lat="42.37123" lon="2.56123">
        <ele>1077.825</ele>
        <time>2014-07-05T07:11:09Z</time>
      </trkpt>
      <trkpt lat="42.37101" lon="2.56118">
        <ele>1079.738</ele>
        <time>2014-07-05T07:11:24Z</time>
      </trkpt>
      <trkpt lat="42.3708" lon="2.56129">
        <ele>1081.167</ele>
        <time>2014-07-05T07:11:37Z</time>
      </trkpt>
      <trkpt lat="42.37073" lon="2.56132">
        <ele>1081.681</ele>
        <time>2014-07-05T07:11:42Z</time>
      </trkpt>
      <trkpt lat="42.37067" lon="2.56134">
        <ele>1082.119</ele>
        <time>2014-07-05T07:11:47Z</time>
      </trkpt>
      <trkpt lat="42.37056" lon="2.56137">
        <ele>1083.507</ele>
        <time>2014-07-05T07:11:59Z</time>
      </trkpt>
      <trkpt lat="42.37055" lon="2.56138">
        <ele>1084.063</ele>
        <time>2014-07-05T07:12:00Z</time>
      </trkpt>
      <trkpt lat="42.37045" lon="2.56131">
        <ele>1085.578</ele>
        <time>2014-07-05T07:12:10Z</time>
      </trkpt>
      <trkpt lat="42.37042" lon="2.56126">
        <ele>1086.05</ele>
        <time>2014-07-05T07:12:13Z</time>
      </trkpt>
      <trkpt lat="42.3704" lon="2.56121">
        <ele>1086.091</ele>
        <time>2014-07-05T07:12:16Z</time>
      </trkpt>
      <trkpt lat="42.37034" lon="2.56112">
        <ele>1086.48</ele>
        <time>2014-07-05T07:12:21Z</time>
      </trkpt>
      <trkpt lat="42.37033" lon="2.56109">
        <ele>1086.959</ele>
        <time>2014-07-05T07:12:23Z</time>
      </trkpt>
      <trkpt lat="42.37017" lon="2.56092">
        <ele>1087.982</ele>
        <time>2014-07-05T07:12:35Z</time>
      </trkpt>
      <trkpt lat="42.37011" lon="2.56087">
        <ele>1087.918</ele>
        <time>2014-07-05T07:12:39Z</time>
      </trkpt>
      <trkpt lat="42.36998" lon="2.56084">
        <ele>1089.398</ele>
        <time>2014-07-05T07:12:50Z</time>
      </trkpt>
      <trkpt lat="42.36993" lon="2.56078">
        <ele>1090.817</ele>
        <time>2014-07-05T07:12:59Z</time>
      </trkpt>
      <trkpt lat="42.36993" lon="2.56072">
        <ele>1091.707</ele>
        <time>2014-07-05T07:13:03Z</time>
      </trkpt>
      <trkpt lat="42.36985" lon="2.56058">
        <ele>1092.798</ele>
        <time>2014-07-05T07:13:10Z</time>
      </trkpt>
      <trkpt lat="42.36976" lon="2.56044">
        <ele>1093.623</ele>
        <time>2014-07-05T07:13:17Z</time>
      </trkpt>
      <trkpt lat="42.36967" lon="2.56029">
        <ele>1095.195</ele>
        <time>2014-07-05T07:13:26Z</time>
      </trkpt>
      <trkpt lat="42.3696" lon="2.56017">
        <ele>1097.086</ele>
        <time>2014-07-05T07:13:36Z</time>
      </trkpt>
      <trkpt lat="42.36953" lon="2.5601">
        <ele>1098.045</ele>
        <time>2014-07-05T07:13:41Z</time>
      </trkpt>
      <trkpt lat="42.36948" lon="2.56004">
        <ele>1098.414</ele>
        <time>2014-07-05T07:13:46Z</time>
      </trkpt>
      <trkpt lat="42.36927" lon="2.55994">
        <ele>1100.467</ele>
        <time>2014-07-05T07:14:01Z</time>
      </trkpt>
      <trkpt lat="42.36905" lon="2.55993">
        <ele>1102.376</ele>
        <time>2014-07-05T07:14:16Z</time>
      </trkpt>
      <trkpt lat="42.36898" lon="2.55992">
        <ele>1103.79</ele>
        <time>2014-07-05T07:14:23Z</time>
      </trkpt>
      <trkpt lat="42.36894" lon="2.55988">
        <ele>1104.219</ele>
        <time>2014-07-05T07:14:27Z</time>
      </trkpt>
      <trkpt lat="42.36888" lon="2.55982">
        <ele>1105.207</ele>
        <time>2014-07-05T07:14:32Z</time>
      </trkpt>
      <trkpt lat="42.36865" lon="2.55967">
        <ele>1107.664</ele>
        <time>2014-07-05T07:14:48Z</time>
      </trkpt>
      <trkpt lat="42.36853" lon="2.55963">
        <ele>1109.049</ele>
        <time>2014-07-05T07:14:57Z</time>
      </trkpt>
      <trkpt lat="42.36858" lon="2.55973">
        <ele>1109.521</ele>
        <time>2014-07-05T07:15:07Z</time>
      </trkpt>
      <trkpt lat="42.36859" lon="2.55974">
        <ele>1110.052</ele>
        <time>2014-07-05T07:15:08Z</time>
      </trkpt>
      <trkpt lat="42.3688" lon="2.5599">
        <ele>1110.951</ele>
        <time>2014-07-05T07:15:23Z</time>
      </trkpt>
      <trkpt lat="42.36885" lon="2.55997">
        <ele>1111.44</ele>
        <time>2014-07-05T07:15:28Z</time>
      </trkpt>
      <trkpt lat="42.3689" lon="2.56005">
        <ele>1111.963</ele>
        <time>2014-07-05T07:15:33Z</time>
      </trkpt>
      <trkpt lat="42.36903" lon="2.56008">
        <ele>1112.469</ele>
        <time>2014-07-05T07:15:41Z</time>
      </trkpt>
      <trkpt lat="42.36907" lon="2.5601">
        <ele>1113.304</ele>
        <time>2014-07-05T07:15:44Z</time>
      </trkpt>
      <trkpt lat="42.36917" lon="2.56016">
        <ele>1114.324</ele>
        <time>2014-07-05T07:15:52Z</time>
      </trkpt>
      <trkpt lat="42.36925" lon="2.56024">
        <ele>1115.307</ele>
        <time>2014-07-05T07:15:59Z</time>
      </trkpt>
      <trkpt lat="42.36935" lon="2.56039">
        <ele>1116.743</ele>
        <time>2014-07-05T07:16:09Z</time>
      </trkpt>
      <trkpt lat="42.36941" lon="2.56057">
        <ele>1117.788</ele>
        <time>2014-07-05T07:16:19Z</time>
      </trkpt>
      <trkpt lat="42.36943" lon="2.56087">
        <ele>1118.63</ele>
        <time>2014-07-05T07:16:34Z</time>
      </trkpt>
      <trkpt lat="42.36944" lon="2.56091">
        <ele>1118.661</ele>
        <time>2014-07-05T07:16:36Z</time>
      </trkpt>
      <trkpt lat="42.36945" lon="2.56109">
        <ele>1121.03</ele>
        <time>2014-07-05T07:16:44Z</time>
      </trkpt>
      <trkpt lat="42.36964" lon="2.56126">
        <ele>1120.129</ele>
        <time>2014-07-05T07:16:56Z</time>
      </trkpt>
      <trkpt lat="42.36976" lon="2.56139">
        <ele>1121.062</ele>
        <time>2014-07-05T07:17:04Z</time>
      </trkpt>
      <trkpt lat="42.3698" lon="2.56152">
        <ele>1121.547</ele>
        <time>2014-07-05T07:17:11Z</time>
      </trkpt>
      <trkpt lat="42.36981" lon="2.56161">
        <ele>1122.029</ele>
        <time>2014-07-05T07:17:15Z</time>
      </trkpt>
      <trkpt lat="42.36982" lon="2.56167">
        <ele>1122.521</ele>
        <time>2014-07-05T07:17:19Z</time>
      </trkpt>
      <trkpt lat="42.36984" lon="2.56174">
        <ele>1123.007</ele>
        <time>2014-07-05T07:17:22Z</time>
      </trkpt>
      <trkpt lat="42.36988" lon="2.56187">
        <ele>1123.481</ele>
        <time>2014-07-05T07:17:29Z</time>
      </trkpt>
      <trkpt lat="42.37" lon="2.56207">
        <ele>1124.916</ele>
        <time>2014-07-05T07:17:40Z</time>
      </trkpt>
      <trkpt lat="42.37014" lon="2.56218">
        <ele>1126.328</ele>
        <time>2014-07-05T07:17:52Z</time>
      </trkpt>
      <trkpt lat="42.37025" lon="2.56219">
        <ele>1127.319</ele>
        <time>2014-07-05T07:17:59Z</time>
      </trkpt>
      <trkpt lat="42.37049" lon="2.56229">
        <ele>1129.278</ele>
        <time>2014-07-05T07:18:11Z</time>
      </trkpt>
      <trkpt lat="42.37057" lon="2.56234">
        <ele>1130.267</ele>
        <time>2014-07-05T07:18:17Z</time>
      </trkpt>
      <trkpt lat="42.37065" lon="2.56239">
        <ele>1131.61</ele>
        <time>2014-07-05T07:18:23Z</time>
      </trkpt>
      <trkpt lat="42.37076" lon="2.5625">
        <ele>1133.117</ele>
        <time>2014-07-05T07:18:32Z</time>
      </trkpt>
      <trkpt lat="42.37073" lon="2.56262">
        <ele>1133.587</ele>
        <time>2014-07-05T07:18:40Z</time>
      </trkpt>
      <trkpt lat="42.3706" lon="2.56276">
        <ele>1135.515</ele>
        <time>2014-07-05T07:18:52Z</time>
      </trkpt>
      <trkpt lat="42.37057" lon="2.56279">
        <ele>1135.907</ele>
        <time>2014-07-05T07:18:55Z</time>
      </trkpt>
      <trkpt lat="42.37053" lon="2.56283">
        <ele>1136.978</ele>
        <time>2014-07-05T07:18:59Z</time>
      </trkpt>
      <trkpt lat="42.37045" lon="2.56294">
        <ele>1138.363</ele>
        <time>2014-07-05T07:19:07Z</time>
      </trkpt>
      <trkpt lat="42.3704" lon="2.56305">
        <ele>1139.365</ele>
        <time>2014-07-05T07:19:13Z</time>
      </trkpt>
      <trkpt lat="42.37032" lon="2.56327">
        <ele>1141.296</ele>
        <time>2014-07-05T07:19:26Z</time>
      </trkpt>
      <trkpt lat="42.37033" lon="2.56348">
        <ele>1142.225</ele>
        <time>2014-07-05T07:19:36Z</time>
      </trkpt>
      <trkpt lat="42.37034" lon="2.56352">
        <ele>1142.724</ele>
        <time>2014-07-05T07:19:38Z</time>
      </trkpt>
      <trkpt lat="42.37037" lon="2.56363">
        <ele>1142.737</ele>
        <time>2014-07-05T07:19:43Z</time>
      </trkpt>
      <trkpt lat="42.3704" lon="2.56391">
        <ele>1143.616</ele>
        <time>2014-07-05T07:19:56Z</time>
      </trkpt>
      <trkpt lat="42.3703" lon="2.56415">
        <ele>1144.176</ele>
        <time>2014-07-05T07:20:08Z</time>
      </trkpt>
      <trkpt lat="42.37017" lon="2.5644">
        <ele>1145.113</ele>
        <time>2014-07-05T07:20:21Z</time>
      </trkpt>
      <trkpt lat="42.37017" lon="2.56477">
        <ele>1146.507</ele>
        <time>2014-07-05T07:20:36Z</time>
      </trkpt>
      <trkpt lat="42.37015" lon="2.56485">
        <ele>1146.548</ele>
        <time>2014-07-05T07:20:40Z</time>
      </trkpt>
      <trkpt lat="42.37008" lon="2.56503">
        <ele>1147.583</ele>
        <time>2014-07-05T07:20:49Z</time>
      </trkpt>
      <trkpt lat="42.37007" lon="2.56508">
        <ele>1148.015</ele>
        <time>2014-07-05T07:20:51Z</time>
      </trkpt>
      <trkpt lat="42.37004" lon="2.56523">
        <ele>1148.936</ele>
        <time>2014-07-05T07:20:57Z</time>
      </trkpt>
      <trkpt lat="42.37003" lon="2.56527">
        <ele>1148.915</ele>
        <time>2014-07-05T07:20:59Z</time>
      </trkpt>
      <trkpt lat="42.37001" lon="2.56542">
        <ele>1150.424</ele>
        <time>2014-07-05T07:21:07Z</time>
      </trkpt>
      <trkpt lat="42.36999" lon="2.56546">
        <ele>1150.427</ele>
        <time>2014-07-05T07:21:19Z</time>
      </trkpt>
      <trkpt lat="42.37" lon="2.56548">
        <ele>1149.978</ele>
        <time>2014-07-05T07:21:43Z</time>
      </trkpt>
      <trkpt lat="42.37001" lon="2.56549">
        <ele>1150.433</ele>
        <time>2014-07-05T07:22:26Z</time>
      </trkpt>
      <trkpt lat="42.37001" lon="2.56548">
        <ele>1150.426</ele>
        <time>2014-07-05T07:23:01Z</time>
      </trkpt>
      <trkpt lat="42.37" lon="2.56549">
        <ele>1150.407</ele>
        <time>2014-07-05T07:23:41Z</time>
      </trkpt>
      <trkpt lat="42.37" lon="2.56549">
        <ele>1150.414</ele>
        <time>2014-07-05T07:24:22Z</time>
      </trkpt>
      <trkpt lat="42.37002" lon="2.5655">
        <ele>1150.839</ele>
        <time>2014-07-05T07:25:05Z</time>
      </trkpt>
      <trkpt lat="42.37001" lon="2.56551">
        <ele>1151.361</ele>
        <time>2014-07-05T07:25:42Z</time>
      </trkpt>
      <trkpt lat="42.37001" lon="2.56551">
        <ele>1151.392</ele>
        <time>2014-07-05T07:26:14Z</time>
      </trkpt>
      <trkpt lat="42.37" lon="2.5655">
        <ele>1151.311</ele>
        <time>2014-07-05T07:26:47Z</time>
      </trkpt>
      <trkpt lat="42.37001" lon="2.5655">
        <ele>1151.33</ele>
        <time>2014-07-05T07:27:27Z</time>
      </trkpt>
      <trkpt lat="42.37001" lon="2.5655">
        <ele>1151.893</ele>
        <time>2014-07-05T07:28:06Z</time>
      </trkpt>
      <trkpt lat="42.37002" lon="2.5655">
        <ele>1151.892</ele>
        <time>2014-07-05T07:28:41Z</time>
      </trkpt>
      <trkpt lat="42.37004" lon="2.5655">
        <ele>1151.873</ele>
        <time>2014-07-05T07:29:22Z</time>
      </trkpt>
      <trkpt lat="42.37003" lon="2.56548">
        <ele>1151.82</ele>
        <time>2014-07-05T07:29:55Z</time>
      </trkpt>
      <trkpt lat="42.37004" lon="2.56548">
        <ele>1151.807</ele>
        <time>2014-07-05T07:30:30Z</time>
      </trkpt>
      <trkpt lat="42.37005" lon="2.56547">
        <ele>1151.836</ele>
        <time>2014-07-05T07:31:04Z</time>
      </trkpt>
      <trkpt lat="42.37004" lon="2.56547">
        <ele>1152.371</ele>
        <time>2014-07-05T07:31:42Z</time>
      </trkpt>
      <trkpt lat="42.37003" lon="2.56549">
        <ele>1152.333</ele>
        <time>2014-07-05T07:32:20Z</time>
      </trkpt>
      <trkpt lat="42.37003" lon="2.56549">
        <ele>1152.344</ele>
        <time>2014-07-05T07:32:53Z</time>
      </trkpt>
      <trkpt lat="42.37004" lon="2.56549">
        <ele>1152.853</ele>
        <time>2014-07-05T07:33:29Z</time>
      </trkpt>
      <trkpt lat="42.37004" lon="2.5655">
        <ele>1152.832</ele>
        <time>2014-07-05T07:33:57Z</time>
      </trkpt>
      <trkpt lat="42.37005" lon="2.5655">
        <ele>1152.855</ele>
        <time>2014-07-05T07:34:24Z</time>
      </trkpt>
      <trkpt lat="42.37005" lon="2.56549">
        <ele>1152.811</ele>
        <time>2014-07-05T07:34:54Z</time>
      </trkpt>
      <trkpt lat="42.37005" lon="2.56548">
        <ele>1153.221</ele>
        <time>2014-07-05T07:35:31Z</time>
      </trkpt>
      <trkpt lat="42.37005" lon="2.56549">
        <ele>1153.203</ele>
        <time>2014-07-05T07:36:08Z</time>
      </trkpt>
      <trkpt lat="42.37004" lon="2.56549">
        <ele>1153.207</ele>
        <time>2014-07-05T07:36:43Z</time>
      </trkpt>
      <trkpt lat="42.37002" lon="2.56549">
        <ele>1153.268</ele>
        <time>2014-07-05T07:37:13Z</time>
      </trkpt>
      <trkpt lat="42.37001" lon="2.56548">
        <ele>1153.243</ele>
        <time>2014-07-05T07:37:42Z</time>
      </trkpt>
      <trkpt lat="42.37002" lon="2.56547">
        <ele>1153.235</ele>
        <time>2014-07-05T07:38:18Z</time>
      </trkpt>
      <trkpt lat="42.37002" lon="2.56547">
        <ele>1153.746</ele>
        <time>2014-07-05T07:38:49Z</time>
      </trkpt>
      <trkpt lat="42.36999" lon="2.56547">
        <ele>1153.745</ele>
        <time>2014-07-05T07:39:06Z</time>
      </trkpt>
      <trkpt lat="42.36998" lon="2.56547">
        <ele>1153.744</ele>
        <time>2014-07-05T07:39:22Z</time>
      </trkpt>
      <trkpt lat="42.36993" lon="2.56546">
        <ele>1153.747</ele>
        <time>2014-07-05T07:39:26Z</time>
      </trkpt>
      <trkpt lat="42.36986" lon="2.56542">
        <ele>1153.278</ele>
        <time>2014-07-05T07:39:30Z</time>
      </trkpt>
      <trkpt lat="42.36982" lon="2.56537">
        <ele>1153.733</ele>
        <time>2014-07-05T07:39:35Z</time>
      </trkpt>
      <trkpt lat="42.36978" lon="2.56531">
        <ele>1153.726</ele>
        <time>2014-07-05T07:39:39Z</time>
      </trkpt>
      <trkpt lat="42.36976" lon="2.56528">
        <ele>1153.707</ele>
        <time>2014-07-05T07:39:41Z</time>
      </trkpt>
      <trkpt lat="42.36974" lon="2.56525">
        <ele>1153.754</ele>
        <time>2014-07-05T07:39:44Z</time>
      </trkpt>
      <trkpt lat="42.36964" lon="2.56514">
        <ele>1153.759</ele>
        <time>2014-07-05T07:39:50Z</time>
      </trkpt>
      <trkpt lat="42.36955" lon="2.56507">
        <ele>1153.731</ele>
        <time>2014-07-05T07:39:54Z</time>
      </trkpt>
      <trkpt lat="42.36932" lon="2.56492">
        <ele>1154.252</ele>
        <time>2014-07-05T07:40:05Z</time>
      </trkpt>
      <trkpt lat="42.36903" lon="2.56479">
        <ele>1153.731</ele>
        <time>2014-07-05T07:40:16Z</time>
      </trkpt>
      <trkpt lat="42.36873" lon="2.56472">
        <ele>1151.85</ele>
        <time>2014-07-05T07:40:25Z</time>
      </trkpt>
      <trkpt lat="42.36847" lon="2.5646">
        <ele>1149.463</ele>
        <time>2014-07-05T07:40:32Z</time>
      </trkpt>
      <trkpt lat="42.36823" lon="2.56437">
        <ele>1146.039</ele>
        <time>2014-07-05T07:40:41Z</time>
      </trkpt>
      <trkpt lat="42.3682" lon="2.56434">
        <ele>1145.601</ele>
        <time>2014-07-05T07:40:42Z</time>
      </trkpt>
      <trkpt lat="42.3679" lon="2.56423">
        <ele>1142.721</ele>
        <time>2014-07-05T07:40:49Z</time>
      </trkpt>
      <trkpt lat="42.36766" lon="2.56417">
        <ele>1139.307</ele>
        <time>2014-07-05T07:40:56Z</time>
      </trkpt>
      <trkpt lat="42.36747" lon="2.56411">
        <ele>1136.92</ele>
        <time>2014-07-05T07:41:01Z</time>
      </trkpt>
      <trkpt lat="42.36738" lon="2.56409">
        <ele>1136.455</ele>
        <time>2014-07-05T07:41:03Z</time>
      </trkpt>
      <trkpt lat="42.36731" lon="2.56407">
        <ele>1135.077</ele>
        <time>2014-07-05T07:41:04Z</time>
      </trkpt>
      <trkpt lat="42.36693" lon="2.56409">
        <ele>1132.148</ele>
        <time>2014-07-05T07:41:12Z</time>
      </trkpt>
      <trkpt lat="42.36677" lon="2.56422">
        <ele>1130.757</ele>
        <time>2014-07-05T07:41:15Z</time>
      </trkpt>
      <trkpt lat="42.36668" lon="2.56429">
        <ele>1131.166</ele>
        <time>2014-07-05T07:41:17Z</time>
      </trkpt>
      <trkpt lat="42.36664" lon="2.56431">
        <ele>1131.149</ele>
        <time>2014-07-05T07:41:18Z</time>
      </trkpt>
      <trkpt lat="42.36666" lon="2.56443">
        <ele>1132.141</ele>
        <time>2014-07-05T07:41:22Z</time>
      </trkpt>
      <trkpt lat="42.36668" lon="2.56453">
        <ele>1132.681</ele>
        <time>2014-07-05T07:41:25Z</time>
      </trkpt>
      <trkpt lat="42.36674" lon="2.56498">
        <ele>1134.009</ele>
        <time>2014-07-05T07:41:37Z</time>
      </trkpt>
      <trkpt lat="42.36674" lon="2.56532">
        <ele>1135.007</ele>
        <time>2014-07-05T07:41:48Z</time>
      </trkpt>
      <trkpt lat="42.3668" lon="2.5657">
        <ele>1134.051</ele>
        <time>2014-07-05T07:42:00Z</time>
      </trkpt>
      <trkpt lat="42.36684" lon="2.56612">
        <ele>1131.136</ele>
        <time>2014-07-05T07:42:08Z</time>
      </trkpt>
      <trkpt lat="42.36683" lon="2.56624">
        <ele>1130.268</ele>
        <time>2014-07-05T07:42:10Z</time>
      </trkpt>
      <trkpt lat="42.36684" lon="2.56652">
        <ele>1128.269</ele>
        <time>2014-07-05T07:42:15Z</time>
      </trkpt>
      <trkpt lat="42.36686" lon="2.56687">
        <ele>1126.378</ele>
        <time>2014-07-05T07:42:20Z</time>
      </trkpt>
      <trkpt lat="42.36689" lon="2.56713">
        <ele>1124.977</ele>
        <time>2014-07-05T07:42:23Z</time>
      </trkpt>
      <trkpt lat="42.36682" lon="2.56753">
        <ele>1121.52</ele>
        <time>2014-07-05T07:42:28Z</time>
      </trkpt>
      <trkpt lat="42.36666" lon="2.56785">
        <ele>1119.142</ele>
        <time>2014-07-05T07:42:32Z</time>
      </trkpt>
      <trkpt lat="42.36656" lon="2.568">
        <ele>1117.722</ele>
        <time>2014-07-05T07:42:34Z</time>
      </trkpt>
      <trkpt lat="42.36634" lon="2.56828">
        <ele>1115.814</ele>
        <time>2014-07-05T07:42:42Z</time>
      </trkpt>
      <trkpt lat="42.3663" lon="2.56831">
        <ele>1115.307</ele>
        <time>2014-07-05T07:42:45Z</time>
      </trkpt>
      <trkpt lat="42.36629" lon="2.56836">
        <ele>1114.871</ele>
        <time>2014-07-05T07:42:48Z</time>
      </trkpt>
      <trkpt lat="42.36607" lon="2.56852">
        <ele>1112.496</ele>
        <time>2014-07-05T07:42:59Z</time>
      </trkpt>
      <trkpt lat="42.36587" lon="2.56858">
        <ele>1110.938</ele>
        <time>2014-07-05T07:43:09Z</time>
      </trkpt>
      <trkpt lat="42.36584" lon="2.56858">
        <ele>1110.959</ele>
        <time>2014-07-05T07:43:10Z</time>
      </trkpt>
      <trkpt lat="42.36565" lon="2.56859">
        <ele>1109.048</ele>
        <time>2014-07-05T07:43:15Z</time>
      </trkpt>
      <trkpt lat="42.36551" lon="2.56872">
        <ele>1107.147</ele>
        <time>2014-07-05T07:43:19Z</time>
      </trkpt>
      <trkpt lat="42.36543" lon="2.56898">
        <ele>1105.23</ele>
        <time>2014-07-05T07:43:27Z</time>
      </trkpt>
      <trkpt lat="42.36533" lon="2.56917">
        <ele>1103.774</ele>
        <time>2014-07-05T07:43:34Z</time>
      </trkpt>
      <trkpt lat="42.36524" lon="2.56929">
        <ele>1103.356</ele>
        <time>2014-07-05T07:43:39Z</time>
      </trkpt>
      <trkpt lat="42.36513" lon="2.56957">
        <ele>1100.921</ele>
        <time>2014-07-05T07:43:45Z</time>
      </trkpt>
      <trkpt lat="42.36489" lon="2.56979">
        <ele>1098.907</ele>
        <time>2014-07-05T07:43:55Z</time>
      </trkpt>
      <trkpt lat="42.36475" lon="2.56984">
        <ele>1098.074</ele>
        <time>2014-07-05T07:43:59Z</time>
      </trkpt>
      <trkpt lat="42.3645" lon="2.57005">
        <ele>1095.629</ele>
        <time>2014-07-05T07:44:06Z</time>
      </trkpt>
      <trkpt lat="42.36412" lon="2.57002">
        <ele>1095.631</ele>
        <time>2014-07-05T07:44:14Z</time>
      </trkpt>
      <trkpt lat="42.36382" lon="2.57002">
        <ele>1096.562</ele>
        <time>2014-07-05T07:44:25Z</time>
      </trkpt>
      <trkpt lat="42.36354" lon="2.57016">
        <ele>1097.071</ele>
        <time>2014-07-05T07:44:35Z</time>
      </trkpt>
      <trkpt lat="42.36344" lon="2.57022">
        <ele>1097.51</ele>
        <time>2014-07-05T07:44:40Z</time>
      </trkpt>
      <trkpt lat="42.36319" lon="2.57025">
        <ele>1098.463</ele>
        <time>2014-07-05T07:44:51Z</time>
      </trkpt>
      <trkpt lat="42.36311" lon="2.57027">
        <ele>1098.496</ele>
        <time>2014-07-05T07:44:57Z</time>
      </trkpt>
      <trkpt lat="42.36302" lon="2.57036">
        <ele>1098.931</ele>
        <time>2014-07-05T07:45:01Z</time>
      </trkpt>
      <trkpt lat="42.363" lon="2.57042">
        <ele>1099.424</ele>
        <time>2014-07-05T07:45:04Z</time>
      </trkpt>
      <trkpt lat="42.36304" lon="2.57064">
        <ele>1100.407</ele>
        <time>2014-07-05T07:45:14Z</time>
      </trkpt>
      <trkpt lat="42.36305" lon="2.57066">
        <ele>1100.476</ele>
        <time>2014-07-05T07:45:15Z</time>
      </trkpt>
      <trkpt lat="42.36315" lon="2.57081">
        <ele>1101.841</ele>
        <time>2014-07-05T07:45:27Z</time>
      </trkpt>
      <trkpt lat="42.36325" lon="2.57091">
        <ele>1104.283</ele>
        <time>2014-07-05T07:45:41Z</time>
      </trkpt>
      <trkpt lat="42.36346" lon="2.57099">
        <ele>1106.114</ele>
        <time>2014-07-05T07:45:53Z</time>
      </trkpt>
      <trkpt lat="42.36367" lon="2.57115">
        <ele>1107.113</ele>
        <time>2014-07-05T07:46:04Z</time>
      </trkpt>
      <trkpt lat="42.36385" lon="2.57127">
        <ele>1108.592</ele>
        <time>2014-07-05T07:46:13Z</time>
      </trkpt>
      <trkpt lat="42.36407" lon="2.5715">
        <ele>1110.055</ele>
        <time>2014-07-05T07:46:28Z</time>
      </trkpt>
      <trkpt lat="42.36423" lon="2.57172">
        <ele>1110.926</ele>
        <time>2014-07-05T07:46:40Z</time>
      </trkpt>
      <trkpt lat="42.3643" lon="2.57185">
        <ele>1111.947</ele>
        <time>2014-07-05T07:46:47Z</time>
      </trkpt>
      <trkpt lat="42.36442" lon="2.57203">
        <ele>1112.911</ele>
        <time>2014-07-05T07:46:57Z</time>
      </trkpt>
      <trkpt lat="42.36462" lon="2.57227">
        <ele>1114.307</ele>
        <time>2014-07-05T07:47:10Z</time>
      </trkpt>
      <trkpt lat="42.36472" lon="2.57241">
        <ele>1114.369</ele>
        <time>2014-07-05T07:47:17Z</time>
      </trkpt>
      <trkpt lat="42.36469" lon="2.57267">
        <ele>1116.714</ele>
        <time>2014-07-05T07:47:28Z</time>
      </trkpt>
      <trkpt lat="42.36464" lon="2.57273">
        <ele>1116.796</ele>
        <time>2014-07-05T07:47:33Z</time>
      </trkpt>
      <trkpt lat="42.36448" lon="2.57285">
        <ele>1117.747</ele>
        <time>2014-07-05T07:47:45Z</time>
      </trkpt>
      <trkpt lat="42.36437" lon="2.57295">
        <ele>1119.136</ele>
        <time>2014-07-05T07:47:53Z</time>
      </trkpt>
      <trkpt lat="42.36416" lon="2.57315">
        <ele>1121.555</ele>
        <time>2014-07-05T07:48:07Z</time>
      </trkpt>
      <trkpt lat="42.36403" lon="2.57319">
        <ele>1122.028</ele>
        <time>2014-07-05T07:48:18Z</time>
      </trkpt>
      <trkpt lat="42.36398" lon="2.5732">
        <ele>1122.556</ele>
        <time>2014-07-05T07:48:27Z</time>
      </trkpt>
      <trkpt lat="42.36395" lon="2.57323">
        <ele>1123.059</ele>
        <time>2014-07-05T07:48:36Z</time>
      </trkpt>
      <trkpt lat="42.3638" lon="2.57315">
        <ele>1123.914</ele>
        <time>2014-07-05T07:48:48Z</time>
      </trkpt>
      <trkpt lat="42.36358" lon="2.57296">
        <ele>1125.807</ele>
        <time>2014-07-05T07:48:58Z</time>
      </trkpt>
      <trkpt lat="42.36351" lon="2.57289">
        <ele>1126.352</ele>
        <time>2014-07-05T07:49:02Z</time>
      </trkpt>
      <trkpt lat="42.36329" lon="2.57273">
        <ele>1128.267</ele>
        <time>2014-07-05T07:49:13Z</time>
      </trkpt>
      <trkpt lat="42.36308" lon="2.57261">
        <ele>1129.759</ele>
        <time>2014-07-05T07:49:24Z</time>
      </trkpt>
      <trkpt lat="42.36284" lon="2.57256">
        <ele>1131.17</ele>
        <time>2014-07-05T07:49:35Z</time>
      </trkpt>
      <trkpt lat="42.36265" lon="2.57261">
        <ele>1132.699</ele>
        <time>2014-07-05T07:49:46Z</time>
      </trkpt>
      <trkpt lat="42.36241" lon="2.57258">
        <ele>1134.088</ele>
        <time>2014-07-05T07:49:57Z</time>
      </trkpt>
      <trkpt lat="42.36229" lon="2.57259">
        <ele>1135.031</ele>
        <time>2014-07-05T07:50:06Z</time>
      </trkpt>
      <trkpt lat="42.36213" lon="2.5726">
        <ele>1135.536</ele>
        <time>2014-07-05T07:50:15Z</time>
      </trkpt>
      <trkpt lat="42.36195" lon="2.57264">
        <ele>1136.417</ele>
        <time>2014-07-05T07:50:24Z</time>
      </trkpt>
      <trkpt lat="42.3617" lon="2.57294">
        <ele>1137.418</ele>
        <time>2014-07-05T07:50:37Z</time>
      </trkpt>
      <trkpt lat="42.36178" lon="2.57313">
        <ele>1137.407</ele>
        <time>2014-07-05T07:50:44Z</time>
      </trkpt>
      <trkpt lat="42.36202" lon="2.57325">
        <ele>1139.34</ele>
        <time>2014-07-05T07:50:56Z</time>
      </trkpt>
      <trkpt lat="42.36224" lon="2.57351">
        <ele>1140.775</ele>
        <time>2014-07-05T07:51:09Z</time>
      </trkpt>
      <trkpt lat="42.36225" lon="2.57352">
        <ele>1140.717</ele>
        <time>2014-07-05T07:51:10Z</time>
      </trkpt>
      <trkpt lat="42.36232" lon="2.5736">
        <ele>1141.278</ele>
        <time>2014-07-05T07:51:15Z</time>
      </trkpt>
      <trkpt lat="42.36241" lon="2.57368">
        <ele>1141.797</ele>
        <time>2014-07-05T07:51:21Z</time>
      </trkpt>
      <trkpt lat="42.36252" lon="2.57389">
        <ele>1142.736</ele>
        <time>2014-07-05T07:51:31Z</time>
      </trkpt>
      <trkpt lat="42.36264" lon="2.57419">
        <ele>1144.179</ele>
        <time>2014-07-05T07:51:43Z</time>
      </trkpt>
      <trkpt lat="42.3627" lon="2.57438">
        <ele>1144.677</ele>
        <time>2014-07-05T07:51:51Z</time>
      </trkpt>
      <trkpt lat="42.36272" lon="2.57448">
        <ele>1145.161</ele>
        <time>2014-07-05T07:51:55Z</time>
      </trkpt>
      <trkpt lat="42.36277" lon="2.57464">
        <ele>1145.627</ele>
        <time>2014-07-05T07:52:01Z</time>
      </trkpt>
      <trkpt lat="42.3628" lon="2.57477">
        <ele>1146.007</ele>
        <time>2014-07-05T07:52:06Z</time>
      </trkpt>
      <trkpt lat="42.36283" lon="2.57482">
        <ele>1146.064</ele>
        <time>2014-07-05T07:52:08Z</time>
      </trkpt>
      <trkpt lat="42.36293" lon="2.57511">
        <ele>1147.069</ele>
        <time>2014-07-05T07:52:18Z</time>
      </trkpt>
      <trkpt lat="42.36311" lon="2.5754">
        <ele>1148.061</ele>
        <time>2014-07-05T07:52:31Z</time>
      </trkpt>
      <trkpt lat="42.36331" lon="2.57572">
        <ele>1148.972</ele>
        <time>2014-07-05T07:52:43Z</time>
      </trkpt>
      <trkpt lat="42.36309" lon="2.5761">
        <ele>1149.421</ele>
        <time>2014-07-05T07:52:56Z</time>
      </trkpt>
      <trkpt lat="42.36279" lon="2.57622">
        <ele>1148.91</ele>
        <time>2014-07-05T07:53:07Z</time>
      </trkpt>
      <trkpt lat="42.36251" lon="2.57644">
        <ele>1148.423</ele>
        <time>2014-07-05T07:53:16Z</time>
      </trkpt>
      <trkpt lat="42.36228" lon="2.5766">
        <ele>1148.099</ele>
        <time>2014-07-05T07:53:22Z</time>
      </trkpt>
      <trkpt lat="42.36195" lon="2.57668">
        <ele>1147.007</ele>
        <time>2014-07-05T07:53:30Z</time>
      </trkpt>
      <trkpt lat="42.36188" lon="2.57666">
        <ele>1147.027</ele>
        <time>2014-07-05T07:53:32Z</time>
      </trkpt>
      <trkpt lat="42.36148" lon="2.57681">
        <ele>1145.607</ele>
        <time>2014-07-05T07:53:42Z</time>
      </trkpt>
      <trkpt lat="42.36115" lon="2.577">
        <ele>1144.166</ele>
        <time>2014-07-05T07:53:52Z</time>
      </trkpt>
      <trkpt lat="42.36089" lon="2.57721">
        <ele>1143.171</ele>
        <time>2014-07-05T07:54:01Z</time>
      </trkpt>
      <trkpt lat="42.36068" lon="2.57726">
        <ele>1142.743</ele>
        <time>2014-07-05T07:54:10Z</time>
      </trkpt>
      <trkpt lat="42.3608" lon="2.57735">
        <ele>1141.274</ele>
        <time>2014-07-05T07:54:14Z</time>
      </trkpt>
      <trkpt lat="42.36094" lon="2.57759">
        <ele>1140.743</ele>
        <time>2014-07-05T07:54:18Z</time>
      </trkpt>
      <trkpt lat="42.36106" lon="2.57775">
        <ele>1139.872</ele>
        <time>2014-07-05T07:54:21Z</time>
      </trkpt>
      <trkpt lat="42.36125" lon="2.57805">
        <ele>1138.375</ele>
        <time>2014-07-05T07:54:27Z</time>
      </trkpt>
      <trkpt lat="42.36136" lon="2.57824">
        <ele>1137.936</ele>
        <time>2014-07-05T07:54:31Z</time>
      </trkpt>
      <trkpt lat="42.36142" lon="2.57857">
        <ele>1137.417</ele>
        <time>2014-07-05T07:54:37Z</time>
      </trkpt>
      <trkpt lat="42.36133" lon="2.57912">
        <ele>1135.518</ele>
        <time>2014-07-05T07:54:49Z</time>
      </trkpt>
      <trkpt lat="42.3611" lon="2.57939">
        <ele>1133.507</ele>
        <time>2014-07-05T07:54:58Z</time>
      </trkpt>
      <trkpt lat="42.36071" lon="2.57964">
        <ele>1132.18</ele>
        <time>2014-07-05T07:55:09Z</time>
      </trkpt>
      <trkpt lat="42.36064" lon="2.57965">
        <ele>1132.155</ele>
        <time>2014-07-05T07:55:11Z</time>
      </trkpt>
      <trkpt lat="42.36048" lon="2.57971">
        <ele>1131.627</ele>
        <time>2014-07-05T07:55:15Z</time>
      </trkpt>
      <trkpt lat="42.36024" lon="2.57977">
        <ele>1130.748</ele>
        <time>2014-07-05T07:55:20Z</time>
      </trkpt>
      <trkpt lat="42.36015" lon="2.57979">
        <ele>1130.227</ele>
        <time>2014-07-05T07:55:22Z</time>
      </trkpt>
      <trkpt lat="42.36013" lon="2.58001">
        <ele>1129.276</ele>
        <time>2014-07-05T07:55:26Z</time>
      </trkpt>
      <trkpt lat="42.36017" lon="2.58048">
        <ele>1127.339</ele>
        <time>2014-07-05T07:55:32Z</time>
      </trkpt>
      <trkpt lat="42.36015" lon="2.58074">
        <ele>1126.323</ele>
        <time>2014-07-05T07:55:35Z</time>
      </trkpt>
      <trkpt lat="42.36009" lon="2.58105">
        <ele>1125.483</ele>
        <time>2014-07-05T07:55:39Z</time>
      </trkpt>
      <trkpt lat="42.36003" lon="2.58118">
        <ele>1124.911</ele>
        <time>2014-07-05T07:55:41Z</time>
      </trkpt>
      <trkpt lat="42.35992" lon="2.58133">
        <ele>1124.407</ele>
        <time>2014-07-05T07:55:44Z</time>
      </trkpt>
      <trkpt lat="42.35978" lon="2.58157">
        <ele>1123.029</ele>
        <time>2014-07-05T07:55:48Z</time>
      </trkpt>
      <trkpt lat="42.35963" lon="2.58213">
        <ele>1120.174</ele>
        <time>2014-07-05T07:55:57Z</time>
      </trkpt>
      <trkpt lat="42.35946" lon="2.5824">
        <ele>1119.616</ele>
        <time>2014-07-05T07:56:03Z</time>
      </trkpt>
      <trkpt lat="42.35921" lon="2.58256">
        <ele>1118.237</ele>
        <time>2014-07-05T07:56:13Z</time>
      </trkpt>
      <trkpt lat="42.35891" lon="2.58266">
        <ele>1115.886</ele>
        <time>2014-07-05T07:56:25Z</time>
      </trkpt>
      <trkpt lat="42.35883" lon="2.58267">
        <ele>1115.825</ele>
        <time>2014-07-05T07:56:28Z</time>
      </trkpt>
      <trkpt lat="42.35858" lon="2.58291">
        <ele>1114.838</ele>
        <time>2014-07-05T07:56:40Z</time>
      </trkpt>
      <trkpt lat="42.35833" lon="2.58324">
        <ele>1113.894</ele>
        <time>2014-07-05T07:56:52Z</time>
      </trkpt>
      <trkpt lat="42.35813" lon="2.58352">
        <ele>1112.457</ele>
        <time>2014-07-05T07:57:02Z</time>
      </trkpt>
      <trkpt lat="42.35798" lon="2.58379">
        <ele>1111.422</ele>
        <time>2014-07-05T07:57:11Z</time>
      </trkpt>
      <trkpt lat="42.35782" lon="2.584">
        <ele>1110.507</ele>
        <time>2014-07-05T07:57:18Z</time>
      </trkpt>
      <trkpt lat="42.35788" lon="2.58401">
        <ele>1109.556</ele>
        <time>2014-07-05T07:57:23Z</time>
      </trkpt>
      <trkpt lat="42.35796" lon="2.58392">
        <ele>1108.531</ele>
        <time>2014-07-05T07:57:28Z</time>
      </trkpt>
      <trkpt lat="42.3582" lon="2.58381">
        <ele>1106.683</ele>
        <time>2014-07-05T07:57:40Z</time>
      </trkpt>
      <trkpt lat="42.35845" lon="2.58375">
        <ele>1103.314</ele>
        <time>2014-07-05T07:57:51Z</time>
      </trkpt>
      <trkpt lat="42.35852" lon="2.58371">
        <ele>1103.333</ele>
        <time>2014-07-05T07:57:52Z</time>
      </trkpt>
      <trkpt lat="42.35869" lon="2.58358">
        <ele>1099.442</ele>
        <time>2014-07-05T07:57:59Z</time>
      </trkpt>
      <trkpt lat="42.35885" lon="2.5835">
        <ele>1096.095</ele>
        <time>2014-07-05T07:58:06Z</time>
      </trkpt>
      <trkpt lat="42.35913" lon="2.58331">
        <ele>1094.141</ele>
        <time>2014-07-05T07:58:17Z</time>
      </trkpt>
      <trkpt lat="42.35942" lon="2.58339">
        <ele>1094.681</ele>
        <time>2014-07-05T07:58:28Z</time>
      </trkpt>
      <trkpt lat="42.35966" lon="2.58339">
        <ele>1095.109</ele>
        <time>2014-07-05T07:58:38Z</time>
      </trkpt>
      <trkpt lat="42.35983" lon="2.58324">
        <ele>1092.207</ele>
        <time>2014-07-05T07:58:46Z</time>
      </trkpt>
      <trkpt lat="42.35989" lon="2.58316">
        <ele>1090.861</ele>
        <time>2014-07-05T07:58:49Z</time>
      </trkpt>
      <trkpt lat="42.36009" lon="2.58306">
        <ele>1086.956</ele>
        <time>2014-07-05T07:58:56Z</time>
      </trkpt>
      <trkpt lat="42.36029" lon="2.58286">
        <ele>1083.558</ele>
        <time>2014-07-05T07:59:03Z</time>
      </trkpt>
      <trkpt lat="42.36038" lon="2.58278">
        <ele>1082.649</ele>
        <time>2014-07-05T07:59:06Z</time>
      </trkpt>
      <trkpt lat="42.36055" lon="2.58261">
        <ele>1079.288</ele>
        <time>2014-07-05T07:59:12Z</time>
      </trkpt>
      <trkpt lat="42.36074" lon="2.58244">
        <ele>1075.917</ele>
        <time>2014-07-05T07:59:19Z</time>
      </trkpt>
      <trkpt lat="42.36091" lon="2.58237">
        <ele>1074.97</ele>
        <time>2014-07-05T07:59:23Z</time>
      </trkpt>
      <trkpt lat="42.36111" lon="2.58223">
        <ele>1073.526</ele>
        <time>2014-07-05T07:59:28Z</time>
      </trkpt>
      <trkpt lat="42.36131" lon="2.58209">
        <ele>1071.547</ele>
        <time>2014-07-05T07:59:33Z</time>
      </trkpt>
      <trkpt lat="42.36148" lon="2.58192">
        <ele>1070.111</ele>
        <time>2014-07-05T07:59:36Z</time>
      </trkpt>
      <trkpt lat="42.36157" lon="2.58177">
        <ele>1068.607</ele>
        <time>2014-07-05T07:59:38Z</time>
      </trkpt>
      <trkpt lat="42.36166" lon="2.58145">
        <ele>1065.389</ele>
        <time>2014-07-05T07:59:44Z</time>
      </trkpt>
      <trkpt lat="42.36165" lon="2.58141">
        <ele>1064.894</ele>
        <time>2014-07-05T07:59:59Z</time>
      </trkpt>
      <trkpt lat="42.36163" lon="2.5814">
        <ele>1065.386</ele>
        <time>2014-07-05T08:00:27Z</time>
      </trkpt>
      <trkpt lat="42.36164" lon="2.58138">
        <ele>1064.867</ele>
        <time>2014-07-05T08:00:39Z</time>
      </trkpt>
      <trkpt lat="42.36169" lon="2.58128">
        <ele>1064.356</ele>
        <time>2014-07-05T08:00:48Z</time>
      </trkpt>
      <trkpt lat="42.3617" lon="2.58122">
        <ele>1064.375</ele>
        <time>2014-07-05T08:01:03Z</time>
      </trkpt>
      <trkpt lat="42.36166" lon="2.58121">
        <ele>1064.358</ele>
        <time>2014-07-05T08:01:29Z</time>
      </trkpt>
      <trkpt lat="42.36166" lon="2.58121">
        <ele>1064.321</ele>
        <time>2014-07-05T08:01:32Z</time>
      </trkpt>
      <trkpt lat="42.36157" lon="2.58132">
        <ele>1065.341</ele>
        <time>2014-07-05T08:01:45Z</time>
      </trkpt>
      <trkpt lat="42.36157" lon="2.58132">
        <ele>1064.805</ele>
        <time>2014-07-05T08:01:46Z</time>
      </trkpt>
      <trkpt lat="42.36164" lon="2.5816">
        <ele>1063.407</ele>
        <time>2014-07-05T08:01:56Z</time>
      </trkpt>
      <trkpt lat="42.36166" lon="2.58176">
        <ele>1062.489</ele>
        <time>2014-07-05T08:02:00Z</time>
      </trkpt>
      <trkpt lat="42.36179" lon="2.58218">
        <ele>1061.064</ele>
        <time>2014-07-05T08:02:11Z</time>
      </trkpt>
      <trkpt lat="42.36177" lon="2.58228">
        <ele>1060.086</ele>
        <time>2014-07-05T08:02:20Z</time>
      </trkpt>
      <trkpt lat="42.36174" lon="2.58247">
        <ele>1059.587</ele>
        <time>2014-07-05T08:02:38Z</time>
      </trkpt>
      <trkpt lat="42.3617" lon="2.58278">
        <ele>1057.156</ele>
        <time>2014-07-05T08:02:44Z</time>
      </trkpt>
      <trkpt lat="42.3616" lon="2.58297">
        <ele>1054.775</ele>
        <time>2014-07-05T08:02:48Z</time>
      </trkpt>
      <trkpt lat="42.36166" lon="2.58306">
        <ele>1052.878</ele>
        <time>2014-07-05T08:02:53Z</time>
      </trkpt>
      <trkpt lat="42.36186" lon="2.5828">
        <ele>1050.954</ele>
        <time>2014-07-05T08:03:03Z</time>
      </trkpt>
      <trkpt lat="42.36198" lon="2.58268">
        <ele>1049.456</ele>
        <time>2014-07-05T08:03:07Z</time>
      </trkpt>
      <trkpt lat="42.36207" lon="2.58253">
        <ele>1048.911</ele>
        <time>2014-07-05T08:03:12Z</time>
      </trkpt>
      <trkpt lat="42.3621" lon="2.58235">
        <ele>1048.507</ele>
        <time>2014-07-05T08:03:17Z</time>
      </trkpt>
      <trkpt lat="42.36208" lon="2.58201">
        <ele>1048.032</ele>
        <time>2014-07-05T08:03:27Z</time>
      </trkpt>
      <trkpt lat="42.36208" lon="2.58193">
        <ele>1047.567</ele>
        <time>2014-07-05T08:03:30Z</time>
      </trkpt>
      <trkpt lat="42.3621" lon="2.5816">
        <ele>1046.559</ele>
        <time>2014-07-05T08:03:41Z</time>
      </trkpt>
      <trkpt lat="42.36221" lon="2.58157">
        <ele>1046.19</ele>
        <time>2014-07-05T08:03:48Z</time>
      </trkpt>
      <trkpt lat="42.36229" lon="2.58162">
        <ele>1045.689</ele>
        <time>2014-07-05T08:03:52Z</time>
      </trkpt>
      <trkpt lat="42.36257" lon="2.58168">
        <ele>1043.758</ele>
        <time>2014-07-05T08:04:01Z</time>
      </trkpt>
      <trkpt lat="42.36285" lon="2.58177">
        <ele>1041.741</ele>
        <time>2014-07-05T08:04:08Z</time>
      </trkpt>
      <trkpt lat="42.36302" lon="2.58162">
        <ele>1040.346</ele>
        <time>2014-07-05T08:04:12Z</time>
      </trkpt>
      <trkpt lat="42.36314" lon="2.58137">
        <ele>1038.488</ele>
        <time>2014-07-05T08:04:16Z</time>
      </trkpt>
      <trkpt lat="42.36322" lon="2.58119">
        <ele>1036.916</ele>
        <time>2014-07-05T08:04:19Z</time>
      </trkpt>
      <trkpt lat="42.36324" lon="2.58114">
        <ele>1036.907</ele>
        <time>2014-07-05T08:04:20Z</time>
      </trkpt>
      <trkpt lat="42.36344" lon="2.58066">
        <ele>1032.691</ele>
        <time>2014-07-05T08:04:29Z</time>
      </trkpt>
      <trkpt lat="42.36346" lon="2.58062">
        <ele>1031.666</ele>
        <time>2014-07-05T08:04:31Z</time>
      </trkpt>
      <trkpt lat="42.36352" lon="2.58085">
        <ele>1031.658</ele>
        <time>2014-07-05T08:04:41Z</time>
      </trkpt>
      <trkpt lat="42.36374" lon="2.5814">
        <ele>1028.389</ele>
        <time>2014-07-05T08:04:52Z</time>
      </trkpt>
      <trkpt lat="42.36376" lon="2.58155">
        <ele>1026.398</ele>
        <time>2014-07-05T08:04:55Z</time>
      </trkpt>
      <trkpt lat="42.36378" lon="2.58179">
        <ele>1024.447</ele>
        <time>2014-07-05T08:04:59Z</time>
      </trkpt>
      <trkpt lat="42.36378" lon="2.58185">
        <ele>1023.97</ele>
        <time>2014-07-05T08:05:00Z</time>
      </trkpt>
      <trkpt lat="42.36377" lon="2.58211">
        <ele>1023.057</ele>
        <time>2014-07-05T08:05:05Z</time>
      </trkpt>
      <trkpt lat="42.36399" lon="2.58248">
        <ele>1021.1</ele>
        <time>2014-07-05T08:05:14Z</time>
      </trkpt>
      <trkpt lat="42.36409" lon="2.58258">
        <ele>1020.62</ele>
        <time>2014-07-05T08:05:18Z</time>
      </trkpt>
      <trkpt lat="42.36453" lon="2.58261">
        <ele>1021.107</ele>
        <time>2014-07-05T08:05:31Z</time>
      </trkpt>
      <trkpt lat="42.36461" lon="2.58268">
        <ele>1021.192</ele>
        <time>2014-07-05T08:05:39Z</time>
      </trkpt>
      <trkpt lat="42.3646" lon="2.58289">
        <ele>1019.637</ele>
        <time>2014-07-05T08:05:44Z</time>
      </trkpt>
      <trkpt lat="42.36457" lon="2.58325">
        <ele>1017.239</ele>
        <time>2014-07-05T08:05:49Z</time>
      </trkpt>
      <trkpt lat="42.36456" lon="2.58344">
        <ele>1016.36</ele>
        <time>2014-07-05T08:05:52Z</time>
      </trkpt>
      <trkpt lat="42.36467" lon="2.58393">
        <ele>1012.429</ele>
        <time>2014-07-05T08:06:00Z</time>
      </trkpt>
      <trkpt lat="42.36463" lon="2.58405">
        <ele>1011.458</ele>
        <time>2014-07-05T08:06:03Z</time>
      </trkpt>
      <trkpt lat="42.36439" lon="2.5842">
        <ele>1008.691</ele>
        <time>2014-07-05T08:06:09Z</time>
      </trkpt>
      <trkpt lat="42.36405" lon="2.58457">
        <ele>1004.224</ele>
        <time>2014-07-05T08:06:15Z</time>
      </trkpt>
      <trkpt lat="42.36397" lon="2.58506">
        <ele>1001.404</ele>
        <time>2014-07-05T08:06:20Z</time>
      </trkpt>
      <trkpt lat="42.36398" lon="2.58544">
        <ele>998.014</ele>
        <time>2014-07-05T08:06:23Z</time>
      </trkpt>
      <trkpt lat="42.36392" lon="2.58586">
        <ele>992.707</ele>
        <time>2014-07-05T08:06:26Z</time>
      </trkpt>
      <trkpt lat="42.36382" lon="2.58617">
        <ele>990.879</ele>
        <time>2014-07-05T08:06:29Z</time>
      </trkpt>
      <trkpt lat="42.36378" lon="2.58629">
        <ele>989.324</ele>
        <time>2014-07-05T08:06:30Z</time>
      </trkpt>
      <trkpt lat="42.36374" lon="2.5864">
        <ele>988.496</ele>
        <time>2014-07-05T08:06:31Z</time>
      </trkpt>
      <trkpt lat="42.36377" lon="2.58691">
        <ele>983.197</ele>
        <time>2014-07-05T08:06:35Z</time>
      </trkpt>
      <trkpt lat="42.36406" lon="2.58731">
        <ele>977.886</ele>
        <time>2014-07-05T08:06:39Z</time>
      </trkpt>
      <trkpt lat="42.36415" lon="2.58738">
        <ele>976.475</ele>
        <time>2014-07-05T08:06:40Z</time>
      </trkpt>
      <trkpt lat="42.36422" lon="2.58745">
        <ele>974.478</ele>
        <time>2014-07-05T08:06:41Z</time>
      </trkpt>
      <trkpt lat="42.3643" lon="2.58787">
        <ele>970.629</ele>
        <time>2014-07-05T08:06:44Z</time>
      </trkpt>
      <trkpt lat="42.36432" lon="2.58839">
        <ele>966.3</ele>
        <time>2014-07-05T08:06:47Z</time>
      </trkpt>
      <trkpt lat="42.36442" lon="2.58891">
        <ele>961.52</ele>
        <time>2014-07-05T08:06:50Z</time>
      </trkpt>
      <trkpt lat="42.36457" lon="2.58916">
        <ele>958.607</ele>
        <time>2014-07-05T08:06:52Z</time>
      </trkpt>
      <trkpt lat="42.36465" lon="2.58925">
        <ele>957.179</ele>
        <time>2014-07-05T08:06:53Z</time>
      </trkpt>
      <trkpt lat="42.36472" lon="2.58934">
        <ele>956.214</ele>
        <time>2014-07-05T08:06:54Z</time>
      </trkpt>
      <trkpt lat="42.36476" lon="2.58962">
        <ele>954.366</ele>
        <time>2014-07-05T08:06:56Z</time>
      </trkpt>
      <trkpt lat="42.3648" lon="2.58981">
        <ele>952.387</ele>
        <time>2014-07-05T08:06:57Z</time>
      </trkpt>
      <trkpt lat="42.36489" lon="2.58998">
        <ele>950.966</ele>
        <time>2014-07-05T08:06:59Z</time>
      </trkpt>
      <trkpt lat="42.36484" lon="2.59061">
        <ele>947.085</ele>
        <time>2014-07-05T08:07:05Z</time>
      </trkpt>
      <trkpt lat="42.36479" lon="2.59087">
        <ele>945.638</ele>
        <time>2014-07-05T08:07:07Z</time>
      </trkpt>
      <trkpt lat="42.36476" lon="2.59116">
        <ele>941.838</ele>
        <time>2014-07-05T08:07:09Z</time>
      </trkpt>
      <trkpt lat="42.36466" lon="2.59162">
        <ele>938.47</ele>
        <time>2014-07-05T08:07:12Z</time>
      </trkpt>
      <trkpt lat="42.36462" lon="2.5919">
        <ele>936.017</ele>
        <time>2014-07-05T08:07:14Z</time>
      </trkpt>
      <trkpt lat="42.36461" lon="2.59247">
        <ele>932.107</ele>
        <time>2014-07-05T08:07:17Z</time>
      </trkpt>
      <trkpt lat="42.36461" lon="2.59301">
        <ele>927.85</ele>
        <time>2014-07-05T08:07:20Z</time>
      </trkpt>
      <trkpt lat="42.36465" lon="2.59358">
        <ele>924.525</ele>
        <time>2014-07-05T08:07:23Z</time>
      </trkpt>
      <trkpt lat="42.36466" lon="2.59377">
        <ele>923.067</ele>
        <time>2014-07-05T08:07:24Z</time>
      </trkpt>
      <trkpt lat="42.36484" lon="2.59435">
        <ele>917.738</ele>
        <time>2014-07-05T08:07:28Z</time>
      </trkpt>
      <trkpt lat="42.36479" lon="2.59473">
        <ele>913.467</ele>
        <time>2014-07-05T08:07:31Z</time>
      </trkpt>
      <trkpt lat="42.36474" lon="2.59499">
        <ele>910.026</ele>
        <time>2014-07-05T08:07:33Z</time>
      </trkpt>
      <trkpt lat="42.36483" lon="2.59532">
        <ele>906.749</ele>
        <time>2014-07-05T08:07:36Z</time>
      </trkpt>
      <trkpt lat="42.36501" lon="2.59555">
        <ele>903.341</ele>
        <time>2014-07-05T08:07:39Z</time>
      </trkpt>
      <trkpt lat="42.36498" lon="2.59592">
        <ele>900.481</ele>
        <time>2014-07-05T08:07:42Z</time>
      </trkpt>
      <trkpt lat="42.36493" lon="2.5962">
        <ele>898.009</ele>
        <time>2014-07-05T08:07:44Z</time>
      </trkpt>
      <trkpt lat="42.36488" lon="2.59657">
        <ele>894.607</ele>
        <time>2014-07-05T08:07:46Z</time>
      </trkpt>
      <trkpt lat="42.36488" lon="2.59672">
        <ele>893.731</ele>
        <time>2014-07-05T08:07:47Z</time>
      </trkpt>
      <trkpt lat="42.36489" lon="2.59685">
        <ele>892.216</ele>
        <time>2014-07-05T08:07:48Z</time>
      </trkpt>
      <trkpt lat="42.36483" lon="2.59697">
        <ele>890.388</ele>
        <time>2014-07-05T08:07:49Z</time>
      </trkpt>
      <trkpt lat="42.36506" lon="2.59722">
        <ele>887.029</ele>
        <time>2014-07-05T08:07:52Z</time>
      </trkpt>
      <trkpt lat="42.36532" lon="2.59741">
        <ele>883.188</ele>
        <time>2014-07-05T08:07:56Z</time>
      </trkpt>
      <trkpt lat="42.36528" lon="2.59766">
        <ele>881.737</ele>
        <time>2014-07-05T08:07:59Z</time>
      </trkpt>
      <trkpt lat="42.36524" lon="2.59772">
        <ele>880.71</ele>
        <time>2014-07-05T08:08:00Z</time>
      </trkpt>
      <trkpt lat="42.36508" lon="2.59804">
        <ele>877.884</ele>
        <time>2014-07-05T08:08:07Z</time>
      </trkpt>
      <trkpt lat="42.36506" lon="2.59822">
        <ele>876.407</ele>
        <time>2014-07-05T08:08:10Z</time>
      </trkpt>
      <trkpt lat="42.3651" lon="2.59832">
        <ele>875.917</ele>
        <time>2014-07-05T08:08:12Z</time>
      </trkpt>
      <trkpt lat="42.36512" lon="2.59836">
        <ele>875.407</ele>
        <time>2014-07-05T08:08:13Z</time>
      </trkpt>
      <trkpt lat="42.36525" lon="2.59839">
        <ele>874.585</ele>
        <time>2014-07-05T08:08:17Z</time>
      </trkpt>
      <trkpt lat="42.36531" lon="2.59868">
        <ele>871.18</ele>
        <time>2014-07-05T08:08:23Z</time>
      </trkpt>
      <trkpt lat="42.36528" lon="2.59872">
        <ele>871.172</ele>
        <time>2014-07-05T08:08:24Z</time>
      </trkpt>
      <trkpt lat="42.36523" lon="2.59884">
        <ele>869.713</ele>
        <time>2014-07-05T08:08:26Z</time>
      </trkpt>
      <trkpt lat="42.36518" lon="2.59907">
        <ele>868.242</ele>
        <time>2014-07-05T08:08:29Z</time>
      </trkpt>
      <trkpt lat="42.36517" lon="2.59938">
        <ele>866.861</ele>
        <time>2014-07-05T08:08:32Z</time>
      </trkpt>
      <trkpt lat="42.36518" lon="2.5996">
        <ele>865.394</ele>
        <time>2014-07-05T08:08:34Z</time>
      </trkpt>
      <trkpt lat="42.36514" lon="2.59997">
        <ele>862.455</ele>
        <time>2014-07-05T08:08:38Z</time>
      </trkpt>
      <trkpt lat="42.36513" lon="2.60076">
        <ele>859.107</ele>
        <time>2014-07-05T08:08:44Z</time>
      </trkpt>
      <trkpt lat="42.36528" lon="2.60114">
        <ele>856.217</ele>
        <time>2014-07-05T08:08:47Z</time>
      </trkpt>
      <trkpt lat="42.36551" lon="2.6016">
        <ele>852.807</ele>
        <time>2014-07-05T08:08:51Z</time>
      </trkpt>
      <trkpt lat="42.36565" lon="2.60182">
        <ele>850.912</ele>
        <time>2014-07-05T08:08:53Z</time>
      </trkpt>
      <trkpt lat="42.36574" lon="2.60191">
        <ele>849.947</ele>
        <time>2014-07-05T08:08:54Z</time>
      </trkpt>
      <trkpt lat="42.36593" lon="2.60206">
        <ele>848.569</ele>
        <time>2014-07-05T08:08:56Z</time>
      </trkpt>
      <trkpt lat="42.36602" lon="2.60215">
        <ele>847.52</ele>
        <time>2014-07-05T08:08:57Z</time>
      </trkpt>
      <trkpt lat="42.36608" lon="2.60225">
        <ele>846.129</ele>
        <time>2014-07-05T08:08:58Z</time>
      </trkpt>
      <trkpt lat="42.36632" lon="2.60268">
        <ele>842.758</ele>
        <time>2014-07-05T08:09:01Z</time>
      </trkpt>
      <trkpt lat="42.36636" lon="2.60273">
        <ele>842.721</ele>
        <time>2014-07-05T08:09:02Z</time>
      </trkpt>
      <trkpt lat="42.36652" lon="2.60324">
        <ele>838.996</ele>
        <time>2014-07-05T08:09:06Z</time>
      </trkpt>
      <trkpt lat="42.36656" lon="2.60334">
        <ele>838.431</ele>
        <time>2014-07-05T08:09:07Z</time>
      </trkpt>
      <trkpt lat="42.36666" lon="2.60347">
        <ele>836.524</ele>
        <time>2014-07-05T08:09:09Z</time>
      </trkpt>
      <trkpt lat="42.36676" lon="2.60356">
        <ele>835.507</ele>
        <time>2014-07-05T08:09:15Z</time>
      </trkpt>
      <trkpt lat="42.36673" lon="2.60353">
        <ele>835.586</ele>
        <time>2014-07-05T08:09:28Z</time>
      </trkpt>
      <trkpt lat="42.36667" lon="2.60355">
        <ele>835.541</ele>
        <time>2014-07-05T08:09:36Z</time>
      </trkpt>
      <trkpt lat="42.36658" lon="2.60349">
        <ele>835.533</ele>
        <time>2014-07-05T08:09:40Z</time>
      </trkpt>
      <trkpt lat="42.36645" lon="2.60318">
        <ele>835.594</ele>
        <time>2014-07-05T08:09:51Z</time>
      </trkpt>
      <trkpt lat="42.36633" lon="2.60284">
        <ele>836.063</ele>
        <time>2014-07-05T08:10:02Z</time>
      </trkpt>
      <trkpt lat="42.36627" lon="2.60275">
        <ele>836.542</ele>
        <time>2014-07-05T08:10:05Z</time>
      </trkpt>
      <trkpt lat="42.36622" lon="2.60267">
        <ele>836.595</ele>
        <time>2014-07-05T08:10:08Z</time>
      </trkpt>
      <trkpt lat="42.36606" lon="2.60245">
        <ele>837.066</ele>
        <time>2014-07-05T08:10:20Z</time>
      </trkpt>
      <trkpt lat="42.36594" lon="2.60232">
        <ele>837.029</ele>
        <time>2014-07-05T08:10:32Z</time>
      </trkpt>
      <trkpt lat="42.36591" lon="2.60227">
        <ele>837.021</ele>
        <time>2014-07-05T08:10:34Z</time>
      </trkpt>
      <trkpt lat="42.36573" lon="2.60213">
        <ele>836.007</ele>
        <time>2014-07-05T08:10:44Z</time>
      </trkpt>
      <trkpt lat="42.36568" lon="2.6021">
        <ele>835.553</ele>
        <time>2014-07-05T08:10:49Z</time>
      </trkpt>
      <trkpt lat="42.36556" lon="2.60198">
        <ele>834.618</ele>
        <time>2014-07-05T08:10:55Z</time>
      </trkpt>
      <trkpt lat="42.36545" lon="2.60191">
        <ele>834.14</ele>
        <time>2014-07-05T08:10:59Z</time>
      </trkpt>
      <trkpt lat="42.36508" lon="2.60192">
        <ele>832.641</ele>
        <time>2014-07-05T08:11:10Z</time>
      </trkpt>
      <trkpt lat="42.36488" lon="2.60173">
        <ele>829.31</ele>
        <time>2014-07-05T08:11:19Z</time>
      </trkpt>
      <trkpt lat="42.36467" lon="2.60163">
        <ele>829.349</ele>
        <time>2014-07-05T08:11:25Z</time>
      </trkpt>
      <trkpt lat="42.36449" lon="2.60157">
        <ele>829.862</ele>
        <time>2014-07-05T08:11:27Z</time>
      </trkpt>
      <trkpt lat="42.3643" lon="2.6017">
        <ele>830.774</ele>
        <time>2014-07-05T08:11:39Z</time>
      </trkpt>
      <trkpt lat="42.36444" lon="2.60193">
        <ele>831.756</ele>
        <time>2014-07-05T08:11:52Z</time>
      </trkpt>
      <trkpt lat="42.36452" lon="2.60202">
        <ele>832.621</ele>
        <time>2014-07-05T08:11:58Z</time>
      </trkpt>
      <trkpt lat="42.36462" lon="2.60182">
        <ele>833.107</ele>
        <time>2014-07-05T08:12:04Z</time>
      </trkpt>
      <trkpt lat="42.36468" lon="2.60185">
        <ele>833.154</ele>
        <time>2014-07-05T08:12:08Z</time>
      </trkpt>
      <trkpt lat="42.36479" lon="2.60195">
        <ele>833.639</ele>
        <time>2014-07-05T08:12:17Z</time>
      </trkpt>
      <trkpt lat="42.36499" lon="2.60217">
        <ele>834.641</ele>
        <time>2014-07-05T08:12:31Z</time>
      </trkpt>
      <trkpt lat="42.36502" lon="2.6022">
        <ele>835.032</ele>
        <time>2014-07-05T08:12:32Z</time>
      </trkpt>
      <trkpt lat="42.36529" lon="2.60254">
        <ele>836.091</ele>
        <time>2014-07-05T08:12:42Z</time>
      </trkpt>
      <trkpt lat="42.36531" lon="2.60262">
        <ele>836.57</ele>
        <time>2014-07-05T08:12:46Z</time>
      </trkpt>
      <trkpt lat="42.36538" lon="2.60287">
        <ele>837.093</ele>
        <time>2014-07-05T08:12:57Z</time>
      </trkpt>
      <trkpt lat="42.36538" lon="2.6029">
        <ele>837.522</ele>
        <time>2014-07-05T08:12:58Z</time>
      </trkpt>
      <trkpt lat="42.36546" lon="2.60335">
        <ele>837.962</ele>
        <time>2014-07-05T08:13:11Z</time>
      </trkpt>
      <trkpt lat="42.36542" lon="2.60377">
        <ele>838.408</ele>
        <time>2014-07-05T08:13:24Z</time>
      </trkpt>
      <trkpt lat="42.3654" lon="2.60402">
        <ele>840.307</ele>
        <time>2014-07-05T08:13:32Z</time>
      </trkpt>
      <trkpt lat="42.36535" lon="2.60397">
        <ele>841.379</ele>
        <time>2014-07-05T08:13:37Z</time>
      </trkpt>
      <trkpt lat="42.36535" lon="2.60392">
        <ele>841.324</ele>
        <time>2014-07-05T08:13:39Z</time>
      </trkpt>
      <trkpt lat="42.36539" lon="2.60389">
        <ele>841.816</ele>
        <time>2014-07-05T08:13:42Z</time>
      </trkpt>
      <trkpt lat="42.3654" lon="2.60376">
        <ele>841.847</ele>
        <time>2014-07-05T08:13:48Z</time>
      </trkpt>
      <trkpt lat="42.36541" lon="2.60366">
        <ele>842.736</ele>
        <time>2014-07-05T08:13:53Z</time>
      </trkpt>
      <trkpt lat="42.36532" lon="2.60342">
        <ele>843.725</ele>
        <time>2014-07-05T08:14:00Z</time>
      </trkpt>
      <trkpt lat="42.36527" lon="2.60329">
        <ele>844.248</ele>
        <time>2014-07-05T08:14:05Z</time>
      </trkpt>
      <trkpt lat="42.36537" lon="2.60308">
        <ele>846.653</ele>
        <time>2014-07-05T08:14:20Z</time>
      </trkpt>
      <trkpt lat="42.36521" lon="2.60283">
        <ele>847.104</ele>
        <time>2014-07-05T08:14:31Z</time>
      </trkpt>
      <trkpt lat="42.36505" lon="2.60273">
        <ele>848.014</ele>
        <time>2014-07-05T08:14:40Z</time>
      </trkpt>
      <trkpt lat="42.36484" lon="2.60263">
        <ele>848.507</ele>
        <time>2014-07-05T08:14:50Z</time>
      </trkpt>
      <trkpt lat="42.36447" lon="2.60242">
        <ele>850.492</ele>
        <time>2014-07-05T08:15:05Z</time>
      </trkpt>
      <trkpt lat="42.36425" lon="2.60231">
        <ele>851.497</ele>
        <time>2014-07-05T08:15:19Z</time>
      </trkpt>
      <trkpt lat="42.36399" lon="2.60216">
        <ele>852.819</ele>
        <time>2014-07-05T08:15:29Z</time>
      </trkpt>
      <trkpt lat="42.36379" lon="2.60213">
        <ele>852.88</ele>
        <time>2014-07-05T08:15:37Z</time>
      </trkpt>
      <trkpt lat="42.36362" lon="2.60204">
        <ele>853.379</ele>
        <time>2014-07-05T08:15:42Z</time>
      </trkpt>
      <trkpt lat="42.36364" lon="2.60202">
        <ele>853.348</ele>
        <time>2014-07-05T08:15:44Z</time>
      </trkpt>
      <trkpt lat="42.3635" lon="2.6017">
        <ele>854.311</ele>
        <time>2014-07-05T08:15:54Z</time>
      </trkpt>
      <trkpt lat="42.36351" lon="2.60167">
        <ele>854.863</ele>
        <time>2014-07-05T08:15:56Z</time>
      </trkpt>
      <trkpt lat="42.36344" lon="2.60124">
        <ele>856.244</ele>
        <time>2014-07-05T08:16:09Z</time>
      </trkpt>
      <trkpt lat="42.36335" lon="2.60107">
        <ele>857.218</ele>
        <time>2014-07-05T08:16:19Z</time>
      </trkpt>
      <trkpt lat="42.3632" lon="2.601">
        <ele>857.207</ele>
        <time>2014-07-05T08:16:23Z</time>
      </trkpt>
      <trkpt lat="42.36293" lon="2.6009">
        <ele>857.293</ele>
        <time>2014-07-05T08:16:31Z</time>
      </trkpt>
      <trkpt lat="42.36288" lon="2.60077">
        <ele>857.688</ele>
        <time>2014-07-05T08:16:35Z</time>
      </trkpt>
      <trkpt lat="42.3629" lon="2.60045">
        <ele>859.69</ele>
        <time>2014-07-05T08:16:47Z</time>
      </trkpt>
      <trkpt lat="42.36291" lon="2.60043">
        <ele>859.671</ele>
        <time>2014-07-05T08:16:48Z</time>
      </trkpt>
      <trkpt lat="42.36276" lon="2.60004">
        <ele>861.01</ele>
        <time>2014-07-05T08:16:58Z</time>
      </trkpt>
      <trkpt lat="42.36277" lon="2.59976">
        <ele>861.579</ele>
        <time>2014-07-05T08:17:06Z</time>
      </trkpt>
      <trkpt lat="42.36297" lon="2.59983">
        <ele>863.992</ele>
        <time>2014-07-05T08:17:18Z</time>
      </trkpt>
      <trkpt lat="42.36321" lon="2.59959">
        <ele>865.318</ele>
        <time>2014-07-05T08:17:30Z</time>
      </trkpt>
      <trkpt lat="42.36342" lon="2.5993">
        <ele>867.398</ele>
        <time>2014-07-05T08:17:43Z</time>
      </trkpt>
      <trkpt lat="42.36354" lon="2.59901">
        <ele>869.717</ele>
        <time>2014-07-05T08:17:57Z</time>
      </trkpt>
      <trkpt lat="42.3636" lon="2.59887">
        <ele>871.107</ele>
        <time>2014-07-05T08:18:04Z</time>
      </trkpt>
      <trkpt lat="42.36326" lon="2.59852">
        <ele>873.568</ele>
        <time>2014-07-05T08:18:22Z</time>
      </trkpt>
      <trkpt lat="42.36296" lon="2.59835">
        <ele>873.563</ele>
        <time>2014-07-05T08:18:27Z</time>
      </trkpt>
      <trkpt lat="42.36263" lon="2.59844">
        <ele>874.525</ele>
        <time>2014-07-05T08:18:40Z</time>
      </trkpt>
      <trkpt lat="42.36234" lon="2.59844">
        <ele>874.926</ele>
        <time>2014-07-05T08:18:53Z</time>
      </trkpt>
      <trkpt lat="42.36224" lon="2.59853">
        <ele>876.455</ele>
        <time>2014-07-05T08:18:58Z</time>
      </trkpt>
      <trkpt lat="42.36223" lon="2.59863">
        <ele>875.924</ele>
        <time>2014-07-05T08:19:01Z</time>
      </trkpt>
      <trkpt lat="42.36223" lon="2.59915">
        <ele>875.917</ele>
        <time>2014-07-05T08:19:13Z</time>
      </trkpt>
      <trkpt lat="42.3622" lon="2.59945">
        <ele>875.945</ele>
        <time>2014-07-05T08:19:21Z</time>
      </trkpt>
      <trkpt lat="42.36224" lon="2.59991">
        <ele>876.947</ele>
        <time>2014-07-05T08:19:32Z</time>
      </trkpt>
      <trkpt lat="42.36221" lon="2.60028">
        <ele>877.311</ele>
        <time>2014-07-05T08:19:41Z</time>
      </trkpt>
      <trkpt lat="42.3622" lon="2.60032">
        <ele>877.807</ele>
        <time>2014-07-05T08:19:42Z</time>
      </trkpt>
      <trkpt lat="42.3622" lon="2.60061">
        <ele>878.821</ele>
        <time>2014-07-05T08:19:50Z</time>
      </trkpt>
      <trkpt lat="42.3621" lon="2.601">
        <ele>880.236</ele>
        <time>2014-07-05T08:20:01Z</time>
      </trkpt>
      <trkpt lat="42.36207" lon="2.60115">
        <ele>880.778</ele>
        <time>2014-07-05T08:20:05Z</time>
      </trkpt>
      <trkpt lat="42.36204" lon="2.60124">
        <ele>881.259</ele>
        <time>2014-07-05T08:20:08Z</time>
      </trkpt>
      <trkpt lat="42.36204" lon="2.60136">
        <ele>881.738</ele>
        <time>2014-07-05T08:20:12Z</time>
      </trkpt>
      <trkpt lat="42.36198" lon="2.60155">
        <ele>882.677</ele>
        <time>2014-07-05T08:20:18Z</time>
      </trkpt>
      <trkpt lat="42.36187" lon="2.60182">
        <ele>884.18</ele>
        <time>2014-07-05T08:20:30Z</time>
      </trkpt>
      <trkpt lat="42.36187" lon="2.60182">
        <ele>884.155</ele>
        <time>2014-07-05T08:20:31Z</time>
      </trkpt>
      <trkpt lat="42.36189" lon="2.60184">
        <ele>884.607</ele>
        <time>2014-07-05T08:20:33Z</time>
      </trkpt>
      <trkpt lat="42.36219" lon="2.60192">
        <ele>886.017</ele>
        <time>2014-07-05T08:20:44Z</time>
      </trkpt>
      <trkpt lat="42.3623" lon="2.60207">
        <ele>886.507</ele>
        <time>2014-07-05T08:20:50Z</time>
      </trkpt>
      <trkpt lat="42.36234" lon="2.60212">
        <ele>887.022</ele>
        <time>2014-07-05T08:20:52Z</time>
      </trkpt>
      <trkpt lat="42.36239" lon="2.60226">
        <ele>887.927</ele>
        <time>2014-07-05T08:20:59Z</time>
      </trkpt>
      <trkpt lat="42.36241" lon="2.6023">
        <ele>888.469</ele>
        <time>2014-07-05T08:21:01Z</time>
      </trkpt>
      <trkpt lat="42.3625" lon="2.60251">
        <ele>889.41</ele>
        <time>2014-07-05T08:21:11Z</time>
      </trkpt>
      <trkpt lat="42.3625" lon="2.60253">
        <ele>889.879</ele>
        <time>2014-07-05T08:21:12Z</time>
      </trkpt>
      <trkpt lat="42.3625" lon="2.60255">
        <ele>889.818</ele>
        <time>2014-07-05T08:21:13Z</time>
      </trkpt>
      <trkpt lat="42.36254" lon="2.60267">
        <ele>891.881</ele>
        <time>2014-07-05T08:21:25Z</time>
      </trkpt>
      <trkpt lat="42.36254" lon="2.60269">
        <ele>891.847</ele>
        <time>2014-07-05T08:21:26Z</time>
      </trkpt>
      <trkpt lat="42.36288" lon="2.60288">
        <ele>893.229</ele>
        <time>2014-07-05T08:21:36Z</time>
      </trkpt>
      <trkpt lat="42.36319" lon="2.60303">
        <ele>894.621</ele>
        <time>2014-07-05T08:21:48Z</time>
      </trkpt>
      <trkpt lat="42.36347" lon="2.60313">
        <ele>896.107</ele>
        <time>2014-07-05T08:21:59Z</time>
      </trkpt>
      <trkpt lat="42.3636" lon="2.60324">
        <ele>896.641</ele>
        <time>2014-07-05T08:22:05Z</time>
      </trkpt>
      <trkpt lat="42.36364" lon="2.60327">
        <ele>896.676</ele>
        <time>2014-07-05T08:22:07Z</time>
      </trkpt>
      <trkpt lat="42.36392" lon="2.60357">
        <ele>898.568</ele>
        <time>2014-07-05T08:22:21Z</time>
      </trkpt>
      <trkpt lat="42.36392" lon="2.60357">
        <ele>899.059</ele>
        <time>2014-07-05T08:22:22Z</time>
      </trkpt>
      <trkpt lat="42.36395" lon="2.60364">
        <ele>899.088</ele>
        <time>2014-07-05T08:22:24Z</time>
      </trkpt>
      <trkpt lat="42.36399" lon="2.60377">
        <ele>899.937</ele>
        <time>2014-07-05T08:22:31Z</time>
      </trkpt>
      <trkpt lat="42.364" lon="2.60381">
        <ele>900.99</ele>
        <time>2014-07-05T08:22:33Z</time>
      </trkpt>
      <trkpt lat="42.364" lon="2.60383">
        <ele>900.953</ele>
        <time>2014-07-05T08:22:34Z</time>
      </trkpt>
      <trkpt lat="42.36433" lon="2.60439">
        <ele>901.904</ele>
        <time>2014-07-05T08:22:45Z</time>
      </trkpt>
      <trkpt lat="42.36425" lon="2.60469">
        <ele>901.914</ele>
        <time>2014-07-05T08:22:54Z</time>
      </trkpt>
      <trkpt lat="42.36423" lon="2.60481">
        <ele>902.307</ele>
        <time>2014-07-05T08:22:58Z</time>
      </trkpt>
      <trkpt lat="42.36423" lon="2.60499">
        <ele>902.842</ele>
        <time>2014-07-05T08:23:05Z</time>
      </trkpt>
      <trkpt lat="42.36424" lon="2.60529">
        <ele>904.367</ele>
        <time>2014-07-05T08:23:15Z</time>
      </trkpt>
      <trkpt lat="42.36422" lon="2.60537">
        <ele>904.789</ele>
        <time>2014-07-05T08:23:18Z</time>
      </trkpt>
      <trkpt lat="42.36418" lon="2.60545">
        <ele>905.24</ele>
        <time>2014-07-05T08:23:30Z</time>
      </trkpt>
      <trkpt lat="42.36418" lon="2.60547">
        <ele>904.779</ele>
        <time>2014-07-05T08:24:03Z</time>
      </trkpt>
      <trkpt lat="42.36418" lon="2.60549">
        <ele>904.798</ele>
        <time>2014-07-05T08:24:29Z</time>
      </trkpt>
      <trkpt lat="42.36418" lon="2.60549">
        <ele>904.771</ele>
        <time>2014-07-05T08:24:31Z</time>
      </trkpt>
      <trkpt lat="42.36416" lon="2.6055">
        <ele>905.224</ele>
        <time>2014-07-05T08:24:34Z</time>
      </trkpt>
      <trkpt lat="42.36411" lon="2.60559">
        <ele>905.704</ele>
        <time>2014-07-05T08:24:39Z</time>
      </trkpt>
      <trkpt lat="42.36395" lon="2.60592">
        <ele>906.714</ele>
        <time>2014-07-05T08:24:52Z</time>
      </trkpt>
      <trkpt lat="42.36379" lon="2.60622">
        <ele>908.107</ele>
        <time>2014-07-05T08:25:04Z</time>
      </trkpt>
      <trkpt lat="42.36377" lon="2.60623">
        <ele>907.619</ele>
        <time>2014-07-05T08:25:05Z</time>
      </trkpt>
      <trkpt lat="42.36372" lon="2.60639">
        <ele>908.674</ele>
        <time>2014-07-05T08:25:11Z</time>
      </trkpt>
      <trkpt lat="42.36356" lon="2.60662">
        <ele>910.056</ele>
        <time>2014-07-05T08:25:23Z</time>
      </trkpt>
      <trkpt lat="42.36353" lon="2.60661">
        <ele>910.057</ele>
        <time>2014-07-05T08:25:24Z</time>
      </trkpt>
      <trkpt lat="42.36347" lon="2.60652">
        <ele>910.526</ele>
        <time>2014-07-05T08:25:29Z</time>
      </trkpt>
      <trkpt lat="42.36345" lon="2.60646">
        <ele>911.065</ele>
        <time>2014-07-05T08:25:32Z</time>
      </trkpt>
      <trkpt lat="42.36348" lon="2.60637">
        <ele>911.518</ele>
        <time>2014-07-05T08:25:36Z</time>
      </trkpt>
      <trkpt lat="42.36351" lon="2.60607">
        <ele>912.484</ele>
        <time>2014-07-05T08:25:47Z</time>
      </trkpt>
      <trkpt lat="42.36348" lon="2.60598">
        <ele>912.407</ele>
        <time>2014-07-05T08:25:50Z</time>
      </trkpt>
      <trkpt lat="42.36347" lon="2.60594">
        <ele>912.917</ele>
        <time>2014-07-05T08:25:52Z</time>
      </trkpt>
      <trkpt lat="42.36343" lon="2.60584">
        <ele>913.407</ele>
        <time>2014-07-05T08:25:57Z</time>
      </trkpt>
      <trkpt lat="42.36343" lon="2.60581">
        <ele>913.455</ele>
        <time>2014-07-05T08:25:58Z</time>
      </trkpt>
      <trkpt lat="42.36329" lon="2.60558">
        <ele>913.92</ele>
        <time>2014-07-05T08:26:09Z</time>
      </trkpt>
      <trkpt lat="42.36298" lon="2.60537">
        <ele>915.842</ele>
        <time>2014-07-05T08:26:20Z</time>
      </trkpt>
      <trkpt lat="42.36294" lon="2.60535">
        <ele>915.813</ele>
        <time>2014-07-05T08:26:21Z</time>
      </trkpt>
      <trkpt lat="42.36285" lon="2.60536">
        <ele>916.842</ele>
        <time>2014-07-05T08:26:25Z</time>
      </trkpt>
      <trkpt lat="42.3628" lon="2.60541">
        <ele>916.861</ele>
        <time>2014-07-05T08:26:28Z</time>
      </trkpt>
      <trkpt lat="42.36279" lon="2.60556">
        <ele>915.864</ele>
        <time>2014-07-05T08:26:33Z</time>
      </trkpt>
      <trkpt lat="42.36278" lon="2.60588">
        <ele>914.454</ele>
        <time>2014-07-05T08:26:39Z</time>
      </trkpt>
      <trkpt lat="42.36277" lon="2.606">
        <ele>913.956</ele>
        <time>2014-07-05T08:26:41Z</time>
      </trkpt>
      <trkpt lat="42.36265" lon="2.60664">
        <ele>912.411</ele>
        <time>2014-07-05T08:26:54Z</time>
      </trkpt>
      <trkpt lat="42.36244" lon="2.60715">
        <ele>913.407</ele>
        <time>2014-07-05T08:27:06Z</time>
      </trkpt>
      <trkpt lat="42.36226" lon="2.60754">
        <ele>914.422</ele>
        <time>2014-07-05T08:27:17Z</time>
      </trkpt>
      <trkpt lat="42.36209" lon="2.60794">
        <ele>914.457</ele>
        <time>2014-07-05T08:27:28Z</time>
      </trkpt>
      <trkpt lat="42.36203" lon="2.60851">
        <ele>914.419</ele>
        <time>2014-07-05T08:27:41Z</time>
      </trkpt>
      <trkpt lat="42.36201" lon="2.60866">
        <ele>914.48</ele>
        <time>2014-07-05T08:27:44Z</time>
      </trkpt>
      <trkpt lat="42.362" lon="2.60891">
        <ele>914.499</ele>
        <time>2014-07-05T08:27:49Z</time>
      </trkpt>
      <trkpt lat="42.36196" lon="2.60951">
        <ele>913.948</ele>
        <time>2014-07-05T08:28:00Z</time>
      </trkpt>
      <trkpt lat="42.36177" lon="2.60992">
        <ele>914.891</ele>
        <time>2014-07-05T08:28:09Z</time>
      </trkpt>
      <trkpt lat="42.36165" lon="2.61004">
        <ele>914.471</ele>
        <time>2014-07-05T08:28:13Z</time>
      </trkpt>
      <trkpt lat="42.36134" lon="2.61025">
        <ele>911.541</ele>
        <time>2014-07-05T08:28:23Z</time>
      </trkpt>
      <trkpt lat="42.3611" lon="2.61037">
        <ele>908.615</ele>
        <time>2014-07-05T08:28:31Z</time>
      </trkpt>
      <trkpt lat="42.36078" lon="2.61057">
        <ele>905.707</ele>
        <time>2014-07-05T08:28:40Z</time>
      </trkpt>
      <trkpt lat="42.36057" lon="2.61065">
        <ele>904.374</ele>
        <time>2014-07-05T08:28:44Z</time>
      </trkpt>
      <trkpt lat="42.36023" lon="2.61059">
        <ele>901.479</ele>
        <time>2014-07-05T08:28:51Z</time>
      </trkpt>
      <trkpt lat="42.35999" lon="2.61046">
        <ele>897.521</ele>
        <time>2014-07-05T08:28:57Z</time>
      </trkpt>
      <trkpt lat="42.35991" lon="2.61041">
        <ele>897.582</ele>
        <time>2014-07-05T08:28:59Z</time>
      </trkpt>
      <trkpt lat="42.35979" lon="2.61022">
        <ele>897.181</ele>
        <time>2014-07-05T08:29:03Z</time>
      </trkpt>
      <trkpt lat="42.35958" lon="2.6099">
        <ele>897.53</ele>
        <time>2014-07-05T08:29:10Z</time>
      </trkpt>
      <trkpt lat="42.35952" lon="2.60983">
        <ele>897.563</ele>
        <time>2014-07-05T08:29:12Z</time>
      </trkpt>
      <trkpt lat="42.35941" lon="2.60966">
        <ele>898.015</ele>
        <time>2014-07-05T08:29:16Z</time>
      </trkpt>
      <trkpt lat="42.35935" lon="2.60928">
        <ele>899.565</ele>
        <time>2014-07-05T08:29:25Z</time>
      </trkpt>
      <trkpt lat="42.35936" lon="2.60903">
        <ele>899.911</ele>
        <time>2014-07-05T08:29:31Z</time>
      </trkpt>
      <trkpt lat="42.35934" lon="2.60894">
        <ele>899.507</ele>
        <time>2014-07-05T08:29:33Z</time>
      </trkpt>
      <trkpt lat="42.35911" lon="2.60878">
        <ele>896.178</ele>
        <time>2014-07-05T08:29:40Z</time>
      </trkpt>
      <trkpt lat="42.35907" lon="2.60877">
        <ele>895.633</ele>
        <time>2014-07-05T08:29:41Z</time>
      </trkpt>
      <trkpt lat="42.359" lon="2.60874">
        <ele>894.225</ele>
        <time>2014-07-05T08:29:43Z</time>
      </trkpt>
      <trkpt lat="42.35891" lon="2.60872">
        <ele>892.236</ele>
        <time>2014-07-05T08:29:45Z</time>
      </trkpt>
      <trkpt lat="42.35879" lon="2.60871">
        <ele>889.815</ele>
        <time>2014-07-05T08:29:48Z</time>
      </trkpt>
      <trkpt lat="42.3586" lon="2.60857">
        <ele>887.064</ele>
        <time>2014-07-05T08:29:52Z</time>
      </trkpt>
      <trkpt lat="42.3585" lon="2.60848">
        <ele>886.587</ele>
        <time>2014-07-05T08:29:54Z</time>
      </trkpt>
      <trkpt lat="42.35834" lon="2.60825">
        <ele>886.593</ele>
        <time>2014-07-05T08:29:58Z</time>
      </trkpt>
      <trkpt lat="42.35799" lon="2.60776">
        <ele>886.065</ele>
        <time>2014-07-05T08:30:10Z</time>
      </trkpt>
      <trkpt lat="42.35795" lon="2.60769">
        <ele>886.021</ele>
        <time>2014-07-05T08:30:12Z</time>
      </trkpt>
      <trkpt lat="42.35796" lon="2.60753">
        <ele>886.507</ele>
        <time>2014-07-05T08:30:17Z</time>
      </trkpt>
      <trkpt lat="42.35798" lon="2.6074">
        <ele>886.036</ele>
        <time>2014-07-05T08:30:21Z</time>
      </trkpt>
      <trkpt lat="42.35797" lon="2.60715">
        <ele>886.551</ele>
        <time>2014-07-05T08:30:29Z</time>
      </trkpt>
      <trkpt lat="42.3579" lon="2.6071">
        <ele>886.553</ele>
        <time>2014-07-05T08:30:33Z</time>
      </trkpt>
      <trkpt lat="42.35786" lon="2.60711">
        <ele>886.024</ele>
        <time>2014-07-05T08:30:43Z</time>
      </trkpt>
      <trkpt lat="42.35781" lon="2.60713">
        <ele>885.543</ele>
        <time>2014-07-05T08:30:56Z</time>
      </trkpt>
      <trkpt lat="42.35778" lon="2.60715">
        <ele>885.532</ele>
        <time>2014-07-05T08:31:08Z</time>
      </trkpt>
      <trkpt lat="42.35779" lon="2.60717">
        <ele>885.075</ele>
        <time>2014-07-05T08:31:34Z</time>
      </trkpt>
      <trkpt lat="42.3578" lon="2.60719">
        <ele>885.087</ele>
        <time>2014-07-05T08:31:52Z</time>
      </trkpt>
      <trkpt lat="42.35779" lon="2.60724">
        <ele>884.642</ele>
        <time>2014-07-05T08:32:07Z</time>
      </trkpt>
      <trkpt lat="42.35779" lon="2.60724">
        <ele>884.126</ele>
        <time>2014-07-05T08:32:28Z</time>
      </trkpt>
      <trkpt lat="42.3578" lon="2.60751">
        <ele>880.707</ele>
        <time>2014-07-05T08:32:37Z</time>
      </trkpt>
      <trkpt lat="42.35778" lon="2.60775">
        <ele>878.315</ele>
        <time>2014-07-05T08:32:42Z</time>
      </trkpt>
      <trkpt lat="42.35783" lon="2.60799">
        <ele>875.98</ele>
        <time>2014-07-05T08:32:51Z</time>
      </trkpt>
      <trkpt lat="42.3579" lon="2.60812">
        <ele>874.072</ele>
        <time>2014-07-05T08:33:01Z</time>
      </trkpt>
      <trkpt lat="42.3579" lon="2.60815">
        <ele>874.083</ele>
        <time>2014-07-05T08:33:26Z</time>
      </trkpt>
      <trkpt lat="42.3579" lon="2.60816">
        <ele>874.032</ele>
        <time>2014-07-05T08:33:36Z</time>
      </trkpt>
      <trkpt lat="42.35794" lon="2.60822">
        <ele>873.591</ele>
        <time>2014-07-05T08:33:46Z</time>
      </trkpt>
      <trkpt lat="42.35794" lon="2.60821">
        <ele>873.544</ele>
        <time>2014-07-05T08:34:09Z</time>
      </trkpt>
      <trkpt lat="42.35793" lon="2.60821">
        <ele>872.111</ele>
        <time>2014-07-05T08:34:39Z</time>
      </trkpt>
      <trkpt lat="42.35794" lon="2.60824">
        <ele>872.521</ele>
        <time>2014-07-05T08:34:49Z</time>
      </trkpt>
      <trkpt lat="42.35801" lon="2.6085">
        <ele>870.103</ele>
        <time>2014-07-05T08:35:00Z</time>
      </trkpt>
      <trkpt lat="42.35802" lon="2.60857">
        <ele>869.207</ele>
        <time>2014-07-05T08:35:11Z</time>
      </trkpt>
      <trkpt lat="42.35803" lon="2.60859">
        <ele>868.738</ele>
        <time>2014-07-05T08:35:25Z</time>
      </trkpt>
      <trkpt lat="42.35801" lon="2.60859">
        <ele>868.773</ele>
        <time>2014-07-05T08:35:38Z</time>
      </trkpt>
      <trkpt lat="42.358" lon="2.60859">
        <ele>868.275</ele>
        <time>2014-07-05T08:35:40Z</time>
      </trkpt>
      <trkpt lat="42.35792" lon="2.60854">
        <ele>868.266</ele>
        <time>2014-07-05T08:35:46Z</time>
      </trkpt>
      <trkpt lat="42.35785" lon="2.60845">
        <ele>867.785</ele>
        <time>2014-07-05T08:35:51Z</time>
      </trkpt>
      <trkpt lat="42.35781" lon="2.60841">
        <ele>867.344</ele>
        <time>2014-07-05T08:36:07Z</time>
      </trkpt>
      <trkpt lat="42.35779" lon="2.6084">
        <ele>867.337</ele>
        <time>2014-07-05T08:36:22Z</time>
      </trkpt>
      <trkpt lat="42.35778" lon="2.6084">
        <ele>866.814</ele>
        <time>2014-07-05T08:36:47Z</time>
      </trkpt>
      <trkpt lat="42.35778" lon="2.60838">
        <ele>866.854</ele>
        <time>2014-07-05T08:37:17Z</time>
      </trkpt>
      <trkpt lat="42.35777" lon="2.60838">
        <ele>866.809</ele>
        <time>2014-07-05T08:37:43Z</time>
      </trkpt>
      <trkpt lat="42.35778" lon="2.60841">
        <ele>866.307</ele>
        <time>2014-07-05T08:38:06Z</time>
      </trkpt>
      <trkpt lat="42.3578" lon="2.60845">
        <ele>866.398</ele>
        <time>2014-07-05T08:38:11Z</time>
      </trkpt>
      <trkpt lat="42.35792" lon="2.60857">
        <ele>866.823</ele>
        <time>2014-07-05T08:38:25Z</time>
      </trkpt>
      <trkpt lat="42.35805" lon="2.60866">
        <ele>866.865</ele>
        <time>2014-07-05T08:38:39Z</time>
      </trkpt>
      <trkpt lat="42.35806" lon="2.60867">
        <ele>866.866</ele>
        <time>2014-07-05T08:38:53Z</time>
      </trkpt>
      <trkpt lat="42.35816" lon="2.60871">
        <ele>865.895</ele>
        <time>2014-07-05T08:39:08Z</time>
      </trkpt>
      <trkpt lat="42.3583" lon="2.60889">
        <ele>864.484</ele>
        <time>2014-07-05T08:39:26Z</time>
      </trkpt>
      <trkpt lat="42.35835" lon="2.60897">
        <ele>863.487</ele>
        <time>2014-07-05T08:39:43Z</time>
      </trkpt>
      <trkpt lat="42.35834" lon="2.60897">
        <ele>862.991</ele>
        <time>2014-07-05T08:40:01Z</time>
      </trkpt>
      <trkpt lat="42.35836" lon="2.60898">
        <ele>862.481</ele>
        <time>2014-07-05T08:40:33Z</time>
      </trkpt>
      <trkpt lat="42.35836" lon="2.60895">
        <ele>862.419</ele>
        <time>2014-07-05T08:41:05Z</time>
      </trkpt>
      <trkpt lat="42.35837" lon="2.60893">
        <ele>862.407</ele>
        <time>2014-07-05T08:41:38Z</time>
      </trkpt>
      <trkpt lat="42.35837" lon="2.60893">
        <ele>862.096</ele>
        <time>2014-07-05T08:42:08Z</time>
      </trkpt>
      <trkpt lat="42.35839" lon="2.60894">
        <ele>862.441</ele>
        <time>2014-07-05T08:42:40Z</time>
      </trkpt>
      <trkpt lat="42.35838" lon="2.60894">
        <ele>862.473</ele>
        <time>2014-07-05T08:42:56Z</time>
      </trkpt>
      <trkpt lat="42.35835" lon="2.60891">
        <ele>862.984</ele>
        <time>2014-07-05T08:43:03Z</time>
      </trkpt>
      <trkpt lat="42.3583" lon="2.60886">
        <ele>863.473</ele>
        <time>2014-07-05T08:43:16Z</time>
      </trkpt>
      <trkpt lat="42.35827" lon="2.6088">
        <ele>863.982</ele>
        <time>2014-07-05T08:43:20Z</time>
      </trkpt>
      <trkpt lat="42.35811" lon="2.60867">
        <ele>864.855</ele>
        <time>2014-07-05T08:43:34Z</time>
      </trkpt>
      <trkpt lat="42.35809" lon="2.60865">
        <ele>865.313</ele>
        <time>2014-07-05T08:43:51Z</time>
      </trkpt>
      <trkpt lat="42.35809" lon="2.60864">
        <ele>865.343</ele>
        <time>2014-07-05T08:44:00Z</time>
      </trkpt>
      <trkpt lat="42.35802" lon="2.60859">
        <ele>866.307</ele>
        <time>2014-07-05T08:44:16Z</time>
      </trkpt>
      <trkpt lat="42.35801" lon="2.60859">
        <ele>865.807</ele>
        <time>2014-07-05T08:44:35Z</time>
      </trkpt>
      <trkpt lat="42.35801" lon="2.60858">
        <ele>866.318</ele>
        <time>2014-07-05T08:44:36Z</time>
      </trkpt>
      <trkpt lat="42.35799" lon="2.60845">
        <ele>867.353</ele>
        <time>2014-07-05T08:44:45Z</time>
      </trkpt>
      <trkpt lat="42.35794" lon="2.60831">
        <ele>869.215</ele>
        <time>2014-07-05T08:44:58Z</time>
      </trkpt>
      <trkpt lat="42.35787" lon="2.6081">
        <ele>871.156</ele>
        <time>2014-07-05T08:45:09Z</time>
      </trkpt>
      <trkpt lat="42.35778" lon="2.60786">
        <ele>873.595</ele>
        <time>2014-07-05T08:45:23Z</time>
      </trkpt>
      <trkpt lat="42.3578" lon="2.60774">
        <ele>875.424</ele>
        <time>2014-07-05T08:45:34Z</time>
      </trkpt>
      <trkpt lat="42.35781" lon="2.60761">
        <ele>876.927</ele>
        <time>2014-07-05T08:45:40Z</time>
      </trkpt>
      <trkpt lat="42.35778" lon="2.60751">
        <ele>877.881</ele>
        <time>2014-07-05T08:45:45Z</time>
      </trkpt>
      <trkpt lat="42.35781" lon="2.60733">
        <ele>879.761</ele>
        <time>2014-07-05T08:45:55Z</time>
      </trkpt>
      <trkpt lat="42.35781" lon="2.6073">
        <ele>880.217</ele>
        <time>2014-07-05T08:45:57Z</time>
      </trkpt>
      <trkpt lat="42.35787" lon="2.60717">
        <ele>880.707</ele>
        <time>2014-07-05T08:46:09Z</time>
      </trkpt>
      <trkpt lat="42.35786" lon="2.6071">
        <ele>881.235</ele>
        <time>2014-07-05T08:46:26Z</time>
      </trkpt>
      <trkpt lat="42.35787" lon="2.60703">
        <ele>882.24</ele>
        <time>2014-07-05T08:46:40Z</time>
      </trkpt>
      <trkpt lat="42.35787" lon="2.60701">
        <ele>881.722</ele>
        <time>2014-07-05T08:47:00Z</time>
      </trkpt>
      <trkpt lat="42.35786" lon="2.60701">
        <ele>885.033</ele>
        <time>2014-07-05T08:47:12Z</time>
      </trkpt>
      <trkpt lat="42.35786" lon="2.60701">
        <ele>882.242</ele>
        <time>2014-07-05T08:47:13Z</time>
      </trkpt>
      <trkpt lat="42.35785" lon="2.60701">
        <ele>881.711</ele>
        <time>2014-07-05T08:47:31Z</time>
      </trkpt>
      <trkpt lat="42.35785" lon="2.60702">
        <ele>881.744</ele>
        <time>2014-07-05T08:47:40Z</time>
      </trkpt>
      <trkpt lat="42.35787" lon="2.60716">
        <ele>881.794</ele>
        <time>2014-07-05T08:47:55Z</time>
      </trkpt>
      <trkpt lat="42.35788" lon="2.60718">
        <ele>881.757</ele>
        <time>2014-07-05T08:48:16Z</time>
      </trkpt>
      <trkpt lat="42.35788" lon="2.60732">
        <ele>881.222</ele>
        <time>2014-07-05T08:48:22Z</time>
      </trkpt>
      <trkpt lat="42.35787" lon="2.60739">
        <ele>881.207</ele>
        <time>2014-07-05T08:48:26Z</time>
      </trkpt>
      <trkpt lat="42.35788" lon="2.60747">
        <ele>881.226</ele>
        <time>2014-07-05T08:48:29Z</time>
      </trkpt>
      <trkpt lat="42.35802" lon="2.60781">
        <ele>881.241</ele>
        <time>2014-07-05T08:48:43Z</time>
      </trkpt>
      <trkpt lat="42.35803" lon="2.60783">
        <ele>881.223</ele>
        <time>2014-07-05T08:48:44Z</time>
      </trkpt>
      <trkpt lat="42.35808" lon="2.6079">
        <ele>881.264</ele>
        <time>2014-07-05T08:48:48Z</time>
      </trkpt>
      <trkpt lat="42.35817" lon="2.60802">
        <ele>879.363</ele>
        <time>2014-07-05T08:49:01Z</time>
      </trkpt>
      <trkpt lat="42.35817" lon="2.60802">
        <ele>883.172</ele>
        <time>2014-07-05T08:49:02Z</time>
      </trkpt>
      <trkpt lat="42.35817" lon="2.60802">
        <ele>882.265</ele>
        <time>2014-07-05T08:49:03Z</time>
      </trkpt>
      <trkpt lat="42.35818" lon="2.60802">
        <ele>881.272</ele>
        <time>2014-07-05T08:49:05Z</time>
      </trkpt>
      <trkpt lat="42.35818" lon="2.60803">
        <ele>880.713</ele>
        <time>2014-07-05T08:49:24Z</time>
      </trkpt>
      <trkpt lat="42.35828" lon="2.6082">
        <ele>881.214</ele>
        <time>2014-07-05T08:49:32Z</time>
      </trkpt>
      <trkpt lat="42.35843" lon="2.60835">
        <ele>881.207</ele>
        <time>2014-07-05T08:49:39Z</time>
      </trkpt>
      <trkpt lat="42.35849" lon="2.6084">
        <ele>881.744</ele>
        <time>2014-07-05T08:49:53Z</time>
      </trkpt>
      <trkpt lat="42.3585" lon="2.60842">
        <ele>881.739</ele>
        <time>2014-07-05T08:50:01Z</time>
      </trkpt>
      <trkpt lat="42.35856" lon="2.60846">
        <ele>882.271</ele>
        <time>2014-07-05T08:50:06Z</time>
      </trkpt>
      <trkpt lat="42.35875" lon="2.60857">
        <ele>884.652</ele>
        <time>2014-07-05T08:50:18Z</time>
      </trkpt>
      <trkpt lat="42.35882" lon="2.6086">
        <ele>885.561</ele>
        <time>2014-07-05T08:50:22Z</time>
      </trkpt>
      <trkpt lat="42.35902" lon="2.60866">
        <ele>888.95</ele>
        <time>2014-07-05T08:50:35Z</time>
      </trkpt>
      <trkpt lat="42.35917" lon="2.60875">
        <ele>891.383</ele>
        <time>2014-07-05T08:50:48Z</time>
      </trkpt>
      <trkpt lat="42.3592" lon="2.60877">
        <ele>892.274</ele>
        <time>2014-07-05T08:50:51Z</time>
      </trkpt>
      <trkpt lat="42.35925" lon="2.60885">
        <ele>892.756</ele>
        <time>2014-07-05T08:50:56Z</time>
      </trkpt>
      <trkpt lat="42.35932" lon="2.60907">
        <ele>893.721</ele>
        <time>2014-07-05T08:51:09Z</time>
      </trkpt>
      <trkpt lat="42.35933" lon="2.60939">
        <ele>892.207</ele>
        <time>2014-07-05T08:51:20Z</time>
      </trkpt>
      <trkpt lat="42.35933" lon="2.60942">
        <ele>892.294</ele>
        <time>2014-07-05T08:51:21Z</time>
      </trkpt>
      <trkpt lat="42.35933" lon="2.60949">
        <ele>891.879</ele>
        <time>2014-07-05T08:51:35Z</time>
      </trkpt>
      <trkpt lat="42.35934" lon="2.60952">
        <ele>891.861</ele>
        <time>2014-07-05T08:51:54Z</time>
      </trkpt>
      <trkpt lat="42.35935" lon="2.60957">
        <ele>891.392</ele>
        <time>2014-07-05T08:51:57Z</time>
      </trkpt>
      <trkpt lat="42.35943" lon="2.60975">
        <ele>891.331</ele>
        <time>2014-07-05T08:52:10Z</time>
      </trkpt>
      <trkpt lat="42.35944" lon="2.60975">
        <ele>890.86</ele>
        <time>2014-07-05T08:52:31Z</time>
      </trkpt>
      <trkpt lat="42.35942" lon="2.60973">
        <ele>890.833</ele>
        <time>2014-07-05T08:52:33Z</time>
      </trkpt>
      <trkpt lat="42.35937" lon="2.60961">
        <ele>891.311</ele>
        <time>2014-07-05T08:52:42Z</time>
      </trkpt>
      <trkpt lat="42.35934" lon="2.60955">
        <ele>891.821</ele>
        <time>2014-07-05T08:52:47Z</time>
      </trkpt>
      <trkpt lat="42.35935" lon="2.60976">
        <ele>888.403</ele>
        <time>2014-07-05T08:52:55Z</time>
      </trkpt>
      <trkpt lat="42.35936" lon="2.60985">
        <ele>887.407</ele>
        <time>2014-07-05T08:52:58Z</time>
      </trkpt>
      <trkpt lat="42.35941" lon="2.61005">
        <ele>885.578</ele>
        <time>2014-07-05T08:53:05Z</time>
      </trkpt>
      <trkpt lat="42.3594" lon="2.61009">
        <ele>885.013</ele>
        <time>2014-07-05T08:53:07Z</time>
      </trkpt>
      <trkpt lat="42.35943" lon="2.61022">
        <ele>883.675</ele>
        <time>2014-07-05T08:53:12Z</time>
      </trkpt>
      <trkpt lat="42.3595" lon="2.61044">
        <ele>880.236</ele>
        <time>2014-07-05T08:53:23Z</time>
      </trkpt>
      <trkpt lat="42.35952" lon="2.61052">
        <ele>878.835</ele>
        <time>2014-07-05T08:53:26Z</time>
      </trkpt>
      <trkpt lat="42.35956" lon="2.61076">
        <ele>875.954</ele>
        <time>2014-07-05T08:53:35Z</time>
      </trkpt>
      <trkpt lat="42.35957" lon="2.61083">
        <ele>875.497</ele>
        <time>2014-07-05T08:53:49Z</time>
      </trkpt>
      <trkpt lat="42.35958" lon="2.61089">
        <ele>875.467</ele>
        <time>2014-07-05T08:54:14Z</time>
      </trkpt>
      <trkpt lat="42.35962" lon="2.611">
        <ele>875.481</ele>
        <time>2014-07-05T08:54:26Z</time>
      </trkpt>
      <trkpt lat="42.35964" lon="2.61106">
        <ele>875.919</ele>
        <time>2014-07-05T08:54:39Z</time>
      </trkpt>
      <trkpt lat="42.35964" lon="2.61107">
        <ele>875.907</ele>
        <time>2014-07-05T08:54:48Z</time>
      </trkpt>
      <trkpt lat="42.35965" lon="2.61112">
        <ele>874.973</ele>
        <time>2014-07-05T08:55:01Z</time>
      </trkpt>
      <trkpt lat="42.35964" lon="2.61112">
        <ele>875.928</ele>
        <time>2014-07-05T08:55:24Z</time>
      </trkpt>
      <trkpt lat="42.35962" lon="2.61119">
        <ele>874.08</ele>
        <time>2014-07-05T08:55:35Z</time>
      </trkpt>
      <trkpt lat="42.35958" lon="2.61123">
        <ele>872.551</ele>
        <time>2014-07-05T08:55:43Z</time>
      </trkpt>
      <trkpt lat="42.35953" lon="2.61129">
        <ele>871.64</ele>
        <time>2014-07-05T08:55:55Z</time>
      </trkpt>
      <trkpt lat="42.35953" lon="2.61131">
        <ele>870.169</ele>
        <time>2014-07-05T08:56:10Z</time>
      </trkpt>
      <trkpt lat="42.35953" lon="2.61132">
        <ele>869.242</ele>
        <time>2014-07-05T08:56:19Z</time>
      </trkpt>
      <trkpt lat="42.35955" lon="2.61134">
        <ele>868.746</ele>
        <time>2014-07-05T08:56:31Z</time>
      </trkpt>
      <trkpt lat="42.35958" lon="2.61137">
        <ele>868.288</ele>
        <time>2014-07-05T08:56:41Z</time>
      </trkpt>
      <trkpt lat="42.35962" lon="2.61139">
        <ele>866.816</ele>
        <time>2014-07-05T08:56:53Z</time>
      </trkpt>
      <trkpt lat="42.35964" lon="2.61144">
        <ele>866.307</ele>
        <time>2014-07-05T08:57:11Z</time>
      </trkpt>
      <trkpt lat="42.35963" lon="2.61151">
        <ele>864.441</ele>
        <time>2014-07-05T08:57:22Z</time>
      </trkpt>
      <trkpt lat="42.35961" lon="2.61156">
        <ele>862.466</ele>
        <time>2014-07-05T08:57:34Z</time>
      </trkpt>
      <trkpt lat="42.35954" lon="2.61162">
        <ele>860.048</ele>
        <time>2014-07-05T08:57:47Z</time>
      </trkpt>
      <trkpt lat="42.35951" lon="2.61163">
        <ele>860.029</ele>
        <time>2014-07-05T08:58:01Z</time>
      </trkpt>
      <trkpt lat="42.35943" lon="2.61165">
        <ele>860.578</ele>
        <time>2014-07-05T08:58:15Z</time>
      </trkpt>
      <trkpt lat="42.35938" lon="2.61167">
        <ele>859.197</ele>
        <time>2014-07-05T08:58:28Z</time>
      </trkpt>
      <trkpt lat="42.35933" lon="2.6117">
        <ele>857.28</ele>
        <time>2014-07-05T08:58:40Z</time>
      </trkpt>
      <trkpt lat="42.35934" lon="2.61175">
        <ele>856.797</ele>
        <time>2014-07-05T08:58:54Z</time>
      </trkpt>
      <trkpt lat="42.35934" lon="2.61177">
        <ele>856.723</ele>
        <time>2014-07-05T08:59:06Z</time>
      </trkpt>
      <trkpt lat="42.35937" lon="2.61181">
        <ele>854.325</ele>
        <time>2014-07-05T08:59:15Z</time>
      </trkpt>
      <trkpt lat="42.35936" lon="2.61183">
        <ele>852.807</ele>
        <time>2014-07-05T08:59:20Z</time>
      </trkpt>
      <trkpt lat="42.35933" lon="2.61192">
        <ele>849.916</ele>
        <time>2014-07-05T08:59:33Z</time>
      </trkpt>
      <trkpt lat="42.35934" lon="2.61202">
        <ele>848.011</ele>
        <time>2014-07-05T08:59:46Z</time>
      </trkpt>
      <trkpt lat="42.35931" lon="2.61206">
        <ele>845.653</ele>
        <time>2014-07-05T08:59:58Z</time>
      </trkpt>
      <trkpt lat="42.35928" lon="2.61207">
        <ele>844.214</ele>
        <time>2014-07-05T09:00:06Z</time>
      </trkpt>
      <trkpt lat="42.35917" lon="2.61208">
        <ele>841.343</ele>
        <time>2014-07-05T09:00:13Z</time>
      </trkpt>
      <trkpt lat="42.35915" lon="2.6121">
        <ele>840.372</ele>
        <time>2014-07-05T09:00:15Z</time>
      </trkpt>
      <trkpt lat="42.35912" lon="2.61214">
        <ele>838.465</ele>
        <time>2014-07-05T09:00:19Z</time>
      </trkpt>
      <trkpt lat="42.35907" lon="2.61216">
        <ele>839.411</ele>
        <time>2014-07-05T09:00:36Z</time>
      </trkpt>
      <trkpt lat="42.35906" lon="2.61219">
        <ele>839.421</ele>
        <time>2014-07-05T09:00:50Z</time>
      </trkpt>
      <trkpt lat="42.35907" lon="2.61222">
        <ele>839.403</ele>
        <time>2014-07-05T09:01:06Z</time>
      </trkpt>
      <trkpt lat="42.35904" lon="2.61243">
        <ele>835.007</ele>
        <time>2014-07-05T09:01:11Z</time>
      </trkpt>
      <trkpt lat="42.35902" lon="2.61259">
        <ele>832.268</ele>
        <time>2014-07-05T09:01:14Z</time>
      </trkpt>
      <trkpt lat="42.35902" lon="2.6127">
        <ele>830.263</ele>
        <time>2014-07-05T09:01:16Z</time>
      </trkpt>
      <trkpt lat="42.359" lon="2.61305">
        <ele>827.455</ele>
        <time>2014-07-05T09:01:20Z</time>
      </trkpt>
      <trkpt lat="42.35898" lon="2.61329">
        <ele>828.886</ele>
        <time>2014-07-05T09:01:25Z</time>
      </trkpt>
      <trkpt lat="42.35899" lon="2.61347">
        <ele>828.815</ele>
        <time>2014-07-05T09:01:36Z</time>
      </trkpt>
      <trkpt lat="42.35901" lon="2.61353">
        <ele>828.874</ele>
        <time>2014-07-05T09:01:58Z</time>
      </trkpt>
      <trkpt lat="42.35902" lon="2.61353">
        <ele>828.897</ele>
        <time>2014-07-05T09:02:13Z</time>
      </trkpt>
      <trkpt lat="42.35904" lon="2.61354">
        <ele>828.887</ele>
        <time>2014-07-05T09:02:33Z</time>
      </trkpt>
      <trkpt lat="42.35905" lon="2.61388">
        <ele>826.442</ele>
        <time>2014-07-05T09:02:42Z</time>
      </trkpt>
      <trkpt lat="42.359" lon="2.61391">
        <ele>825.926</ele>
        <time>2014-07-05T09:02:43Z</time>
      </trkpt>
      <trkpt lat="42.35855" lon="2.61423">
        <ele>822.107</ele>
        <time>2014-07-05T09:02:50Z</time>
      </trkpt>
      <trkpt lat="42.35816" lon="2.61452">
        <ele>819.225</ele>
        <time>2014-07-05T09:02:55Z</time>
      </trkpt>
      <trkpt lat="42.3578" lon="2.61484">
        <ele>815.83</ele>
        <time>2014-07-05T09:03:00Z</time>
      </trkpt>
      <trkpt lat="42.35767" lon="2.61499">
        <ele>814.922</ele>
        <time>2014-07-05T09:03:03Z</time>
      </trkpt>
      <trkpt lat="42.35753" lon="2.61511">
        <ele>813.473</ele>
        <time>2014-07-05T09:03:06Z</time>
      </trkpt>
      <trkpt lat="42.35719" lon="2.61509">
        <ele>811.052</ele>
        <time>2014-07-05T09:03:12Z</time>
      </trkpt>
      <trkpt lat="42.35704" lon="2.61493">
        <ele>809.631</ele>
        <time>2014-07-05T09:03:15Z</time>
      </trkpt>
      <trkpt lat="42.35689" lon="2.61475">
        <ele>808.174</ele>
        <time>2014-07-05T09:03:19Z</time>
      </trkpt>
      <trkpt lat="42.35654" lon="2.61452">
        <ele>804.839</ele>
        <time>2014-07-05T09:03:26Z</time>
      </trkpt>
      <trkpt lat="42.35622" lon="2.61457">
        <ele>803.801</ele>
        <time>2014-07-05T09:03:33Z</time>
      </trkpt>
      <trkpt lat="42.35617" lon="2.61464">
        <ele>803.821</ele>
        <time>2014-07-05T09:03:37Z</time>
      </trkpt>
      <trkpt lat="42.35608" lon="2.61452">
        <ele>805.707</ele>
        <time>2014-07-05T09:03:48Z</time>
      </trkpt>
      <trkpt lat="42.35608" lon="2.6144">
        <ele>806.76</ele>
        <time>2014-07-05T09:03:53Z</time>
      </trkpt>
      <trkpt lat="42.35606" lon="2.61412">
        <ele>809.655</ele>
        <time>2014-07-05T09:04:07Z</time>
      </trkpt>
      <trkpt lat="42.35605" lon="2.61403">
        <ele>810.137</ele>
        <time>2014-07-05T09:04:11Z</time>
      </trkpt>
      <trkpt lat="42.35604" lon="2.61383">
        <ele>811.548</ele>
        <time>2014-07-05T09:04:19Z</time>
      </trkpt>
      <trkpt lat="42.35605" lon="2.61351">
        <ele>813.927</ele>
        <time>2014-07-05T09:04:33Z</time>
      </trkpt>
      <trkpt lat="42.35605" lon="2.61343">
        <ele>813.946</ele>
        <time>2014-07-05T09:04:36Z</time>
      </trkpt>
      <trkpt lat="42.35603" lon="2.6131">
        <ele>815.819</ele>
        <time>2014-07-05T09:04:49Z</time>
      </trkpt>
      <trkpt lat="42.35603" lon="2.61307">
        <ele>815.858</ele>
        <time>2014-07-05T09:04:50Z</time>
      </trkpt>
      <trkpt lat="42.35602" lon="2.61301">
        <ele>816.352</ele>
        <time>2014-07-05T09:04:53Z</time>
      </trkpt>
      <trkpt lat="42.356" lon="2.61276">
        <ele>817.717</ele>
        <time>2014-07-05T09:05:02Z</time>
      </trkpt>
      <trkpt lat="42.35594" lon="2.61251">
        <ele>820.107</ele>
        <time>2014-07-05T09:05:10Z</time>
      </trkpt>
      <trkpt lat="42.35593" lon="2.61245">
        <ele>819.262</ele>
        <time>2014-07-05T09:05:12Z</time>
      </trkpt>
      <trkpt lat="42.35586" lon="2.61236">
        <ele>820.117</ele>
        <time>2014-07-05T09:05:17Z</time>
      </trkpt>
      <trkpt lat="42.35577" lon="2.61245">
        <ele>821.119</ele>
        <time>2014-07-05T09:05:24Z</time>
      </trkpt>
      <trkpt lat="42.35582" lon="2.61272">
        <ele>823.57</ele>
        <time>2014-07-05T09:05:38Z</time>
      </trkpt>
      <trkpt lat="42.3558" lon="2.61295">
        <ele>825.969</ele>
        <time>2014-07-05T09:05:49Z</time>
      </trkpt>
      <trkpt lat="42.35579" lon="2.61309">
        <ele>826.938</ele>
        <time>2014-07-05T09:05:55Z</time>
      </trkpt>
      <trkpt lat="42.35575" lon="2.61326">
        <ele>828.381</ele>
        <time>2014-07-05T09:06:03Z</time>
      </trkpt>
      <trkpt lat="42.35574" lon="2.61333">
        <ele>829.343</ele>
        <time>2014-07-05T09:06:07Z</time>
      </trkpt>
      <trkpt lat="42.35572" lon="2.61345">
        <ele>830.264</ele>
        <time>2014-07-05T09:06:13Z</time>
      </trkpt>
      <trkpt lat="42.35568" lon="2.61361">
        <ele>831.71</ele>
        <time>2014-07-05T09:06:21Z</time>
      </trkpt>
      <trkpt lat="42.35556" lon="2.61398">
        <ele>834.107</ele>
        <time>2014-07-05T09:06:38Z</time>
      </trkpt>
      <trkpt lat="42.35532" lon="2.6141">
        <ele>835.011</ele>
        <time>2014-07-05T09:06:51Z</time>
      </trkpt>
      <trkpt lat="42.35527" lon="2.61411">
        <ele>835.546</ele>
        <time>2014-07-05T09:06:55Z</time>
      </trkpt>
      <trkpt lat="42.35522" lon="2.61414">
        <ele>835.518</ele>
        <time>2014-07-05T09:07:07Z</time>
      </trkpt>
      <trkpt lat="42.35522" lon="2.61415">
        <ele>835.579</ele>
        <time>2014-07-05T09:07:41Z</time>
      </trkpt>
      <trkpt lat="42.35513" lon="2.61414">
        <ele>835.038</ele>
        <time>2014-07-05T09:07:49Z</time>
      </trkpt>
      <trkpt lat="42.35486" lon="2.6144">
        <ele>835.517</ele>
        <time>2014-07-05T09:08:03Z</time>
      </trkpt>
      <trkpt lat="42.35473" lon="2.61469">
        <ele>836.53</ele>
        <time>2014-07-05T09:08:13Z</time>
      </trkpt>
      <trkpt lat="42.35448" lon="2.61495">
        <ele>837.541</ele>
        <time>2014-07-05T09:08:26Z</time>
      </trkpt>
      <trkpt lat="42.35417" lon="2.61511">
        <ele>837.981</ele>
        <time>2014-07-05T09:08:39Z</time>
      </trkpt>
      <trkpt lat="42.35378" lon="2.61531">
        <ele>837.509</ele>
        <time>2014-07-05T09:08:53Z</time>
      </trkpt>
      <trkpt lat="42.35327" lon="2.61539">
        <ele>837.007</ele>
        <time>2014-07-05T09:09:09Z</time>
      </trkpt>
      <trkpt lat="42.35281" lon="2.61515">
        <ele>835.551</ele>
        <time>2014-07-05T09:09:24Z</time>
      </trkpt>
      <trkpt lat="42.35264" lon="2.61496">
        <ele>833.696</ele>
        <time>2014-07-05T09:09:28Z</time>
      </trkpt>
      <trkpt lat="42.35247" lon="2.61471">
        <ele>830.758</ele>
        <time>2014-07-05T09:09:33Z</time>
      </trkpt>
      <trkpt lat="42.35238" lon="2.61458">
        <ele>828.889</ele>
        <time>2014-07-05T09:09:37Z</time>
      </trkpt>
      <trkpt lat="42.3523" lon="2.61451">
        <ele>827.898</ele>
        <time>2014-07-05T09:09:39Z</time>
      </trkpt>
      <trkpt lat="42.35211" lon="2.61441">
        <ele>825.477</ele>
        <time>2014-07-05T09:09:43Z</time>
      </trkpt>
      <trkpt lat="42.35195" lon="2.61429">
        <ele>823.58</ele>
        <time>2014-07-05T09:09:46Z</time>
      </trkpt>
      <trkpt lat="42.35172" lon="2.61424">
        <ele>821.168</ele>
        <time>2014-07-05T09:09:50Z</time>
      </trkpt>
      <trkpt lat="42.35159" lon="2.61427">
        <ele>820.142</ele>
        <time>2014-07-05T09:09:52Z</time>
      </trkpt>
      <trkpt lat="42.3514" lon="2.6142">
        <ele>817.726</ele>
        <time>2014-07-05T09:09:57Z</time>
      </trkpt>
      <trkpt lat="42.35135" lon="2.61418">
        <ele>818.207</ele>
        <time>2014-07-05T09:10:07Z</time>
      </trkpt>
      <trkpt lat="42.3513" lon="2.61415">
        <ele>817.373</ele>
        <time>2014-07-05T09:10:30Z</time>
      </trkpt>
      <trkpt lat="42.3513" lon="2.61415">
        <ele>817.368</ele>
        <time>2014-07-05T09:10:31Z</time>
      </trkpt>
      <trkpt lat="42.35132" lon="2.61416">
        <ele>817.33</ele>
        <time>2014-07-05T09:10:33Z</time>
      </trkpt>
      <trkpt lat="42.35141" lon="2.61425">
        <ele>819.261</ele>
        <time>2014-07-05T09:10:42Z</time>
      </trkpt>
      <trkpt lat="42.35147" lon="2.61428">
        <ele>820.17</ele>
        <time>2014-07-05T09:10:54Z</time>
      </trkpt>
      <trkpt lat="42.35158" lon="2.61426">
        <ele>820.679</ele>
        <time>2014-07-05T09:11:04Z</time>
      </trkpt>
      <trkpt lat="42.35163" lon="2.61424">
        <ele>821.672</ele>
        <time>2014-07-05T09:11:07Z</time>
      </trkpt>
      <trkpt lat="42.35176" lon="2.61426">
        <ele>823.037</ele>
        <time>2014-07-05T09:11:14Z</time>
      </trkpt>
      <trkpt lat="42.35177" lon="2.61427">
        <ele>823.049</ele>
        <time>2014-07-05T09:11:15Z</time>
      </trkpt>
      <trkpt lat="42.35185" lon="2.61431">
        <ele>824.513</ele>
        <time>2014-07-05T09:11:28Z</time>
      </trkpt>
      <trkpt lat="42.35198" lon="2.61437">
        <ele>825.007</ele>
        <time>2014-07-05T09:11:42Z</time>
      </trkpt>
      <trkpt lat="42.35218" lon="2.61449">
        <ele>827.47</ele>
        <time>2014-07-05T09:11:53Z</time>
      </trkpt>
      <trkpt lat="42.35219" lon="2.61451">
        <ele>827.815</ele>
        <time>2014-07-05T09:11:54Z</time>
      </trkpt>
      <trkpt lat="42.35238" lon="2.61463">
        <ele>829.867</ele>
        <time>2014-07-05T09:12:08Z</time>
      </trkpt>
      <trkpt lat="42.35247" lon="2.61477">
        <ele>831.798</ele>
        <time>2014-07-05T09:12:17Z</time>
      </trkpt>
      <trkpt lat="42.35249" lon="2.61483">
        <ele>832.297</ele>
        <time>2014-07-05T09:12:32Z</time>
      </trkpt>
      <trkpt lat="42.3525" lon="2.61483">
        <ele>832.256</ele>
        <time>2014-07-05T09:12:44Z</time>
      </trkpt>
      <trkpt lat="42.35245" lon="2.61465">
        <ele>831.799</ele>
        <time>2014-07-05T09:12:53Z</time>
      </trkpt>
      <trkpt lat="42.35244" lon="2.61453">
        <ele>831.733</ele>
        <time>2014-07-05T09:12:57Z</time>
      </trkpt>
      <trkpt lat="42.35213" lon="2.61432">
        <ele>831.223</ele>
        <time>2014-07-05T09:13:09Z</time>
      </trkpt>
      <trkpt lat="42.35177" lon="2.61402">
        <ele>829.315</ele>
        <time>2014-07-05T09:13:21Z</time>
      </trkpt>
      <trkpt lat="42.35154" lon="2.61364">
        <ele>827.807</ele>
        <time>2014-07-05T09:13:29Z</time>
      </trkpt>
      <trkpt lat="42.35155" lon="2.61351">
        <ele>827.42</ele>
        <time>2014-07-05T09:13:31Z</time>
      </trkpt>
      <trkpt lat="42.35162" lon="2.61331">
        <ele>826.935</ele>
        <time>2014-07-05T09:13:34Z</time>
      </trkpt>
      <trkpt lat="42.35177" lon="2.6129">
        <ele>825.097</ele>
        <time>2014-07-05T09:13:41Z</time>
      </trkpt>
      <trkpt lat="42.35166" lon="2.61253">
        <ele>824.038</ele>
        <time>2014-07-05T09:13:46Z</time>
      </trkpt>
      <trkpt lat="42.35162" lon="2.61224">
        <ele>823.567</ele>
        <time>2014-07-05T09:13:50Z</time>
      </trkpt>
      <trkpt lat="42.35148" lon="2.61202">
        <ele>822.116</ele>
        <time>2014-07-05T09:13:54Z</time>
      </trkpt>
      <trkpt lat="42.35121" lon="2.61184">
        <ele>820.169</ele>
        <time>2014-07-05T09:13:58Z</time>
      </trkpt>
      <trkpt lat="42.35077" lon="2.61141">
        <ele>817.733</ele>
        <time>2014-07-05T09:14:06Z</time>
      </trkpt>
      <trkpt lat="42.3507" lon="2.61122">
        <ele>817.723</ele>
        <time>2014-07-05T09:14:13Z</time>
      </trkpt>
      <trkpt lat="42.35068" lon="2.61121">
        <ele>817.315</ele>
        <time>2014-07-05T09:14:32Z</time>
      </trkpt>
      <trkpt lat="42.35068" lon="2.61123">
        <ele>816.807</ele>
        <time>2014-07-05T09:14:46Z</time>
      </trkpt>
      <trkpt lat="42.35069" lon="2.61123">
        <ele>816.37</ele>
        <time>2014-07-05T09:15:19Z</time>
      </trkpt>
      <trkpt lat="42.3507" lon="2.61123">
        <ele>816.335</ele>
        <time>2014-07-05T09:15:52Z</time>
      </trkpt>
      <trkpt lat="42.3507" lon="2.61122">
        <ele>816.327</ele>
        <time>2014-07-05T09:16:27Z</time>
      </trkpt>
      <trkpt lat="42.3507" lon="2.61122">
        <ele>816.348</ele>
        <time>2014-07-05T09:16:51Z</time>
      </trkpt>
      <trkpt lat="42.3507" lon="2.61122">
        <ele>816.377</ele>
        <time>2014-07-05T09:16:54Z</time>
      </trkpt>
      <trkpt lat="42.3507" lon="2.61123">
        <ele>816.846</ele>
        <time>2014-07-05T09:17:11Z</time>
      </trkpt>
      <trkpt lat="42.35069" lon="2.61123">
        <ele>816.839</ele>
        <time>2014-07-05T09:17:37Z</time>
      </trkpt>
      <trkpt lat="42.35069" lon="2.61123">
        <ele>816.899</ele>
        <time>2014-07-05T09:18:00Z</time>
      </trkpt>
      <trkpt lat="42.35073" lon="2.61121">
        <ele>815.807</ele>
        <time>2014-07-05T09:18:15Z</time>
      </trkpt>
      <trkpt lat="42.35073" lon="2.61119">
        <ele>815.827</ele>
        <time>2014-07-05T09:18:40Z</time>
      </trkpt>
      <trkpt lat="42.35074" lon="2.6112">
        <ele>815.807</ele>
        <time>2014-07-05T09:19:11Z</time>
      </trkpt>
      <trkpt lat="42.35074" lon="2.61119">
        <ele>815.846</ele>
        <time>2014-07-05T09:19:36Z</time>
      </trkpt>
      <trkpt lat="42.35074" lon="2.61118">
        <ele>816.371</ele>
        <time>2014-07-05T09:20:06Z</time>
      </trkpt>
      <trkpt lat="42.35087" lon="2.61101">
        <ele>814.443</ele>
        <time>2014-07-05T09:20:15Z</time>
      </trkpt>
      <trkpt lat="42.35097" lon="2.61086">
        <ele>813.494</ele>
        <time>2014-07-05T09:20:19Z</time>
      </trkpt>
      <trkpt lat="42.35113" lon="2.61067">
        <ele>811.593</ele>
        <time>2014-07-05T09:20:24Z</time>
      </trkpt>
      <trkpt lat="42.35129" lon="2.61069">
        <ele>810.542</ele>
        <time>2014-07-05T09:20:28Z</time>
      </trkpt>
      <trkpt lat="42.35145" lon="2.61063">
        <ele>809.125</ele>
        <time>2014-07-05T09:20:32Z</time>
      </trkpt>
      <trkpt lat="42.35152" lon="2.6105">
        <ele>808.113</ele>
        <time>2014-07-05T09:20:34Z</time>
      </trkpt>
      <trkpt lat="42.35194" lon="2.61018">
        <ele>803.843</ele>
        <time>2014-07-05T09:20:42Z</time>
      </trkpt>
      <trkpt lat="42.35204" lon="2.61005">
        <ele>801.907</ele>
        <time>2014-07-05T09:20:45Z</time>
      </trkpt>
      <trkpt lat="42.35207" lon="2.60975">
        <ele>799.507</ele>
        <time>2014-07-05T09:20:48Z</time>
      </trkpt>
      <trkpt lat="42.35203" lon="2.60905">
        <ele>796.118</ele>
        <time>2014-07-05T09:20:54Z</time>
      </trkpt>
      <trkpt lat="42.35181" lon="2.60836">
        <ele>790.893</ele>
        <time>2014-07-05T09:21:00Z</time>
      </trkpt>
      <trkpt lat="42.35184" lon="2.6079">
        <ele>786.535</ele>
        <time>2014-07-05T09:21:05Z</time>
      </trkpt>
      <trkpt lat="42.352" lon="2.6076">
        <ele>785.116</ele>
        <time>2014-07-05T09:21:09Z</time>
      </trkpt>
      <trkpt lat="42.35213" lon="2.60741">
        <ele>784.695</ele>
        <time>2014-07-05T09:21:12Z</time>
      </trkpt>
      <trkpt lat="42.3521" lon="2.60692">
        <ele>783.124</ele>
        <time>2014-07-05T09:21:19Z</time>
      </trkpt>
      <trkpt lat="42.35202" lon="2.60668">
        <ele>781.297</ele>
        <time>2014-07-05T09:21:22Z</time>
      </trkpt>
      <trkpt lat="42.35188" lon="2.60637">
        <ele>778.363</ele>
        <time>2014-07-05T09:21:26Z</time>
      </trkpt>
      <trkpt lat="42.35184" lon="2.60609">
        <ele>775.044</ele>
        <time>2014-07-05T09:21:30Z</time>
      </trkpt>
      <trkpt lat="42.35179" lon="2.60596">
        <ele>773.018</ele>
        <time>2014-07-05T09:21:32Z</time>
      </trkpt>
      <trkpt lat="42.3515" lon="2.60577">
        <ele>769.207</ele>
        <time>2014-07-05T09:21:37Z</time>
      </trkpt>
      <trkpt lat="42.35138" lon="2.6058">
        <ele>767.863</ele>
        <time>2014-07-05T09:21:39Z</time>
      </trkpt>
      <trkpt lat="42.35109" lon="2.6059">
        <ele>764.498</ele>
        <time>2014-07-05T09:21:43Z</time>
      </trkpt>
      <trkpt lat="42.35094" lon="2.60579">
        <ele>761.56</ele>
        <time>2014-07-05T09:21:48Z</time>
      </trkpt>
      <trkpt lat="42.35091" lon="2.60544">
        <ele>759.181</ele>
        <time>2014-07-05T09:21:53Z</time>
      </trkpt>
      <trkpt lat="42.35087" lon="2.60494">
        <ele>755.72</ele>
        <time>2014-07-05T09:21:59Z</time>
      </trkpt>
      <trkpt lat="42.35091" lon="2.60444">
        <ele>751.959</ele>
        <time>2014-07-05T09:22:05Z</time>
      </trkpt>
      <trkpt lat="42.35089" lon="2.60402">
        <ele>749.062</ele>
        <time>2014-07-05T09:22:10Z</time>
      </trkpt>
      <trkpt lat="42.35087" lon="2.6036">
        <ele>744.785</ele>
        <time>2014-07-05T09:22:14Z</time>
      </trkpt>
      <trkpt lat="42.3509" lon="2.60321">
        <ele>741.889</ele>
        <time>2014-07-05T09:22:18Z</time>
      </trkpt>
      <trkpt lat="42.35096" lon="2.60294">
        <ele>739.917</ele>
        <time>2014-07-05T09:22:21Z</time>
      </trkpt>
      <trkpt lat="42.35102" lon="2.60276">
        <ele>738.007</ele>
        <time>2014-07-05T09:22:23Z</time>
      </trkpt>
      <trkpt lat="42.351" lon="2.60247">
        <ele>734.675</ele>
        <time>2014-07-05T09:22:30Z</time>
      </trkpt>
      <trkpt lat="42.35095" lon="2.60236">
        <ele>733.67</ele>
        <time>2014-07-05T09:22:36Z</time>
      </trkpt>
      <trkpt lat="42.3507" lon="2.60206">
        <ele>730.362</ele>
        <time>2014-07-05T09:22:48Z</time>
      </trkpt>
      <trkpt lat="42.35068" lon="2.60203">
        <ele>730.353</ele>
        <time>2014-07-05T09:22:49Z</time>
      </trkpt>
      <trkpt lat="42.35056" lon="2.60192">
        <ele>729.312</ele>
        <time>2014-07-05T09:23:01Z</time>
      </trkpt>
      <trkpt lat="42.35054" lon="2.60191">
        <ele>729.391</ele>
        <time>2014-07-05T09:23:10Z</time>
      </trkpt>
      <trkpt lat="42.35053" lon="2.60189">
        <ele>728.874</ele>
        <time>2014-07-05T09:23:12Z</time>
      </trkpt>
      <trkpt lat="42.35048" lon="2.60189">
        <ele>730.362</ele>
        <time>2014-07-05T09:23:18Z</time>
      </trkpt>
      <trkpt lat="42.3504" lon="2.60185">
        <ele>728.883</ele>
        <time>2014-07-05T09:23:25Z</time>
      </trkpt>
      <trkpt lat="42.35036" lon="2.60173">
        <ele>728.811</ele>
        <time>2014-07-05T09:23:38Z</time>
      </trkpt>
      <trkpt lat="42.35034" lon="2.60171">
        <ele>728.807</ele>
        <time>2014-07-05T09:23:54Z</time>
      </trkpt>
      <trkpt lat="42.35034" lon="2.60171">
        <ele>728.843</ele>
        <time>2014-07-05T09:24:04Z</time>
      </trkpt>
      <trkpt lat="42.3503" lon="2.6015">
        <ele>727.938</ele>
        <time>2014-07-05T09:24:11Z</time>
      </trkpt>
      <trkpt lat="42.3503" lon="2.60141">
        <ele>727.42</ele>
        <time>2014-07-05T09:24:13Z</time>
      </trkpt>
      <trkpt lat="42.35025" lon="2.60085">
        <ele>723.581</ele>
        <time>2014-07-05T09:24:24Z</time>
      </trkpt>
      <trkpt lat="42.35025" lon="2.60075">
        <ele>723.11</ele>
        <time>2014-07-05T09:24:26Z</time>
      </trkpt>
      <trkpt lat="42.35026" lon="2.60067">
        <ele>722.189</ele>
        <time>2014-07-05T09:24:29Z</time>
      </trkpt>
      <trkpt lat="42.35024" lon="2.60055">
        <ele>721.652</ele>
        <time>2014-07-05T09:24:41Z</time>
      </trkpt>
      <trkpt lat="42.35025" lon="2.60046">
        <ele>721.119</ele>
        <time>2014-07-05T09:24:55Z</time>
      </trkpt>
      <trkpt lat="42.35027" lon="2.60044">
        <ele>723.509</ele>
        <time>2014-07-05T09:25:04Z</time>
      </trkpt>
      <trkpt lat="42.35025" lon="2.60039">
        <ele>724.519</ele>
        <time>2014-07-05T09:25:13Z</time>
      </trkpt>
      <trkpt lat="42.35021" lon="2.60029">
        <ele>725.507</ele>
        <time>2014-07-05T09:25:26Z</time>
      </trkpt>
      <trkpt lat="42.3502" lon="2.60026">
        <ele>725.938</ele>
        <time>2014-07-05T09:25:28Z</time>
      </trkpt>
      <trkpt lat="42.35019" lon="2.6001">
        <ele>726.413</ele>
        <time>2014-07-05T09:25:39Z</time>
      </trkpt>
      <trkpt lat="42.35018" lon="2.60001">
        <ele>726.445</ele>
        <time>2014-07-05T09:25:49Z</time>
      </trkpt>
      <trkpt lat="42.35014" lon="2.59983">
        <ele>725.056</ele>
        <time>2014-07-05T09:25:56Z</time>
      </trkpt>
      <trkpt lat="42.35015" lon="2.5997">
        <ele>726.465</ele>
        <time>2014-07-05T09:26:08Z</time>
      </trkpt>
      <trkpt lat="42.35016" lon="2.59968">
        <ele>726.424</ele>
        <time>2014-07-05T09:26:25Z</time>
      </trkpt>
      <trkpt lat="42.35018" lon="2.59962">
        <ele>727.477</ele>
        <time>2014-07-05T09:26:40Z</time>
      </trkpt>
      <trkpt lat="42.35021" lon="2.59959">
        <ele>728.836</ele>
        <time>2014-07-05T09:26:52Z</time>
      </trkpt>
      <trkpt lat="42.35023" lon="2.59949">
        <ele>730.317</ele>
        <time>2014-07-05T09:27:05Z</time>
      </trkpt>
      <trkpt lat="42.35024" lon="2.59942">
        <ele>730.718</ele>
        <time>2014-07-05T09:27:11Z</time>
      </trkpt>
      <trkpt lat="42.35026" lon="2.59924">
        <ele>731.707</ele>
        <time>2014-07-05T09:27:19Z</time>
      </trkpt>
      <trkpt lat="42.35027" lon="2.5992">
        <ele>730.71</ele>
        <time>2014-07-05T09:27:21Z</time>
      </trkpt>
      <trkpt lat="42.35018" lon="2.59895">
        <ele>731.215</ele>
        <time>2014-07-05T09:27:33Z</time>
      </trkpt>
      <trkpt lat="42.35017" lon="2.59892">
        <ele>730.747</ele>
        <time>2014-07-05T09:27:34Z</time>
      </trkpt>
      <trkpt lat="42.35008" lon="2.59877">
        <ele>729.878</ele>
        <time>2014-07-05T09:27:39Z</time>
      </trkpt>
      <trkpt lat="42.34992" lon="2.59847">
        <ele>728.367</ele>
        <time>2014-07-05T09:27:49Z</time>
      </trkpt>
      <trkpt lat="42.34974" lon="2.59814">
        <ele>726.926</ele>
        <time>2014-07-05T09:27:58Z</time>
      </trkpt>
      <trkpt lat="42.3497" lon="2.59768">
        <ele>724.599</ele>
        <time>2014-07-05T09:28:04Z</time>
      </trkpt>
      <trkpt lat="42.34974" lon="2.59752">
        <ele>723.542</ele>
        <time>2014-07-05T09:28:06Z</time>
      </trkpt>
      <trkpt lat="42.34976" lon="2.59737">
        <ele>722.122</ele>
        <time>2014-07-05T09:28:08Z</time>
      </trkpt>
      <trkpt lat="42.34977" lon="2.59721">
        <ele>721.614</ele>
        <time>2014-07-05T09:28:10Z</time>
      </trkpt>
      <trkpt lat="42.34964" lon="2.597">
        <ele>719.707</ele>
        <time>2014-07-05T09:28:17Z</time>
      </trkpt>
      <trkpt lat="42.34959" lon="2.59702">
        <ele>720.291</ele>
        <time>2014-07-05T09:28:20Z</time>
      </trkpt>
      <trkpt lat="42.3494" lon="2.59733">
        <ele>722.116</ele>
        <time>2014-07-05T09:28:32Z</time>
      </trkpt>
      <trkpt lat="42.3492" lon="2.59755">
        <ele>723.158</ele>
        <time>2014-07-05T09:28:42Z</time>
      </trkpt>
      <trkpt lat="42.349" lon="2.59777">
        <ele>724.049</ele>
        <time>2014-07-05T09:28:54Z</time>
      </trkpt>
      <trkpt lat="42.34885" lon="2.5982">
        <ele>725.588</ele>
        <time>2014-07-05T09:29:09Z</time>
      </trkpt>
      <trkpt lat="42.34879" lon="2.59839">
        <ele>728.347</ele>
        <time>2014-07-05T09:29:20Z</time>
      </trkpt>
      <trkpt lat="42.34878" lon="2.59842">
        <ele>727.92</ele>
        <time>2014-07-05T09:29:23Z</time>
      </trkpt>
      <trkpt lat="42.34877" lon="2.5987">
        <ele>729.371</ele>
        <time>2014-07-05T09:29:34Z</time>
      </trkpt>
      <trkpt lat="42.34872" lon="2.599">
        <ele>730.741</ele>
        <time>2014-07-05T09:29:47Z</time>
      </trkpt>
      <trkpt lat="42.34858" lon="2.59952">
        <ele>731.715</ele>
        <time>2014-07-05T09:30:00Z</time>
      </trkpt>
      <trkpt lat="42.34843" lon="2.60003">
        <ele>733.107</ele>
        <time>2014-07-05T09:30:16Z</time>
      </trkpt>
      <trkpt lat="42.34843" lon="2.60006">
        <ele>733.114</ele>
        <time>2014-07-05T09:30:17Z</time>
      </trkpt>
      <trkpt lat="42.34845" lon="2.60021">
        <ele>733.129</ele>
        <time>2014-07-05T09:30:21Z</time>
      </trkpt>
      <trkpt lat="42.34849" lon="2.60045">
        <ele>733.671</ele>
        <time>2014-07-05T09:30:28Z</time>
      </trkpt>
      <trkpt lat="42.34854" lon="2.60086">
        <ele>735.142</ele>
        <time>2014-07-05T09:30:41Z</time>
      </trkpt>
      <trkpt lat="42.34854" lon="2.60091">
        <ele>735.621</ele>
        <time>2014-07-05T09:30:43Z</time>
      </trkpt>
      <trkpt lat="42.34853" lon="2.60128">
        <ele>737.04</ele>
        <time>2014-07-05T09:30:56Z</time>
      </trkpt>
      <trkpt lat="42.34855" lon="2.60173">
        <ele>738.983</ele>
        <time>2014-07-05T09:31:09Z</time>
      </trkpt>
      <trkpt lat="42.34854" lon="2.60209">
        <ele>740.477</ele>
        <time>2014-07-05T09:31:20Z</time>
      </trkpt>
      <trkpt lat="42.34846" lon="2.60241">
        <ele>740.461</ele>
        <time>2014-07-05T09:31:32Z</time>
      </trkpt>
      <trkpt lat="42.34839" lon="2.60277">
        <ele>739.927</ele>
        <time>2014-07-05T09:31:41Z</time>
      </trkpt>
      <trkpt lat="42.34832" lon="2.60287">
        <ele>738.907</ele>
        <time>2014-07-05T09:31:44Z</time>
      </trkpt>
      <trkpt lat="42.34828" lon="2.60297">
        <ele>738.494</ele>
        <time>2014-07-05T09:31:46Z</time>
      </trkpt>
      <trkpt lat="42.34822" lon="2.60328">
        <ele>738.019</ele>
        <time>2014-07-05T09:31:49Z</time>
      </trkpt>
      <trkpt lat="42.34811" lon="2.60381">
        <ele>737.061</ele>
        <time>2014-07-05T09:31:57Z</time>
      </trkpt>
      <trkpt lat="42.34783" lon="2.60423">
        <ele>737.052</ele>
        <time>2014-07-05T09:32:05Z</time>
      </trkpt>
      <trkpt lat="42.34769" lon="2.60438">
        <ele>736.571</ele>
        <time>2014-07-05T09:32:08Z</time>
      </trkpt>
      <trkpt lat="42.34762" lon="2.60447">
        <ele>736.58</ele>
        <time>2014-07-05T09:32:10Z</time>
      </trkpt>
      <trkpt lat="42.34752" lon="2.6047">
        <ele>736.073</ele>
        <time>2014-07-05T09:32:14Z</time>
      </trkpt>
      <trkpt lat="42.34751" lon="2.60476">
        <ele>736.057</ele>
        <time>2014-07-05T09:32:15Z</time>
      </trkpt>
      <trkpt lat="42.34747" lon="2.60491">
        <ele>736</ele>
        <time>2014-07-05T09:32:18Z</time>
      </trkpt>
      <trkpt lat="42.34739" lon="2.60507">
        <ele>736.52</ele>
        <time>2014-07-05T09:32:21Z</time>
      </trkpt>
      <trkpt lat="42.34735" lon="2.60532">
        <ele>736.007</ele>
        <time>2014-07-05T09:32:25Z</time>
      </trkpt>
      <trkpt lat="42.34733" lon="2.60553">
        <ele>735.662</ele>
        <time>2014-07-05T09:32:29Z</time>
      </trkpt>
      <trkpt lat="42.34726" lon="2.6059">
        <ele>735.637</ele>
        <time>2014-07-05T09:32:35Z</time>
      </trkpt>
      <trkpt lat="42.34705" lon="2.60622">
        <ele>736.099</ele>
        <time>2014-07-05T09:32:42Z</time>
      </trkpt>
      <trkpt lat="42.34676" lon="2.6062">
        <ele>738.46</ele>
        <time>2014-07-05T09:32:51Z</time>
      </trkpt>
      <trkpt lat="42.34668" lon="2.60612">
        <ele>738.949</ele>
        <time>2014-07-05T09:32:55Z</time>
      </trkpt>
      <trkpt lat="42.34661" lon="2.606">
        <ele>739.978</ele>
        <time>2014-07-05T09:32:59Z</time>
      </trkpt>
      <trkpt lat="42.34633" lon="2.60585">
        <ele>742.391</ele>
        <time>2014-07-05T09:33:13Z</time>
      </trkpt>
      <trkpt lat="42.34616" lon="2.60589">
        <ele>745.287</ele>
        <time>2014-07-05T09:33:22Z</time>
      </trkpt>
      <trkpt lat="42.34591" lon="2.60591">
        <ele>746.642</ele>
        <time>2014-07-05T09:33:36Z</time>
      </trkpt>
      <trkpt lat="42.34567" lon="2.60588">
        <ele>749.526</ele>
        <time>2014-07-05T09:33:48Z</time>
      </trkpt>
      <trkpt lat="42.34553" lon="2.60555">
        <ele>749.507</ele>
        <time>2014-07-05T09:34:00Z</time>
      </trkpt>
      <trkpt lat="42.34552" lon="2.60545">
        <ele>749.085</ele>
        <time>2014-07-05T09:34:02Z</time>
      </trkpt>
      <trkpt lat="42.34548" lon="2.60527">
        <ele>748.58</ele>
        <time>2014-07-05T09:34:05Z</time>
      </trkpt>
      <trkpt lat="42.34543" lon="2.60515">
        <ele>747.652</ele>
        <time>2014-07-05T09:34:07Z</time>
      </trkpt>
      <trkpt lat="42.34507" lon="2.60472">
        <ele>744.773</ele>
        <time>2014-07-05T09:34:15Z</time>
      </trkpt>
      <trkpt lat="42.34483" lon="2.60499">
        <ele>742.832</ele>
        <time>2014-07-05T09:34:20Z</time>
      </trkpt>
      <trkpt lat="42.34468" lon="2.60547">
        <ele>740.851</ele>
        <time>2014-07-05T09:34:26Z</time>
      </trkpt>
      <trkpt lat="42.3445" lon="2.60572">
        <ele>738.974</ele>
        <time>2014-07-05T09:34:30Z</time>
      </trkpt>
      <trkpt lat="42.34436" lon="2.60619">
        <ele>736.538</ele>
        <time>2014-07-05T09:34:36Z</time>
      </trkpt>
      <trkpt lat="42.3445" lon="2.60694">
        <ele>733.17</ele>
        <time>2014-07-05T09:34:43Z</time>
      </trkpt>
      <trkpt lat="42.34442" lon="2.60751">
        <ele>731.217</ele>
        <time>2014-07-05T09:34:49Z</time>
      </trkpt>
      <trkpt lat="42.34422" lon="2.60781">
        <ele>729.807</ele>
        <time>2014-07-05T09:34:54Z</time>
      </trkpt>
      <trkpt lat="42.34424" lon="2.60818">
        <ele>731.26</ele>
        <time>2014-07-05T09:35:01Z</time>
      </trkpt>
      <trkpt lat="42.3443" lon="2.60839">
        <ele>732.235</ele>
        <time>2014-07-05T09:35:05Z</time>
      </trkpt>
      <trkpt lat="42.34449" lon="2.60887">
        <ele>735.177</ele>
        <time>2014-07-05T09:35:17Z</time>
      </trkpt>
      <trkpt lat="42.34464" lon="2.60917">
        <ele>737.038</ele>
        <time>2014-07-05T09:35:27Z</time>
      </trkpt>
      <trkpt lat="42.34474" lon="2.60953">
        <ele>738.437</ele>
        <time>2014-07-05T09:35:38Z</time>
      </trkpt>
      <trkpt lat="42.34478" lon="2.60981">
        <ele>738.416</ele>
        <time>2014-07-05T09:35:47Z</time>
      </trkpt>
      <trkpt lat="42.34474" lon="2.61022">
        <ele>739.449</ele>
        <time>2014-07-05T09:35:59Z</time>
      </trkpt>
      <trkpt lat="42.34468" lon="2.61068">
        <ele>740.452</ele>
        <time>2014-07-05T09:36:10Z</time>
      </trkpt>
      <trkpt lat="42.34464" lon="2.61106">
        <ele>740.853</ele>
        <time>2014-07-05T09:36:20Z</time>
      </trkpt>
      <trkpt lat="42.34445" lon="2.61141">
        <ele>741.308</ele>
        <time>2014-07-05T09:36:30Z</time>
      </trkpt>
      <trkpt lat="42.3442" lon="2.61166">
        <ele>740.807</ele>
        <time>2014-07-05T09:36:38Z</time>
      </trkpt>
      <trkpt lat="42.34406" lon="2.61168">
        <ele>740.482</ele>
        <time>2014-07-05T09:36:42Z</time>
      </trkpt>
      <trkpt lat="42.3439" lon="2.61172">
        <ele>740.477</ele>
        <time>2014-07-05T09:36:47Z</time>
      </trkpt>
      <trkpt lat="42.34382" lon="2.61187">
        <ele>740.459</ele>
        <time>2014-07-05T09:36:51Z</time>
      </trkpt>
      <trkpt lat="42.34378" lon="2.61213">
        <ele>742.39</ele>
        <time>2014-07-05T09:37:00Z</time>
      </trkpt>
      <trkpt lat="42.34384" lon="2.61239">
        <ele>744.729</ele>
        <time>2014-07-05T09:37:11Z</time>
      </trkpt>
      <trkpt lat="42.34399" lon="2.61269">
        <ele>746.678</ele>
        <time>2014-07-05T09:37:22Z</time>
      </trkpt>
      <trkpt lat="42.34402" lon="2.61281">
        <ele>748.041</ele>
        <time>2014-07-05T09:37:26Z</time>
      </trkpt>
      <trkpt lat="42.34401" lon="2.61327">
        <ele>750.526</ele>
        <time>2014-07-05T09:37:40Z</time>
      </trkpt>
      <trkpt lat="42.34401" lon="2.61373">
        <ele>752.447</ele>
        <time>2014-07-05T09:37:52Z</time>
      </trkpt>
      <trkpt lat="42.34403" lon="2.6141">
        <ele>754.811</ele>
        <time>2014-07-05T09:38:05Z</time>
      </trkpt>
      <trkpt lat="42.34403" lon="2.61422">
        <ele>755.307</ele>
        <time>2014-07-05T09:38:10Z</time>
      </trkpt>
      <trkpt lat="42.34393" lon="2.61454">
        <ele>756.789</ele>
        <time>2014-07-05T09:38:21Z</time>
      </trkpt>
      <trkpt lat="42.34378" lon="2.61461">
        <ele>756.244</ele>
        <time>2014-07-05T09:38:26Z</time>
      </trkpt>
      <trkpt lat="42.3437" lon="2.61461">
        <ele>755.766</ele>
        <time>2014-07-05T09:38:28Z</time>
      </trkpt>
      <trkpt lat="42.34356" lon="2.61455">
        <ele>754.857</ele>
        <time>2014-07-05T09:38:31Z</time>
      </trkpt>
      <trkpt lat="42.34338" lon="2.6145">
        <ele>753.316</ele>
        <time>2014-07-05T09:38:34Z</time>
      </trkpt>
      <trkpt lat="42.34314" lon="2.61439">
        <ele>750.995</ele>
        <time>2014-07-05T09:38:38Z</time>
      </trkpt>
      <trkpt lat="42.34296" lon="2.61424">
        <ele>750.038</ele>
        <time>2014-07-05T09:38:41Z</time>
      </trkpt>
      <trkpt lat="42.34273" lon="2.61416">
        <ele>748.055</ele>
        <time>2014-07-05T09:38:44Z</time>
      </trkpt>
      <trkpt lat="42.34239" lon="2.6141">
        <ele>745.607</ele>
        <time>2014-07-05T09:38:48Z</time>
      </trkpt>
      <trkpt lat="42.34204" lon="2.61426">
        <ele>742.817</ele>
        <time>2014-07-05T09:38:54Z</time>
      </trkpt>
      <trkpt lat="42.34177" lon="2.61472">
        <ele>738.907</ele>
        <time>2014-07-05T09:39:00Z</time>
      </trkpt>
      <trkpt lat="42.34172" lon="2.61485">
        <ele>738.462</ele>
        <time>2014-07-05T09:39:01Z</time>
      </trkpt>
      <trkpt lat="42.34163" lon="2.61502">
        <ele>737.567</ele>
        <time>2014-07-05T09:39:03Z</time>
      </trkpt>
      <trkpt lat="42.34154" lon="2.61512">
        <ele>737.049</ele>
        <time>2014-07-05T09:39:04Z</time>
      </trkpt>
      <trkpt lat="42.34133" lon="2.61552">
        <ele>734.66</ele>
        <time>2014-07-05T09:39:08Z</time>
      </trkpt>
      <trkpt lat="42.34124" lon="2.61573">
        <ele>733.149</ele>
        <time>2014-07-05T09:39:10Z</time>
      </trkpt>
      <trkpt lat="42.34102" lon="2.61613">
        <ele>731.228</ele>
        <time>2014-07-05T09:39:14Z</time>
      </trkpt>
      <trkpt lat="42.34084" lon="2.617">
        <ele>727.921</ele>
        <time>2014-07-05T09:39:22Z</time>
      </trkpt>
      <trkpt lat="42.34082" lon="2.6178">
        <ele>725.036</ele>
        <time>2014-07-05T09:39:30Z</time>
      </trkpt>
      <trkpt lat="42.34083" lon="2.61785">
        <ele>725.017</ele>
        <time>2014-07-05T09:39:31Z</time>
      </trkpt>
      <trkpt lat="42.34075" lon="2.61796">
        <ele>723.518</ele>
        <time>2014-07-05T09:39:36Z</time>
      </trkpt>
      <trkpt lat="42.34062" lon="2.61786">
        <ele>722.607</ele>
        <time>2014-07-05T09:39:39Z</time>
      </trkpt>
      <trkpt lat="42.34039" lon="2.61784">
        <ele>721.64</ele>
        <time>2014-07-05T09:39:43Z</time>
      </trkpt>
      <trkpt lat="42.34028" lon="2.61787">
        <ele>720.215</ele>
        <time>2014-07-05T09:39:45Z</time>
      </trkpt>
      <trkpt lat="42.34006" lon="2.61809">
        <ele>717.817</ele>
        <time>2014-07-05T09:39:50Z</time>
      </trkpt>
      <trkpt lat="42.33987" lon="2.6184">
        <ele>715.428</ele>
        <time>2014-07-05T09:39:54Z</time>
      </trkpt>
      <trkpt lat="42.33958" lon="2.61877">
        <ele>712.577</ele>
        <time>2014-07-05T09:39:59Z</time>
      </trkpt>
      <trkpt lat="42.33949" lon="2.61918">
        <ele>711.566</ele>
        <time>2014-07-05T09:40:06Z</time>
      </trkpt>
      <trkpt lat="42.33949" lon="2.61939">
        <ele>710.149</ele>
        <time>2014-07-05T09:40:09Z</time>
      </trkpt>
      <trkpt lat="42.33955" lon="2.61972">
        <ele>708.643</ele>
        <time>2014-07-05T09:40:14Z</time>
      </trkpt>
      <trkpt lat="42.33971" lon="2.62002">
        <ele>706.764</ele>
        <time>2014-07-05T09:40:19Z</time>
      </trkpt>
      <trkpt lat="42.34004" lon="2.62058">
        <ele>702.41</ele>
        <time>2014-07-05T09:40:26Z</time>
      </trkpt>
      <trkpt lat="42.34018" lon="2.62081">
        <ele>700.507</ele>
        <time>2014-07-05T09:40:29Z</time>
      </trkpt>
      <trkpt lat="42.34025" lon="2.62091">
        <ele>699.511</ele>
        <time>2014-07-05T09:40:31Z</time>
      </trkpt>
      <trkpt lat="42.34027" lon="2.6211">
        <ele>697.156</ele>
        <time>2014-07-05T09:40:34Z</time>
      </trkpt>
      <trkpt lat="42.34023" lon="2.62137">
        <ele>695.738</ele>
        <time>2014-07-05T09:40:38Z</time>
      </trkpt>
      <trkpt lat="42.34011" lon="2.62155">
        <ele>694.289</ele>
        <time>2014-07-05T09:40:41Z</time>
      </trkpt>
      <trkpt lat="42.34006" lon="2.62167">
        <ele>693.348</ele>
        <time>2014-07-05T09:40:43Z</time>
      </trkpt>
      <trkpt lat="42.34" lon="2.6219">
        <ele>691.867</ele>
        <time>2014-07-05T09:40:48Z</time>
      </trkpt>
      <trkpt lat="42.34001" lon="2.62196">
        <ele>691.85</ele>
        <time>2014-07-05T09:40:49Z</time>
      </trkpt>
      <trkpt lat="42.34006" lon="2.62209">
        <ele>691.372</ele>
        <time>2014-07-05T09:40:51Z</time>
      </trkpt>
      <trkpt lat="42.34047" lon="2.62244">
        <ele>690.813</ele>
        <time>2014-07-05T09:41:01Z</time>
      </trkpt>
      <trkpt lat="42.34087" lon="2.62248">
        <ele>692.814</ele>
        <time>2014-07-05T09:41:11Z</time>
      </trkpt>
      <trkpt lat="42.34121" lon="2.62253">
        <ele>693.307</ele>
        <time>2014-07-05T09:41:22Z</time>
      </trkpt>
      <trkpt lat="42.3416" lon="2.62275">
        <ele>693.314</ele>
        <time>2014-07-05T09:41:35Z</time>
      </trkpt>
      <trkpt lat="42.34172" lon="2.62319">
        <ele>692.899</ele>
        <time>2014-07-05T09:41:46Z</time>
      </trkpt>
      <trkpt lat="42.34175" lon="2.62355">
        <ele>691.871</ele>
        <time>2014-07-05T09:41:55Z</time>
      </trkpt>
      <trkpt lat="42.34199" lon="2.6239">
        <ele>691.812</ele>
        <time>2014-07-05T09:42:04Z</time>
      </trkpt>
      <trkpt lat="42.34222" lon="2.6242">
        <ele>690.811</ele>
        <time>2014-07-05T09:42:14Z</time>
      </trkpt>
      <trkpt lat="42.34254" lon="2.62439">
        <ele>690.48</ele>
        <time>2014-07-05T09:42:23Z</time>
      </trkpt>
      <trkpt lat="42.34274" lon="2.62454">
        <ele>689.483</ele>
        <time>2014-07-05T09:42:28Z</time>
      </trkpt>
      <trkpt lat="42.34278" lon="2.62457">
        <ele>688.959</ele>
        <time>2014-07-05T09:42:29Z</time>
      </trkpt>
      <trkpt lat="42.34289" lon="2.62482">
        <ele>688.003</ele>
        <time>2014-07-05T09:42:34Z</time>
      </trkpt>
      <trkpt lat="42.34294" lon="2.62495">
        <ele>687.523</ele>
        <time>2014-07-05T09:42:36Z</time>
      </trkpt>
      <trkpt lat="42.34325" lon="2.62556">
        <ele>686.007</ele>
        <time>2014-07-05T09:42:47Z</time>
      </trkpt>
      <trkpt lat="42.34331" lon="2.62588">
        <ele>685.672</ele>
        <time>2014-07-05T09:42:53Z</time>
      </trkpt>
      <trkpt lat="42.34332" lon="2.62612">
        <ele>684.647</ele>
        <time>2014-07-05T09:42:57Z</time>
      </trkpt>
      <trkpt lat="42.34332" lon="2.62645">
        <ele>684.129</ele>
        <time>2014-07-05T09:43:01Z</time>
      </trkpt>
      <trkpt lat="42.34332" lon="2.62677">
        <ele>683.63</ele>
        <time>2014-07-05T09:43:05Z</time>
      </trkpt>
      <trkpt lat="42.34329" lon="2.62689">
        <ele>683.259</ele>
        <time>2014-07-05T09:43:07Z</time>
      </trkpt>
      <trkpt lat="42.34326" lon="2.62779">
        <ele>679.848</ele>
        <time>2014-07-05T09:43:19Z</time>
      </trkpt>
      <trkpt lat="42.34327" lon="2.62864">
        <ele>676.931</ele>
        <time>2014-07-05T09:43:28Z</time>
      </trkpt>
      <trkpt lat="42.34326" lon="2.62885">
        <ele>676.483</ele>
        <time>2014-07-05T09:43:30Z</time>
      </trkpt>
      <trkpt lat="42.34327" lon="2.62926">
        <ele>675.025</ele>
        <time>2014-07-05T09:43:34Z</time>
      </trkpt>
      <trkpt lat="42.34328" lon="2.62992">
        <ele>673.117</ele>
        <time>2014-07-05T09:43:40Z</time>
      </trkpt>
      <trkpt lat="42.34328" lon="2.63023">
        <ele>671.107</ele>
        <time>2014-07-05T09:43:44Z</time>
      </trkpt>
      <trkpt lat="42.34314" lon="2.63015">
        <ele>669.245</ele>
        <time>2014-07-05T09:43:48Z</time>
      </trkpt>
      <trkpt lat="42.34314" lon="2.6298">
        <ele>667.32</ele>
        <time>2014-07-05T09:43:52Z</time>
      </trkpt>
      <trkpt lat="42.34313" lon="2.62948">
        <ele>665.482</ele>
        <time>2014-07-05T09:43:55Z</time>
      </trkpt>
      <trkpt lat="42.343" lon="2.62881">
        <ele>661.513</ele>
        <time>2014-07-05T09:44:01Z</time>
      </trkpt>
      <trkpt lat="42.34293" lon="2.62861">
        <ele>660.112</ele>
        <time>2014-07-05T09:44:03Z</time>
      </trkpt>
      <trkpt lat="42.34279" lon="2.62834">
        <ele>657.761</ele>
        <time>2014-07-05T09:44:06Z</time>
      </trkpt>
      <trkpt lat="42.34272" lon="2.62805">
        <ele>653.494</ele>
        <time>2014-07-05T09:44:10Z</time>
      </trkpt>
      <trkpt lat="42.34261" lon="2.62767">
        <ele>651.997</ele>
        <time>2014-07-05T09:44:15Z</time>
      </trkpt>
      <trkpt lat="42.34255" lon="2.62762">
        <ele>651.423</ele>
        <time>2014-07-05T09:44:16Z</time>
      </trkpt>
      <trkpt lat="42.34224" lon="2.62738">
        <ele>649.025</ele>
        <time>2014-07-05T09:44:21Z</time>
      </trkpt>
      <trkpt lat="42.34213" lon="2.62723">
        <ele>647.107</ele>
        <time>2014-07-05T09:44:24Z</time>
      </trkpt>
      <trkpt lat="42.34196" lon="2.62683">
        <ele>643.716</ele>
        <time>2014-07-05T09:44:31Z</time>
      </trkpt>
      <trkpt lat="42.3419" lon="2.62683">
        <ele>643.381</ele>
        <time>2014-07-05T09:44:32Z</time>
      </trkpt>
      <trkpt lat="42.34155" lon="2.62671">
        <ele>638.583</ele>
        <time>2014-07-05T09:44:38Z</time>
      </trkpt>
      <trkpt lat="42.3414" lon="2.62677">
        <ele>637.054</ele>
        <time>2014-07-05T09:44:41Z</time>
      </trkpt>
      <trkpt lat="42.34127" lon="2.62693">
        <ele>635.663</ele>
        <time>2014-07-05T09:44:44Z</time>
      </trkpt>
      <trkpt lat="42.34102" lon="2.62685">
        <ele>632.752</ele>
        <time>2014-07-05T09:44:49Z</time>
      </trkpt>
      <trkpt lat="42.34097" lon="2.62677">
        <ele>631.245</ele>
        <time>2014-07-05T09:44:50Z</time>
      </trkpt>
      <trkpt lat="42.3409" lon="2.62652">
        <ele>629.836</ele>
        <time>2014-07-05T09:44:53Z</time>
      </trkpt>
      <trkpt lat="42.34073" lon="2.62629">
        <ele>627.917</ele>
        <time>2014-07-05T09:44:56Z</time>
      </trkpt>
      <trkpt lat="42.34048" lon="2.62622">
        <ele>624.518</ele>
        <time>2014-07-05T09:45:00Z</time>
      </trkpt>
      <trkpt lat="42.34044" lon="2.62622">
        <ele>624.507</ele>
        <time>2014-07-05T09:45:01Z</time>
      </trkpt>
      <trkpt lat="42.34031" lon="2.62647">
        <ele>622.16</ele>
        <time>2014-07-05T09:45:05Z</time>
      </trkpt>
      <trkpt lat="42.34027" lon="2.62655">
        <ele>621.665</ele>
        <time>2014-07-05T09:45:06Z</time>
      </trkpt>
      <trkpt lat="42.3401" lon="2.62669">
        <ele>619.777</ele>
        <time>2014-07-05T09:45:09Z</time>
      </trkpt>
      <trkpt lat="42.33982" lon="2.62666">
        <ele>617.868</ele>
        <time>2014-07-05T09:45:13Z</time>
      </trkpt>
      <trkpt lat="42.33962" lon="2.62652">
        <ele>615.997</ele>
        <time>2014-07-05T09:45:16Z</time>
      </trkpt>
      <trkpt lat="42.3392" lon="2.62615">
        <ele>612.086</ele>
        <time>2014-07-05T09:45:23Z</time>
      </trkpt>
      <trkpt lat="42.33909" lon="2.62614">
        <ele>611.559</ele>
        <time>2014-07-05T09:45:25Z</time>
      </trkpt>
      <trkpt lat="42.33885" lon="2.62629">
        <ele>609.123</ele>
        <time>2014-07-05T09:45:31Z</time>
      </trkpt>
      <trkpt lat="42.33884" lon="2.62635">
        <ele>609.683</ele>
        <time>2014-07-05T09:45:32Z</time>
      </trkpt>
      <trkpt lat="42.33886" lon="2.6264">
        <ele>609.611</ele>
        <time>2014-07-05T09:45:46Z</time>
      </trkpt>
      <trkpt lat="42.33887" lon="2.6264">
        <ele>609.607</ele>
        <time>2014-07-05T09:45:49Z</time>
      </trkpt>
      <trkpt lat="42.33895" lon="2.62644">
        <ele>609.699</ele>
        <time>2014-07-05T09:46:01Z</time>
      </trkpt>
      <trkpt lat="42.33898" lon="2.62641">
        <ele>609.684</ele>
        <time>2014-07-05T09:46:15Z</time>
      </trkpt>
      <trkpt lat="42.33902" lon="2.62637">
        <ele>609.696</ele>
        <time>2014-07-05T09:46:32Z</time>
      </trkpt>
      <trkpt lat="42.33904" lon="2.62636">
        <ele>609.617</ele>
        <time>2014-07-05T09:46:54Z</time>
      </trkpt>
      <trkpt lat="42.3391" lon="2.62632">
        <ele>609.696</ele>
        <time>2014-07-05T09:47:05Z</time>
      </trkpt>
      <trkpt lat="42.33915" lon="2.62647">
        <ele>609.695</ele>
        <time>2014-07-05T09:47:18Z</time>
      </trkpt>
      <trkpt lat="42.33928" lon="2.62692">
        <ele>610.178</ele>
        <time>2014-07-05T09:47:30Z</time>
      </trkpt>
      <trkpt lat="42.33934" lon="2.6274">
        <ele>608.221</ele>
        <time>2014-07-05T09:47:40Z</time>
      </trkpt>
      <trkpt lat="42.33943" lon="2.62802">
        <ele>607.241</ele>
        <time>2014-07-05T09:47:52Z</time>
      </trkpt>
      <trkpt lat="42.33945" lon="2.62813">
        <ele>606.705</ele>
        <time>2014-07-05T09:47:54Z</time>
      </trkpt>
      <trkpt lat="42.33966" lon="2.62872">
        <ele>606.307</ele>
        <time>2014-07-05T09:48:07Z</time>
      </trkpt>
      <trkpt lat="42.33972" lon="2.62896">
        <ele>604.869</ele>
        <time>2014-07-05T09:48:12Z</time>
      </trkpt>
      <trkpt lat="42.3397" lon="2.62923">
        <ele>603.924</ele>
        <time>2014-07-05T09:48:17Z</time>
      </trkpt>
      <trkpt lat="42.33979" lon="2.63009">
        <ele>600.066</ele>
        <time>2014-07-05T09:48:29Z</time>
      </trkpt>
      <trkpt lat="42.33986" lon="2.63079">
        <ele>596.657</ele>
        <time>2014-07-05T09:48:37Z</time>
      </trkpt>
      <trkpt lat="42.34011" lon="2.63129">
        <ele>594.296</ele>
        <time>2014-07-05T09:48:44Z</time>
      </trkpt>
      <trkpt lat="42.34016" lon="2.63145">
        <ele>592.885</ele>
        <time>2014-07-05T09:48:46Z</time>
      </trkpt>
      <trkpt lat="42.34024" lon="2.63205">
        <ele>589.078</ele>
        <time>2014-07-05T09:48:52Z</time>
      </trkpt>
      <trkpt lat="42.34029" lon="2.63237">
        <ele>587.593</ele>
        <time>2014-07-05T09:48:55Z</time>
      </trkpt>
      <trkpt lat="42.34033" lon="2.63266">
        <ele>586.165</ele>
        <time>2014-07-05T09:48:58Z</time>
      </trkpt>
      <trkpt lat="42.34034" lon="2.63275">
        <ele>586.121</ele>
        <time>2014-07-05T09:48:59Z</time>
      </trkpt>
      <trkpt lat="42.34004" lon="2.63305">
        <ele>584.107</ele>
        <time>2014-07-05T09:49:05Z</time>
      </trkpt>
      <trkpt lat="42.33993" lon="2.633">
        <ele>583.226</ele>
        <time>2014-07-05T09:49:07Z</time>
      </trkpt>
      <trkpt lat="42.33953" lon="2.63298">
        <ele>580.891</ele>
        <time>2014-07-05T09:49:13Z</time>
      </trkpt>
      <trkpt lat="42.33889" lon="2.6331">
        <ele>576.943</ele>
        <time>2014-07-05T09:49:22Z</time>
      </trkpt>
      <trkpt lat="42.33877" lon="2.63316">
        <ele>575.594</ele>
        <time>2014-07-05T09:49:24Z</time>
      </trkpt>
      <trkpt lat="42.33872" lon="2.63318">
        <ele>575.573</ele>
        <time>2014-07-05T09:49:25Z</time>
      </trkpt>
      <trkpt lat="42.33867" lon="2.63321">
        <ele>575.022</ele>
        <time>2014-07-05T09:49:26Z</time>
      </trkpt>
      <trkpt lat="42.33859" lon="2.63333">
        <ele>574.595</ele>
        <time>2014-07-05T09:49:29Z</time>
      </trkpt>
      <trkpt lat="42.33857" lon="2.63342">
        <ele>576.083</ele>
        <time>2014-07-05T09:49:31Z</time>
      </trkpt>
      <trkpt lat="42.33855" lon="2.6336">
        <ele>575.525</ele>
        <time>2014-07-05T09:49:34Z</time>
      </trkpt>
      <trkpt lat="42.33884" lon="2.63394">
        <ele>577.417</ele>
        <time>2014-07-05T09:49:47Z</time>
      </trkpt>
      <trkpt lat="42.33889" lon="2.63396">
        <ele>577.907</ele>
        <time>2014-07-05T09:49:49Z</time>
      </trkpt>
      <trkpt lat="42.33914" lon="2.63411">
        <ele>580.365</ele>
        <time>2014-07-05T09:50:01Z</time>
      </trkpt>
      <trkpt lat="42.33925" lon="2.63416">
        <ele>580.89</ele>
        <time>2014-07-05T09:50:06Z</time>
      </trkpt>
      <trkpt lat="42.33931" lon="2.63448">
        <ele>582.752</ele>
        <time>2014-07-05T09:50:20Z</time>
      </trkpt>
      <trkpt lat="42.33924" lon="2.63462">
        <ele>582.273</ele>
        <time>2014-07-05T09:50:26Z</time>
      </trkpt>
      <trkpt lat="42.33913" lon="2.63475">
        <ele>579.392</ele>
        <time>2014-07-05T09:50:35Z</time>
      </trkpt>
      <trkpt lat="42.33912" lon="2.63478">
        <ele>579.341</ele>
        <time>2014-07-05T09:50:36Z</time>
      </trkpt>
      <trkpt lat="42.33911" lon="2.63492">
        <ele>578.974</ele>
        <time>2014-07-05T09:50:39Z</time>
      </trkpt>
      <trkpt lat="42.3391" lon="2.63522">
        <ele>578.494</ele>
        <time>2014-07-05T09:50:42Z</time>
      </trkpt>
      <trkpt lat="42.33913" lon="2.63535">
        <ele>578.957</ele>
        <time>2014-07-05T09:50:44Z</time>
      </trkpt>
      <trkpt lat="42.33929" lon="2.63552">
        <ele>579.822</ele>
        <time>2014-07-05T09:50:51Z</time>
      </trkpt>
      <trkpt lat="42.33966" lon="2.63551">
        <ele>581.707</ele>
        <time>2014-07-05T09:51:01Z</time>
      </trkpt>
      <trkpt lat="42.34003" lon="2.63554">
        <ele>583.746</ele>
        <time>2014-07-05T09:51:13Z</time>
      </trkpt>
      <trkpt lat="42.34027" lon="2.63582">
        <ele>584.631</ele>
        <time>2014-07-05T09:51:23Z</time>
      </trkpt>
      <trkpt lat="42.34044" lon="2.63617">
        <ele>586.543</ele>
        <time>2014-07-05T09:51:34Z</time>
      </trkpt>
      <trkpt lat="42.34056" lon="2.63659">
        <ele>587.574</ele>
        <time>2014-07-05T09:51:46Z</time>
      </trkpt>
      <trkpt lat="42.34074" lon="2.63692">
        <ele>589.943</ele>
        <time>2014-07-05T09:51:58Z</time>
      </trkpt>
      <trkpt lat="42.34093" lon="2.63726">
        <ele>592.332</ele>
        <time>2014-07-05T09:52:11Z</time>
      </trkpt>
      <trkpt lat="42.34106" lon="2.63764">
        <ele>593.335</ele>
        <time>2014-07-05T09:52:23Z</time>
      </trkpt>
      <trkpt lat="42.34124" lon="2.63802">
        <ele>595.271</ele>
        <time>2014-07-05T09:52:36Z</time>
      </trkpt>
      <trkpt lat="42.34118" lon="2.6384">
        <ele>596.641</ele>
        <time>2014-07-05T09:52:48Z</time>
      </trkpt>
      <trkpt lat="42.34114" lon="2.63869">
        <ele>597.615</ele>
        <time>2014-07-05T09:52:58Z</time>
      </trkpt>
      <trkpt lat="42.34113" lon="2.63883">
        <ele>597.607</ele>
        <time>2014-07-05T09:53:02Z</time>
      </trkpt>
      <trkpt lat="42.34116" lon="2.63899">
        <ele>597.144</ele>
        <time>2014-07-05T09:53:06Z</time>
      </trkpt>
      <trkpt lat="42.34147" lon="2.63925">
        <ele>598.159</ele>
        <time>2014-07-05T09:53:17Z</time>
      </trkpt>
      <trkpt lat="42.34149" lon="2.6397">
        <ele>598.631</ele>
        <time>2014-07-05T09:53:28Z</time>
      </trkpt>
      <trkpt lat="42.3415" lon="2.63979">
        <ele>599.092</ele>
        <time>2014-07-05T09:53:30Z</time>
      </trkpt>
      <trkpt lat="42.34156" lon="2.6399">
        <ele>600.531</ele>
        <time>2014-07-05T09:53:33Z</time>
      </trkpt>
      <trkpt lat="42.3419" lon="2.6402">
        <ele>600.01</ele>
        <time>2014-07-05T09:53:45Z</time>
      </trkpt>
      <trkpt lat="42.34222" lon="2.64063">
        <ele>601.073</ele>
        <time>2014-07-05T09:53:59Z</time>
      </trkpt>
      <trkpt lat="42.34247" lon="2.64094">
        <ele>600.096</ele>
        <time>2014-07-05T09:54:09Z</time>
      </trkpt>
      <trkpt lat="42.34243" lon="2.64138">
        <ele>597.631</ele>
        <time>2014-07-05T09:54:16Z</time>
      </trkpt>
      <trkpt lat="42.34241" lon="2.64177">
        <ele>595.224</ele>
        <time>2014-07-05T09:54:21Z</time>
      </trkpt>
      <trkpt lat="42.34245" lon="2.64242">
        <ele>592.807</ele>
        <time>2014-07-05T09:54:28Z</time>
      </trkpt>
      <trkpt lat="42.34259" lon="2.64309">
        <ele>589.996</ele>
        <time>2014-07-05T09:54:35Z</time>
      </trkpt>
      <trkpt lat="42.34266" lon="2.64378">
        <ele>587.011</ele>
        <time>2014-07-05T09:54:41Z</time>
      </trkpt>
      <trkpt lat="42.34271" lon="2.64402">
        <ele>585.683</ele>
        <time>2014-07-05T09:54:43Z</time>
      </trkpt>
      <trkpt lat="42.34273" lon="2.64413">
        <ele>585.664</ele>
        <time>2014-07-05T09:54:44Z</time>
      </trkpt>
      <trkpt lat="42.34273" lon="2.64453">
        <ele>583.743</ele>
        <time>2014-07-05T09:54:48Z</time>
      </trkpt>
      <trkpt lat="42.34279" lon="2.64534">
        <ele>580.362</ele>
        <time>2014-07-05T09:54:55Z</time>
      </trkpt>
      <trkpt lat="42.34281" lon="2.64542">
        <ele>580.385</ele>
        <time>2014-07-05T09:54:56Z</time>
      </trkpt>
      <trkpt lat="42.34282" lon="2.64562">
        <ele>578.432</ele>
        <time>2014-07-05T09:54:59Z</time>
      </trkpt>
      <trkpt lat="42.34276" lon="2.646">
        <ele>576.992</ele>
        <time>2014-07-05T09:55:03Z</time>
      </trkpt>
      <trkpt lat="42.34272" lon="2.64623">
        <ele>576.011</ele>
        <time>2014-07-05T09:55:05Z</time>
      </trkpt>
      <trkpt lat="42.34263" lon="2.64654">
        <ele>574.507</ele>
        <time>2014-07-05T09:55:08Z</time>
      </trkpt>
      <trkpt lat="42.34261" lon="2.64663">
        <ele>574.02</ele>
        <time>2014-07-05T09:55:09Z</time>
      </trkpt>
      <trkpt lat="42.34256" lon="2.64683">
        <ele>572.655</ele>
        <time>2014-07-05T09:55:11Z</time>
      </trkpt>
      <trkpt lat="42.34251" lon="2.64754">
        <ele>570.727</ele>
        <time>2014-07-05T09:55:17Z</time>
      </trkpt>
      <trkpt lat="42.34238" lon="2.64792">
        <ele>569.228</ele>
        <time>2014-07-05T09:55:22Z</time>
      </trkpt>
      <trkpt lat="42.34193" lon="2.64823">
        <ele>567.367</ele>
        <time>2014-07-05T09:55:28Z</time>
      </trkpt>
      <trkpt lat="42.34157" lon="2.64822">
        <ele>565.956</ele>
        <time>2014-07-05T09:55:33Z</time>
      </trkpt>
      <trkpt lat="42.34127" lon="2.64793">
        <ele>562.599</ele>
        <time>2014-07-05T09:55:38Z</time>
      </trkpt>
      <trkpt lat="42.34096" lon="2.64791">
        <ele>560.135</ele>
        <time>2014-07-05T09:55:43Z</time>
      </trkpt>
      <trkpt lat="42.34074" lon="2.64802">
        <ele>559.186</ele>
        <time>2014-07-05T09:55:47Z</time>
      </trkpt>
      <trkpt lat="42.3405" lon="2.64816">
        <ele>557.714</ele>
        <time>2014-07-05T09:55:51Z</time>
      </trkpt>
      <trkpt lat="42.34038" lon="2.64826">
        <ele>556.707</ele>
        <time>2014-07-05T09:55:53Z</time>
      </trkpt>
      <trkpt lat="42.34011" lon="2.64861">
        <ele>556.37</ele>
        <time>2014-07-05T09:56:00Z</time>
      </trkpt>
      <trkpt lat="42.34012" lon="2.64885">
        <ele>556.725</ele>
        <time>2014-07-05T09:56:04Z</time>
      </trkpt>
      <trkpt lat="42.34012" lon="2.64895">
        <ele>556.787</ele>
        <time>2014-07-05T09:56:06Z</time>
      </trkpt>
      <trkpt lat="42.34019" lon="2.64916">
        <ele>557.268</ele>
        <time>2014-07-05T09:56:10Z</time>
      </trkpt>
      <trkpt lat="42.34024" lon="2.64934">
        <ele>557.757</ele>
        <time>2014-07-05T09:56:14Z</time>
      </trkpt>
      <trkpt lat="42.34023" lon="2.6494">
        <ele>558.296</ele>
        <time>2014-07-05T09:56:15Z</time>
      </trkpt>
      <trkpt lat="42.34025" lon="2.64966">
        <ele>559.119</ele>
        <time>2014-07-05T09:56:21Z</time>
      </trkpt>
      <trkpt lat="42.34018" lon="2.65013">
        <ele>559.156</ele>
        <time>2014-07-05T09:56:31Z</time>
      </trkpt>
      <trkpt lat="42.34048" lon="2.6504">
        <ele>560.159</ele>
        <time>2014-07-05T09:56:39Z</time>
      </trkpt>
      <trkpt lat="42.34092" lon="2.65057">
        <ele>560.614</ele>
        <time>2014-07-05T09:56:50Z</time>
      </trkpt>
      <trkpt lat="42.34135" lon="2.65087">
        <ele>561.107</ele>
        <time>2014-07-05T09:57:03Z</time>
      </trkpt>
      <trkpt lat="42.34166" lon="2.65119">
        <ele>562.032</ele>
        <time>2014-07-05T09:57:14Z</time>
      </trkpt>
      <trkpt lat="42.34179" lon="2.65166">
        <ele>563.557</ele>
        <time>2014-07-05T09:57:26Z</time>
      </trkpt>
      <trkpt lat="42.34176" lon="2.65224">
        <ele>563.519</ele>
        <time>2014-07-05T09:57:39Z</time>
      </trkpt>
      <trkpt lat="42.34155" lon="2.65237">
        <ele>561.65</ele>
        <time>2014-07-05T09:57:44Z</time>
      </trkpt>
      <trkpt lat="42.3414" lon="2.65254">
        <ele>560.699</ele>
        <time>2014-07-05T09:57:48Z</time>
      </trkpt>
      <trkpt lat="42.34133" lon="2.65262">
        <ele>560.118</ele>
        <time>2014-07-05T09:57:50Z</time>
      </trkpt>
      <trkpt lat="42.34123" lon="2.65277">
        <ele>559.611</ele>
        <time>2014-07-05T09:57:53Z</time>
      </trkpt>
      <trkpt lat="42.34103" lon="2.653">
        <ele>558.741</ele>
        <time>2014-07-05T09:57:58Z</time>
      </trkpt>
      <trkpt lat="42.34095" lon="2.65307">
        <ele>557.781</ele>
        <time>2014-07-05T09:58:00Z</time>
      </trkpt>
      <trkpt lat="42.34068" lon="2.65328">
        <ele>555.309</ele>
        <time>2014-07-05T09:58:05Z</time>
      </trkpt>
      <trkpt lat="42.34052" lon="2.65346">
        <ele>552.907</ele>
        <time>2014-07-05T09:58:08Z</time>
      </trkpt>
      <trkpt lat="42.34037" lon="2.65416">
        <ele>549.141</ele>
        <time>2014-07-05T09:58:15Z</time>
      </trkpt>
      <trkpt lat="42.34034" lon="2.65448">
        <ele>547.696</ele>
        <time>2014-07-05T09:58:18Z</time>
      </trkpt>
      <trkpt lat="42.34022" lon="2.65477">
        <ele>546.228</ele>
        <time>2014-07-05T09:58:22Z</time>
      </trkpt>
      <trkpt lat="42.33992" lon="2.65513">
        <ele>542.359</ele>
        <time>2014-07-05T09:58:28Z</time>
      </trkpt>
      <trkpt lat="42.33951" lon="2.65537">
        <ele>540.928</ele>
        <time>2014-07-05T09:58:34Z</time>
      </trkpt>
      <trkpt lat="42.33936" lon="2.65555">
        <ele>539.457</ele>
        <time>2014-07-05T09:58:38Z</time>
      </trkpt>
      <trkpt lat="42.33939" lon="2.65653">
        <ele>538.56</ele>
        <time>2014-07-05T09:58:51Z</time>
      </trkpt>
      <trkpt lat="42.3394" lon="2.65676">
        <ele>538.037</ele>
        <time>2014-07-05T09:58:54Z</time>
      </trkpt>
      <trkpt lat="42.33945" lon="2.65699">
        <ele>537.049</ele>
        <time>2014-07-05T09:58:58Z</time>
      </trkpt>
      <trkpt lat="42.33943" lon="2.65738">
        <ele>536.613</ele>
        <time>2014-07-05T09:59:04Z</time>
      </trkpt>
      <trkpt lat="42.33941" lon="2.6575">
        <ele>536.607</ele>
        <time>2014-07-05T09:59:06Z</time>
      </trkpt>
      <trkpt lat="42.33936" lon="2.65769">
        <ele>535.68</ele>
        <time>2014-07-05T09:59:09Z</time>
      </trkpt>
      <trkpt lat="42.33935" lon="2.65774">
        <ele>535.655</ele>
        <time>2014-07-05T09:59:10Z</time>
      </trkpt>
      <trkpt lat="42.33929" lon="2.65837">
        <ele>535.627</ele>
        <time>2014-07-05T09:59:20Z</time>
      </trkpt>
      <trkpt lat="42.3393" lon="2.6585">
        <ele>535.698</ele>
        <time>2014-07-05T09:59:22Z</time>
      </trkpt>
      <trkpt lat="42.33931" lon="2.65865">
        <ele>536.147</ele>
        <time>2014-07-05T09:59:26Z</time>
      </trkpt>
      <trkpt lat="42.33932" lon="2.65868">
        <ele>535.656</ele>
        <time>2014-07-05T09:59:28Z</time>
      </trkpt>
      <trkpt lat="42.33953" lon="2.6587">
        <ele>535.619</ele>
        <time>2014-07-05T09:59:31Z</time>
      </trkpt>
      <trkpt lat="42.33965" lon="2.65913">
        <ele>535.139</ele>
        <time>2014-07-05T09:59:42Z</time>
      </trkpt>
      <trkpt lat="42.33966" lon="2.65923">
        <ele>535.101</ele>
        <time>2014-07-05T09:59:44Z</time>
      </trkpt>
      <trkpt lat="42.33962" lon="2.65951">
        <ele>534.621</ele>
        <time>2014-07-05T09:59:50Z</time>
      </trkpt>
      <trkpt lat="42.33957" lon="2.65999">
        <ele>535.107</ele>
        <time>2014-07-05T10:00:02Z</time>
      </trkpt>
      <trkpt lat="42.33945" lon="2.66046">
        <ele>534.61</ele>
        <time>2014-07-05T10:00:12Z</time>
      </trkpt>
      <trkpt lat="42.3393" lon="2.66071">
        <ele>534.615</ele>
        <time>2014-07-05T10:00:21Z</time>
      </trkpt>
      <trkpt lat="42.33928" lon="2.66081">
        <ele>534.657</ele>
        <time>2014-07-05T10:00:25Z</time>
      </trkpt>
      <trkpt lat="42.33925" lon="2.66123">
        <ele>537.038</ele>
        <time>2014-07-05T10:00:33Z</time>
      </trkpt>
      <trkpt lat="42.33921" lon="2.66188">
        <ele>539.927</ele>
        <time>2014-07-05T10:00:46Z</time>
      </trkpt>
      <trkpt lat="42.33923" lon="2.66225">
        <ele>542.336</ele>
        <time>2014-07-05T10:00:57Z</time>
      </trkpt>
      <trkpt lat="42.33935" lon="2.66256">
        <ele>544.759</ele>
        <time>2014-07-05T10:01:10Z</time>
      </trkpt>
      <trkpt lat="42.33936" lon="2.66258">
        <ele>545.239</ele>
        <time>2014-07-05T10:01:11Z</time>
      </trkpt>
      <trkpt lat="42.33942" lon="2.66273">
        <ele>546.201</ele>
        <time>2014-07-05T10:01:17Z</time>
      </trkpt>
      <trkpt lat="42.33926" lon="2.66306">
        <ele>547.121</ele>
        <time>2014-07-05T10:01:30Z</time>
      </trkpt>
      <trkpt lat="42.33898" lon="2.6632">
        <ele>547.607</ele>
        <time>2014-07-05T10:01:42Z</time>
      </trkpt>
      <trkpt lat="42.33873" lon="2.66342">
        <ele>549.58</ele>
        <time>2014-07-05T10:01:55Z</time>
      </trkpt>
      <trkpt lat="42.33868" lon="2.66345">
        <ele>549.555</ele>
        <time>2014-07-05T10:01:57Z</time>
      </trkpt>
      <trkpt lat="42.33863" lon="2.66356">
        <ele>549.587</ele>
        <time>2014-07-05T10:02:02Z</time>
      </trkpt>
      <trkpt lat="42.33862" lon="2.66417">
        <ele>551.978</ele>
        <time>2014-07-05T10:02:16Z</time>
      </trkpt>
      <trkpt lat="42.33859" lon="2.66474">
        <ele>553.437</ele>
        <time>2014-07-05T10:02:31Z</time>
      </trkpt>
      <trkpt lat="42.33849" lon="2.66511">
        <ele>554.856</ele>
        <time>2014-07-05T10:02:42Z</time>
      </trkpt>
      <trkpt lat="42.33827" lon="2.66555">
        <ele>556.319</ele>
        <time>2014-07-05T10:02:53Z</time>
      </trkpt>
      <trkpt lat="42.33798" lon="2.66608">
        <ele>557.735</ele>
        <time>2014-07-05T10:03:06Z</time>
      </trkpt>
      <trkpt lat="42.33759" lon="2.66652">
        <ele>558.286</ele>
        <time>2014-07-05T10:03:19Z</time>
      </trkpt>
      <trkpt lat="42.33731" lon="2.66704">
        <ele>557.714</ele>
        <time>2014-07-05T10:03:32Z</time>
      </trkpt>
      <trkpt lat="42.33717" lon="2.66727">
        <ele>558.707</ele>
        <time>2014-07-05T10:03:39Z</time>
      </trkpt>
      <trkpt lat="42.33695" lon="2.66737">
        <ele>557.27</ele>
        <time>2014-07-05T10:03:42Z</time>
      </trkpt>
      <trkpt lat="42.33678" lon="2.6675">
        <ele>556.355</ele>
        <time>2014-07-05T10:03:46Z</time>
      </trkpt>
      <trkpt lat="42.33673" lon="2.66756">
        <ele>556.397</ele>
        <time>2014-07-05T10:03:47Z</time>
      </trkpt>
      <trkpt lat="42.33663" lon="2.66778">
        <ele>553.958</ele>
        <time>2014-07-05T10:03:52Z</time>
      </trkpt>
      <trkpt lat="42.33654" lon="2.66817">
        <ele>550.027</ele>
        <time>2014-07-05T10:04:02Z</time>
      </trkpt>
      <trkpt lat="42.33652" lon="2.66826">
        <ele>549.146</ele>
        <time>2014-07-05T10:04:04Z</time>
      </trkpt>
      <trkpt lat="42.33629" lon="2.66849">
        <ele>546.729</ele>
        <time>2014-07-05T10:04:14Z</time>
      </trkpt>
      <trkpt lat="42.33596" lon="2.6685">
        <ele>543.366</ele>
        <time>2014-07-05T10:04:23Z</time>
      </trkpt>
      <trkpt lat="42.33582" lon="2.66854">
        <ele>541.429</ele>
        <time>2014-07-05T10:04:27Z</time>
      </trkpt>
      <trkpt lat="42.33572" lon="2.66857">
        <ele>540.421</ele>
        <time>2014-07-05T10:04:30Z</time>
      </trkpt>
      <trkpt lat="42.33564" lon="2.66873">
        <ele>538.507</ele>
        <time>2014-07-05T10:04:33Z</time>
      </trkpt>
      <trkpt lat="42.33562" lon="2.66885">
        <ele>538.023</ele>
        <time>2014-07-05T10:04:35Z</time>
      </trkpt>
      <trkpt lat="42.33562" lon="2.66916">
        <ele>535.648</ele>
        <time>2014-07-05T10:04:38Z</time>
      </trkpt>
      <trkpt lat="42.33565" lon="2.66937">
        <ele>533.73</ele>
        <time>2014-07-05T10:04:40Z</time>
      </trkpt>
      <trkpt lat="42.33572" lon="2.66967">
        <ele>531.351</ele>
        <time>2014-07-05T10:04:44Z</time>
      </trkpt>
      <trkpt lat="42.33575" lon="2.6698">
        <ele>530.82</ele>
        <time>2014-07-05T10:04:46Z</time>
      </trkpt>
      <trkpt lat="42.33574" lon="2.67011">
        <ele>527.929</ele>
        <time>2014-07-05T10:04:50Z</time>
      </trkpt>
      <trkpt lat="42.3357" lon="2.67045">
        <ele>526.012</ele>
        <time>2014-07-05T10:04:54Z</time>
      </trkpt>
      <trkpt lat="42.33563" lon="2.67086">
        <ele>525.065</ele>
        <time>2014-07-05T10:04:59Z</time>
      </trkpt>
      <trkpt lat="42.33552" lon="2.67109">
        <ele>523.668</ele>
        <time>2014-07-05T10:05:03Z</time>
      </trkpt>
      <trkpt lat="42.33544" lon="2.67115">
        <ele>523.114</ele>
        <time>2014-07-05T10:05:05Z</time>
      </trkpt>
      <trkpt lat="42.33522" lon="2.67127">
        <ele>522.107</ele>
        <time>2014-07-05T10:05:08Z</time>
      </trkpt>
      <trkpt lat="42.33481" lon="2.67137">
        <ele>521.273</ele>
        <time>2014-07-05T10:05:14Z</time>
      </trkpt>
      <trkpt lat="42.3346" lon="2.67153">
        <ele>520.238</ele>
        <time>2014-07-05T10:05:18Z</time>
      </trkpt>
      <trkpt lat="42.33428" lon="2.67164">
        <ele>518.33</ele>
        <time>2014-07-05T10:05:26Z</time>
      </trkpt>
      <trkpt lat="42.33427" lon="2.67189">
        <ele>516.471</ele>
        <time>2014-07-05T10:05:37Z</time>
      </trkpt>
      <trkpt lat="42.33445" lon="2.67184">
        <ele>513.58</ele>
        <time>2014-07-05T10:05:44Z</time>
      </trkpt>
      <trkpt lat="42.33452" lon="2.67179">
        <ele>513.049</ele>
        <time>2014-07-05T10:05:46Z</time>
      </trkpt>
      <trkpt lat="42.33456" lon="2.67177">
        <ele>512.542</ele>
        <time>2014-07-05T10:05:47Z</time>
      </trkpt>
      <trkpt lat="42.33483" lon="2.6716">
        <ele>508.787</ele>
        <time>2014-07-05T10:05:53Z</time>
      </trkpt>
      <trkpt lat="42.33494" lon="2.6716">
        <ele>507.242</ele>
        <time>2014-07-05T10:05:55Z</time>
      </trkpt>
      <trkpt lat="42.33511" lon="2.67163">
        <ele>505.326</ele>
        <time>2014-07-05T10:05:58Z</time>
      </trkpt>
      <trkpt lat="42.33531" lon="2.67157">
        <ele>502.407</ele>
        <time>2014-07-05T10:06:02Z</time>
      </trkpt>
      <trkpt lat="42.33549" lon="2.67154">
        <ele>500.075</ele>
        <time>2014-07-05T10:06:05Z</time>
      </trkpt>
      <trkpt lat="42.33572" lon="2.67137">
        <ele>496.26</ele>
        <time>2014-07-05T10:06:10Z</time>
      </trkpt>
      <trkpt lat="42.3359" lon="2.67145">
        <ele>492.332</ele>
        <time>2014-07-05T10:06:16Z</time>
      </trkpt>
      <trkpt lat="42.33575" lon="2.6717">
        <ele>489.513</ele>
        <time>2014-07-05T10:06:21Z</time>
      </trkpt>
      <trkpt lat="42.33571" lon="2.67191">
        <ele>486.172</ele>
        <time>2014-07-05T10:06:27Z</time>
      </trkpt>
      <trkpt lat="42.33578" lon="2.67188">
        <ele>485.161</ele>
        <time>2014-07-05T10:06:29Z</time>
      </trkpt>
      <trkpt lat="42.33612" lon="2.67165">
        <ele>479.884</ele>
        <time>2014-07-05T10:06:36Z</time>
      </trkpt>
      <trkpt lat="42.33625" lon="2.67126">
        <ele>476.022</ele>
        <time>2014-07-05T10:06:41Z</time>
      </trkpt>
      <trkpt lat="42.33626" lon="2.67105">
        <ele>474.162</ele>
        <time>2014-07-05T10:06:43Z</time>
      </trkpt>
      <trkpt lat="42.33624" lon="2.67074">
        <ele>470.708</ele>
        <time>2014-07-05T10:06:46Z</time>
      </trkpt>
      <trkpt lat="42.33634" lon="2.67091">
        <ele>467.807</ele>
        <time>2014-07-05T10:06:52Z</time>
      </trkpt>
      <trkpt lat="42.3364" lon="2.67126">
        <ele>464.959</ele>
        <time>2014-07-05T10:06:56Z</time>
      </trkpt>
      <trkpt lat="42.33641" lon="2.67142">
        <ele>463.074</ele>
        <time>2014-07-05T10:06:58Z</time>
      </trkpt>
      <trkpt lat="42.33624" lon="2.67196">
        <ele>458.216</ele>
        <time>2014-07-05T10:07:04Z</time>
      </trkpt>
      <trkpt lat="42.33604" lon="2.67233">
        <ele>454.457</ele>
        <time>2014-07-05T10:07:08Z</time>
      </trkpt>
      <trkpt lat="42.33601" lon="2.67238">
        <ele>454.486</ele>
        <time>2014-07-05T10:07:09Z</time>
      </trkpt>
      <trkpt lat="42.33562" lon="2.67261">
        <ele>450.055</ele>
        <time>2014-07-05T10:07:14Z</time>
      </trkpt>
      <trkpt lat="42.33536" lon="2.6729">
        <ele>446.798</ele>
        <time>2014-07-05T10:07:18Z</time>
      </trkpt>
      <trkpt lat="42.33512" lon="2.67315">
        <ele>442.826</ele>
        <time>2014-07-05T10:07:22Z</time>
      </trkpt>
      <trkpt lat="42.3351" lon="2.6732">
        <ele>442.347</ele>
        <time>2014-07-05T10:07:23Z</time>
      </trkpt>
      <trkpt lat="42.33522" lon="2.67331">
        <ele>440.411</ele>
        <time>2014-07-05T10:07:27Z</time>
      </trkpt>
      <trkpt lat="42.33532" lon="2.67317">
        <ele>439.507</ele>
        <time>2014-07-05T10:07:29Z</time>
      </trkpt>
      <trkpt lat="42.33546" lon="2.67296">
        <ele>437.529</ele>
        <time>2014-07-05T10:07:32Z</time>
      </trkpt>
      <trkpt lat="42.33569" lon="2.67294">
        <ele>434.224</ele>
        <time>2014-07-05T10:07:38Z</time>
      </trkpt>
      <trkpt lat="42.33555" lon="2.67313">
        <ele>431.846</ele>
        <time>2014-07-05T10:07:43Z</time>
      </trkpt>
      <trkpt lat="42.33546" lon="2.67335">
        <ele>429.987</ele>
        <time>2014-07-05T10:07:46Z</time>
      </trkpt>
      <trkpt lat="42.33521" lon="2.67364">
        <ele>424.676</ele>
        <time>2014-07-05T10:07:51Z</time>
      </trkpt>
      <trkpt lat="42.33514" lon="2.67364">
        <ele>423.665</ele>
        <time>2014-07-05T10:07:52Z</time>
      </trkpt>
      <trkpt lat="42.33461" lon="2.67376">
        <ele>418.378</ele>
        <time>2014-07-05T10:07:59Z</time>
      </trkpt>
      <trkpt lat="42.33444" lon="2.67384">
        <ele>416.474</ele>
        <time>2014-07-05T10:08:01Z</time>
      </trkpt>
      <trkpt lat="42.33415" lon="2.67384">
        <ele>413.056</ele>
        <time>2014-07-05T10:08:06Z</time>
      </trkpt>
      <trkpt lat="42.33412" lon="2.67388">
        <ele>412.521</ele>
        <time>2014-07-05T10:08:08Z</time>
      </trkpt>
      <trkpt lat="42.33413" lon="2.67406">
        <ele>412.507</ele>
        <time>2014-07-05T10:08:13Z</time>
      </trkpt>
      <trkpt lat="42.33423" lon="2.67422">
        <ele>414.574</ele>
        <time>2014-07-05T10:08:20Z</time>
      </trkpt>
      <trkpt lat="42.33427" lon="2.67444">
        <ele>415.979</ele>
        <time>2014-07-05T10:08:28Z</time>
      </trkpt>
      <trkpt lat="42.33432" lon="2.67478">
        <ele>417.831</ele>
        <time>2014-07-05T10:08:42Z</time>
      </trkpt>
      <trkpt lat="42.33454" lon="2.67501">
        <ele>418.862</ele>
        <time>2014-07-05T10:08:54Z</time>
      </trkpt>
      <trkpt lat="42.33459" lon="2.67504">
        <ele>419.331</ele>
        <time>2014-07-05T10:08:56Z</time>
      </trkpt>
      <trkpt lat="42.33489" lon="2.67529">
        <ele>420.24</ele>
        <time>2014-07-05T10:09:10Z</time>
      </trkpt>
      <trkpt lat="42.33516" lon="2.67562">
        <ele>422.233</ele>
        <time>2014-07-05T10:09:25Z</time>
      </trkpt>
      <trkpt lat="42.3353" lon="2.67594">
        <ele>424.123</ele>
        <time>2014-07-05T10:09:37Z</time>
      </trkpt>
      <trkpt lat="42.33536" lon="2.67631">
        <ele>425.083</ele>
        <time>2014-07-05T10:09:51Z</time>
      </trkpt>
      <trkpt lat="42.33515" lon="2.67657">
        <ele>423.611</ele>
        <time>2014-07-05T10:10:02Z</time>
      </trkpt>
      <trkpt lat="42.33479" lon="2.677">
        <ele>421.707</ele>
        <time>2014-07-05T10:10:13Z</time>
      </trkpt>
      <trkpt lat="42.33448" lon="2.677">
        <ele>418.829</ele>
        <time>2014-07-05T10:10:18Z</time>
      </trkpt>
      <trkpt lat="42.33402" lon="2.67704">
        <ele>414.544</ele>
        <time>2014-07-05T10:10:25Z</time>
      </trkpt>
      <trkpt lat="42.33396" lon="2.67745">
        <ele>411.666</ele>
        <time>2014-07-05T10:10:29Z</time>
      </trkpt>
      <trkpt lat="42.33391" lon="2.67785">
        <ele>407.797</ele>
        <time>2014-07-05T10:10:34Z</time>
      </trkpt>
      <trkpt lat="42.3336" lon="2.6781">
        <ele>404.926</ele>
        <time>2014-07-05T10:10:40Z</time>
      </trkpt>
      <trkpt lat="42.33346" lon="2.6782">
        <ele>403.485</ele>
        <time>2014-07-05T10:10:42Z</time>
      </trkpt>
      <trkpt lat="42.3333" lon="2.67827">
        <ele>402.518</ele>
        <time>2014-07-05T10:10:44Z</time>
      </trkpt>
      <trkpt lat="42.33305" lon="2.67845">
        <ele>402.529</ele>
        <time>2014-07-05T10:10:48Z</time>
      </trkpt>
      <trkpt lat="42.33298" lon="2.67852">
        <ele>402.9</ele>
        <time>2014-07-05T10:10:49Z</time>
      </trkpt>
      <trkpt lat="42.33285" lon="2.67873">
        <ele>403.42</ele>
        <time>2014-07-05T10:10:52Z</time>
      </trkpt>
      <trkpt lat="42.33279" lon="2.67892">
        <ele>402.907</ele>
        <time>2014-07-05T10:10:54Z</time>
      </trkpt>
      <trkpt lat="42.33278" lon="2.6791">
        <ele>402.089</ele>
        <time>2014-07-05T10:10:56Z</time>
      </trkpt>
      <trkpt lat="42.33278" lon="2.67917">
        <ele>401.554</ele>
        <time>2014-07-05T10:10:57Z</time>
      </trkpt>
      <trkpt lat="42.33279" lon="2.67938">
        <ele>401.516</ele>
        <time>2014-07-05T10:11:00Z</time>
      </trkpt>
      <trkpt lat="42.33294" lon="2.67987">
        <ele>401.587</ele>
        <time>2014-07-05T10:11:10Z</time>
      </trkpt>
      <trkpt lat="42.33287" lon="2.6802">
        <ele>403.446</ele>
        <time>2014-07-05T10:11:19Z</time>
      </trkpt>
      <trkpt lat="42.33288" lon="2.6802">
        <ele>403.955</ele>
        <time>2014-07-05T10:11:20Z</time>
      </trkpt>
      <trkpt lat="42.3327" lon="2.6805">
        <ele>406.888</ele>
        <time>2014-07-05T10:11:33Z</time>
      </trkpt>
      <trkpt lat="42.33275" lon="2.68074">
        <ele>409.261</ele>
        <time>2014-07-05T10:11:41Z</time>
      </trkpt>
      <trkpt lat="42.33281" lon="2.68104">
        <ele>410.121</ele>
        <time>2014-07-05T10:11:53Z</time>
      </trkpt>
      <trkpt lat="42.33273" lon="2.68132">
        <ele>409.213</ele>
        <time>2014-07-05T10:12:05Z</time>
      </trkpt>
      <trkpt lat="42.33263" lon="2.68161">
        <ele>408.707</ele>
        <time>2014-07-05T10:12:15Z</time>
      </trkpt>
      <trkpt lat="42.33261" lon="2.68172">
        <ele>409.293</ele>
        <time>2014-07-05T10:12:18Z</time>
      </trkpt>
      <trkpt lat="42.33265" lon="2.68185">
        <ele>410.698</ele>
        <time>2014-07-05T10:12:23Z</time>
      </trkpt>
      <trkpt lat="42.33275" lon="2.68199">
        <ele>413.04</ele>
        <time>2014-07-05T10:12:29Z</time>
      </trkpt>
      <trkpt lat="42.33277" lon="2.68215">
        <ele>414.531</ele>
        <time>2014-07-05T10:12:35Z</time>
      </trkpt>
      <trkpt lat="42.33281" lon="2.68229">
        <ele>415.43</ele>
        <time>2014-07-05T10:12:40Z</time>
      </trkpt>
      <trkpt lat="42.33269" lon="2.68257">
        <ele>417.469</ele>
        <time>2014-07-05T10:12:52Z</time>
      </trkpt>
      <trkpt lat="42.33264" lon="2.68286">
        <ele>418.352</ele>
        <time>2014-07-05T10:13:03Z</time>
      </trkpt>
      <trkpt lat="42.33264" lon="2.68289">
        <ele>418.321</ele>
        <time>2014-07-05T10:13:04Z</time>
      </trkpt>
      <trkpt lat="42.33265" lon="2.68291">
        <ele>418.841</ele>
        <time>2014-07-05T10:13:05Z</time>
      </trkpt>
      <trkpt lat="42.3327" lon="2.6832">
        <ele>421.705</ele>
        <time>2014-07-05T10:13:19Z</time>
      </trkpt>
      <trkpt lat="42.33275" lon="2.68343">
        <ele>424.107</ele>
        <time>2014-07-05T10:13:32Z</time>
      </trkpt>
      <trkpt lat="42.33271" lon="2.68346">
        <ele>424.169</ele>
        <time>2014-07-05T10:13:35Z</time>
      </trkpt>
      <trkpt lat="42.33274" lon="2.68373">
        <ele>425.564</ele>
        <time>2014-07-05T10:13:46Z</time>
      </trkpt>
      <trkpt lat="42.33279" lon="2.68406">
        <ele>428.476</ele>
        <time>2014-07-05T10:14:00Z</time>
      </trkpt>
      <trkpt lat="42.33275" lon="2.68434">
        <ele>430.817</ele>
        <time>2014-07-05T10:14:13Z</time>
      </trkpt>
      <trkpt lat="42.33269" lon="2.68453">
        <ele>432.326</ele>
        <time>2014-07-05T10:14:23Z</time>
      </trkpt>
      <trkpt lat="42.3326" lon="2.68474">
        <ele>433.785</ele>
        <time>2014-07-05T10:14:34Z</time>
      </trkpt>
      <trkpt lat="42.33245" lon="2.68494">
        <ele>435.688</ele>
        <time>2014-07-05T10:14:48Z</time>
      </trkpt>
      <trkpt lat="42.33234" lon="2.6851">
        <ele>437.136</ele>
        <time>2014-07-05T10:14:55Z</time>
      </trkpt>
      <trkpt lat="42.33228" lon="2.68514">
        <ele>437.517</ele>
        <time>2014-07-05T10:14:58Z</time>
      </trkpt>
      <trkpt lat="42.33225" lon="2.68514">
        <ele>438.018</ele>
        <time>2014-07-05T10:15:00Z</time>
      </trkpt>
      <trkpt lat="42.3322" lon="2.68517">
        <ele>439.007</ele>
        <time>2014-07-05T10:15:06Z</time>
      </trkpt>
      <trkpt lat="42.33211" lon="2.68518">
        <ele>439.59</ele>
        <time>2014-07-05T10:15:12Z</time>
      </trkpt>
      <trkpt lat="42.33203" lon="2.68525">
        <ele>440.435</ele>
        <time>2014-07-05T10:15:19Z</time>
      </trkpt>
      <trkpt lat="42.33185" lon="2.68549">
        <ele>442.367</ele>
        <time>2014-07-05T10:15:31Z</time>
      </trkpt>
      <trkpt lat="42.33191" lon="2.68572">
        <ele>443.318</ele>
        <time>2014-07-05T10:15:42Z</time>
      </trkpt>
      <trkpt lat="42.332" lon="2.68574">
        <ele>444.347</ele>
        <time>2014-07-05T10:15:45Z</time>
      </trkpt>
      <trkpt lat="42.3321" lon="2.68578">
        <ele>445.296</ele>
        <time>2014-07-05T10:15:50Z</time>
      </trkpt>
      <trkpt lat="42.33213" lon="2.68584">
        <ele>445.729</ele>
        <time>2014-07-05T10:15:55Z</time>
      </trkpt>
      <trkpt lat="42.33213" lon="2.68593">
        <ele>445.767</ele>
        <time>2014-07-05T10:15:59Z</time>
      </trkpt>
      <trkpt lat="42.33241" lon="2.68616">
        <ele>445.281</ele>
        <time>2014-07-05T10:16:09Z</time>
      </trkpt>
      <trkpt lat="42.33263" lon="2.68633">
        <ele>444.819</ele>
        <time>2014-07-05T10:16:16Z</time>
      </trkpt>
      <trkpt lat="42.33299" lon="2.68674">
        <ele>443.807</ele>
        <time>2014-07-05T10:16:27Z</time>
      </trkpt>
      <trkpt lat="42.33314" lon="2.68725">
        <ele>445.273</ele>
        <time>2014-07-05T10:16:39Z</time>
      </trkpt>
      <trkpt lat="42.33324" lon="2.68759">
        <ele>447.658</ele>
        <time>2014-07-05T10:16:49Z</time>
      </trkpt>
      <trkpt lat="42.33326" lon="2.68775">
        <ele>448.61</ele>
        <time>2014-07-05T10:16:54Z</time>
      </trkpt>
      <trkpt lat="42.33325" lon="2.68821">
        <ele>452.091</ele>
        <time>2014-07-05T10:17:09Z</time>
      </trkpt>
      <trkpt lat="42.33313" lon="2.68848">
        <ele>453.42</ele>
        <time>2014-07-05T10:17:22Z</time>
      </trkpt>
      <trkpt lat="42.33298" lon="2.68871">
        <ele>456.379</ele>
        <time>2014-07-05T10:17:35Z</time>
      </trkpt>
      <trkpt lat="42.33293" lon="2.68898">
        <ele>460.642</ele>
        <time>2014-07-05T10:17:47Z</time>
      </trkpt>
      <trkpt lat="42.33293" lon="2.68899">
        <ele>460.642</ele>
        <time>2014-07-05T10:17:48Z</time>
      </trkpt>
      <trkpt lat="42.33293" lon="2.68913">
        <ele>460.622</ele>
        <time>2014-07-05T10:17:54Z</time>
      </trkpt>
      <trkpt lat="42.33306" lon="2.68933">
        <ele>463.014</ele>
        <time>2014-07-05T10:18:07Z</time>
      </trkpt>
      <trkpt lat="42.33308" lon="2.68937">
        <ele>464.007</ele>
        <time>2014-07-05T10:18:10Z</time>
      </trkpt>
      <trkpt lat="42.33306" lon="2.68946">
        <ele>464.581</ele>
        <time>2014-07-05T10:18:16Z</time>
      </trkpt>
      <trkpt lat="42.33308" lon="2.68964">
        <ele>466.986</ele>
        <time>2014-07-05T10:18:27Z</time>
      </trkpt>
      <trkpt lat="42.33309" lon="2.68966">
        <ele>467.368</ele>
        <time>2014-07-05T10:18:29Z</time>
      </trkpt>
      <trkpt lat="42.33312" lon="2.68972">
        <ele>467.879</ele>
        <time>2014-07-05T10:18:34Z</time>
      </trkpt>
      <trkpt lat="42.33325" lon="2.68981">
        <ele>469.368</ele>
        <time>2014-07-05T10:18:44Z</time>
      </trkpt>
      <trkpt lat="42.33327" lon="2.68984">
        <ele>469.727</ele>
        <time>2014-07-05T10:18:47Z</time>
      </trkpt>
      <trkpt lat="42.33344" lon="2.68992">
        <ele>471.75</ele>
        <time>2014-07-05T10:18:58Z</time>
      </trkpt>
      <trkpt lat="42.33358" lon="2.69">
        <ele>472.641</ele>
        <time>2014-07-05T10:19:08Z</time>
      </trkpt>
      <trkpt lat="42.33359" lon="2.69004">
        <ele>472.681</ele>
        <time>2014-07-05T10:19:10Z</time>
      </trkpt>
      <trkpt lat="42.33355" lon="2.69032">
        <ele>475.009</ele>
        <time>2014-07-05T10:19:24Z</time>
      </trkpt>
      <trkpt lat="42.33356" lon="2.69054">
        <ele>476.007</ele>
        <time>2014-07-05T10:19:34Z</time>
      </trkpt>
      <trkpt lat="42.33359" lon="2.69063">
        <ele>477.041</ele>
        <time>2014-07-05T10:19:39Z</time>
      </trkpt>
      <trkpt lat="42.33365" lon="2.6908">
        <ele>477.476</ele>
        <time>2014-07-05T10:19:48Z</time>
      </trkpt>
      <trkpt lat="42.3337" lon="2.69094">
        <ele>478.928</ele>
        <time>2014-07-05T10:19:55Z</time>
      </trkpt>
      <trkpt lat="42.33373" lon="2.69109">
        <ele>479.849</ele>
        <time>2014-07-05T10:20:03Z</time>
      </trkpt>
      <trkpt lat="42.33372" lon="2.69134">
        <ele>482.798</ele>
        <time>2014-07-05T10:20:15Z</time>
      </trkpt>
      <trkpt lat="42.33369" lon="2.6916">
        <ele>484.677</ele>
        <time>2014-07-05T10:20:28Z</time>
      </trkpt>
      <trkpt lat="42.33367" lon="2.69175">
        <ele>486.13</ele>
        <time>2014-07-05T10:20:41Z</time>
      </trkpt>
      <trkpt lat="42.33355" lon="2.69181">
        <ele>487.582</ele>
        <time>2014-07-05T10:20:51Z</time>
      </trkpt>
      <trkpt lat="42.33339" lon="2.69198">
        <ele>489.543</ele>
        <time>2014-07-05T10:21:04Z</time>
      </trkpt>
      <trkpt lat="42.33324" lon="2.69219">
        <ele>491.917</ele>
        <time>2014-07-05T10:21:17Z</time>
      </trkpt>
      <trkpt lat="42.33308" lon="2.69231">
        <ele>493.807</ele>
        <time>2014-07-05T10:21:26Z</time>
      </trkpt>
      <trkpt lat="42.333" lon="2.6923">
        <ele>495.245</ele>
        <time>2014-07-05T10:21:33Z</time>
      </trkpt>
      <trkpt lat="42.33304" lon="2.69211">
        <ele>497.17</ele>
        <time>2014-07-05T10:21:44Z</time>
      </trkpt>
      <trkpt lat="42.33314" lon="2.69187">
        <ele>499.522</ele>
        <time>2014-07-05T10:21:58Z</time>
      </trkpt>
      <trkpt lat="42.33321" lon="2.69168">
        <ele>501.583</ele>
        <time>2014-07-05T10:22:10Z</time>
      </trkpt>
      <trkpt lat="42.33325" lon="2.69163">
        <ele>502.462</ele>
        <time>2014-07-05T10:22:14Z</time>
      </trkpt>
      <trkpt lat="42.3333" lon="2.69152">
        <ele>502.961</ele>
        <time>2014-07-05T10:22:20Z</time>
      </trkpt>
      <trkpt lat="42.33336" lon="2.69144">
        <ele>504.474</ele>
        <time>2014-07-05T10:22:26Z</time>
      </trkpt>
      <trkpt lat="42.3334" lon="2.69135">
        <ele>504.824</ele>
        <time>2014-07-05T10:22:31Z</time>
      </trkpt>
      <trkpt lat="42.33342" lon="2.69129">
        <ele>504.804</ele>
        <time>2014-07-05T10:22:34Z</time>
      </trkpt>
      <trkpt lat="42.33342" lon="2.69116">
        <ele>505.314</ele>
        <time>2014-07-05T10:22:40Z</time>
      </trkpt>
      <trkpt lat="42.33334" lon="2.69103">
        <ele>506.807</ele>
        <time>2014-07-05T10:22:49Z</time>
      </trkpt>
      <trkpt lat="42.33334" lon="2.69095">
        <ele>507.229</ele>
        <time>2014-07-05T10:22:53Z</time>
      </trkpt>
      <trkpt lat="42.33333" lon="2.69091">
        <ele>507.274</ele>
        <time>2014-07-05T10:22:55Z</time>
      </trkpt>
      <trkpt lat="42.33332" lon="2.6909">
        <ele>507.726</ele>
        <time>2014-07-05T10:22:56Z</time>
      </trkpt>
      <trkpt lat="42.3333" lon="2.6908">
        <ele>508.727</ele>
        <time>2014-07-05T10:23:02Z</time>
      </trkpt>
      <trkpt lat="42.33321" lon="2.69077">
        <ele>509.646</ele>
        <time>2014-07-05T10:23:08Z</time>
      </trkpt>
      <trkpt lat="42.33303" lon="2.69073">
        <ele>510.685</ele>
        <time>2014-07-05T10:23:19Z</time>
      </trkpt>
      <trkpt lat="42.33299" lon="2.69071">
        <ele>511.198</ele>
        <time>2014-07-05T10:23:22Z</time>
      </trkpt>
      <trkpt lat="42.3328" lon="2.69057">
        <ele>512.051</ele>
        <time>2014-07-05T10:23:34Z</time>
      </trkpt>
      <trkpt lat="42.33279" lon="2.69052">
        <ele>512.001</ele>
        <time>2014-07-05T10:23:35Z</time>
      </trkpt>
      <trkpt lat="42.33279" lon="2.6905">
        <ele>512.011</ele>
        <time>2014-07-05T10:23:36Z</time>
      </trkpt>
      <trkpt lat="42.33278" lon="2.69048">
        <ele>512.507</ele>
        <time>2014-07-05T10:23:37Z</time>
      </trkpt>
      <trkpt lat="42.33274" lon="2.69045">
        <ele>512.552</ele>
        <time>2014-07-05T10:23:39Z</time>
      </trkpt>
      <trkpt lat="42.33269" lon="2.69029">
        <ele>513.037</ele>
        <time>2014-07-05T10:23:46Z</time>
      </trkpt>
      <trkpt lat="42.33263" lon="2.69011">
        <ele>514.479</ele>
        <time>2014-07-05T10:23:52Z</time>
      </trkpt>
      <trkpt lat="42.33256" lon="2.68966">
        <ele>513.59</ele>
        <time>2014-07-05T10:24:05Z</time>
      </trkpt>
      <trkpt lat="42.33245" lon="2.68931">
        <ele>514.039</ele>
        <time>2014-07-05T10:24:15Z</time>
      </trkpt>
      <trkpt lat="42.33233" lon="2.68879">
        <ele>514.418</ele>
        <time>2014-07-05T10:24:28Z</time>
      </trkpt>
      <trkpt lat="42.33236" lon="2.68836">
        <ele>515.921</ele>
        <time>2014-07-05T10:24:40Z</time>
      </trkpt>
      <trkpt lat="42.33249" lon="2.68802">
        <ele>517.821</ele>
        <time>2014-07-05T10:24:52Z</time>
      </trkpt>
      <trkpt lat="42.3325" lon="2.68795">
        <ele>518.341</ele>
        <time>2014-07-05T10:24:54Z</time>
      </trkpt>
      <trkpt lat="42.33241" lon="2.6877">
        <ele>519.305</ele>
        <time>2014-07-05T10:25:05Z</time>
      </trkpt>
      <trkpt lat="42.33232" lon="2.68759">
        <ele>518.807</ele>
        <time>2014-07-05T10:25:11Z</time>
      </trkpt>
      <trkpt lat="42.33213" lon="2.68737">
        <ele>518.329</ele>
        <time>2014-07-05T10:25:24Z</time>
      </trkpt>
      <trkpt lat="42.3321" lon="2.68739">
        <ele>518.324</ele>
        <time>2014-07-05T10:25:43Z</time>
      </trkpt>
      <trkpt lat="42.33207" lon="2.68739">
        <ele>518.826</ele>
        <time>2014-07-05T10:26:09Z</time>
      </trkpt>
      <trkpt lat="42.33207" lon="2.68739">
        <ele>518.387</ele>
        <time>2014-07-05T10:26:38Z</time>
      </trkpt>
      <trkpt lat="42.33207" lon="2.6874">
        <ele>518.386</ele>
        <time>2014-07-05T10:27:08Z</time>
      </trkpt>
      <trkpt lat="42.33209" lon="2.68739">
        <ele>517.815</ele>
        <time>2014-07-05T10:27:38Z</time>
      </trkpt>
      <trkpt lat="42.33209" lon="2.68738">
        <ele>517.868</ele>
        <time>2014-07-05T10:28:06Z</time>
      </trkpt>
      <trkpt lat="42.33208" lon="2.68739">
        <ele>518.385</ele>
        <time>2014-07-05T10:28:39Z</time>
      </trkpt>
      <trkpt lat="42.33208" lon="2.68739">
        <ele>517.889</ele>
        <time>2014-07-05T10:29:05Z</time>
      </trkpt>
      <trkpt lat="42.33208" lon="2.68739">
        <ele>518.317</ele>
        <time>2014-07-05T10:29:27Z</time>
      </trkpt>
      <trkpt lat="42.33205" lon="2.68736">
        <ele>518.307</ele>
        <time>2014-07-05T10:29:35Z</time>
      </trkpt>
      <trkpt lat="42.33198" lon="2.68733">
        <ele>517.865</ele>
        <time>2014-07-05T10:29:40Z</time>
      </trkpt>
      <trkpt lat="42.33191" lon="2.68731">
        <ele>517.81</ele>
        <time>2014-07-05T10:29:44Z</time>
      </trkpt>
      <trkpt lat="42.33184" lon="2.6873">
        <ele>518.382</ele>
        <time>2014-07-05T10:29:49Z</time>
      </trkpt>
      <trkpt lat="42.33169" lon="2.68739">
        <ele>520.233</ele>
        <time>2014-07-05T10:30:02Z</time>
      </trkpt>
      <trkpt lat="42.33156" lon="2.68743">
        <ele>521.222</ele>
        <time>2014-07-05T10:30:12Z</time>
      </trkpt>
      <trkpt lat="42.33146" lon="2.68743">
        <ele>522.131</ele>
        <time>2014-07-05T10:30:21Z</time>
      </trkpt>
      <trkpt lat="42.33133" lon="2.68746">
        <ele>523.134</ele>
        <time>2014-07-05T10:30:29Z</time>
      </trkpt>
      <trkpt lat="42.33125" lon="2.68749">
        <ele>524.137</ele>
        <time>2014-07-05T10:30:37Z</time>
      </trkpt>
      <trkpt lat="42.33103" lon="2.68756">
        <ele>526.549</ele>
        <time>2014-07-05T10:30:55Z</time>
      </trkpt>
      <trkpt lat="42.33089" lon="2.68759">
        <ele>528.413</ele>
        <time>2014-07-05T10:31:09Z</time>
      </trkpt>
      <trkpt lat="42.33078" lon="2.68765">
        <ele>530.307</ele>
        <time>2014-07-05T10:31:20Z</time>
      </trkpt>
      <trkpt lat="42.33072" lon="2.6877">
        <ele>530.83</ele>
        <time>2014-07-05T10:31:27Z</time>
      </trkpt>
      <trkpt lat="42.33062" lon="2.6878">
        <ele>532.235</ele>
        <time>2014-07-05T10:31:37Z</time>
      </trkpt>
      <trkpt lat="42.33049" lon="2.68798">
        <ele>534.297</ele>
        <time>2014-07-05T10:31:51Z</time>
      </trkpt>
      <trkpt lat="42.33047" lon="2.688">
        <ele>534.698</ele>
        <time>2014-07-05T10:31:53Z</time>
      </trkpt>
      <trkpt lat="42.33038" lon="2.6881">
        <ele>536.647</ele>
        <time>2014-07-05T10:32:04Z</time>
      </trkpt>
      <trkpt lat="42.3303" lon="2.68821">
        <ele>538.076</ele>
        <time>2014-07-05T10:32:16Z</time>
      </trkpt>
      <trkpt lat="42.33023" lon="2.68835">
        <ele>539.029</ele>
        <time>2014-07-05T10:32:28Z</time>
      </trkpt>
      <trkpt lat="42.33021" lon="2.68838">
        <ele>539.062</ele>
        <time>2014-07-05T10:32:42Z</time>
      </trkpt>
      <trkpt lat="42.33023" lon="2.6884">
        <ele>539.083</ele>
        <time>2014-07-05T10:33:09Z</time>
      </trkpt>
      <trkpt lat="42.33022" lon="2.6884">
        <ele>539.011</ele>
        <time>2014-07-05T10:33:35Z</time>
      </trkpt>
      <trkpt lat="42.33021" lon="2.6884">
        <ele>540.407</ele>
        <time>2014-07-05T10:33:58Z</time>
      </trkpt>
      <trkpt lat="42.33018" lon="2.68844">
        <ele>539.473</ele>
        <time>2014-07-05T10:34:18Z</time>
      </trkpt>
      <trkpt lat="42.33015" lon="2.68847">
        <ele>539.498</ele>
        <time>2014-07-05T10:34:21Z</time>
      </trkpt>
      <trkpt lat="42.32999" lon="2.68857">
        <ele>540.45</ele>
        <time>2014-07-05T10:34:33Z</time>
      </trkpt>
      <trkpt lat="42.32992" lon="2.68851">
        <ele>541.421</ele>
        <time>2014-07-05T10:34:39Z</time>
      </trkpt>
      <trkpt lat="42.32986" lon="2.68838">
        <ele>542.85</ele>
        <time>2014-07-05T10:34:47Z</time>
      </trkpt>
      <trkpt lat="42.32985" lon="2.68835">
        <ele>543.359</ele>
        <time>2014-07-05T10:34:49Z</time>
      </trkpt>
      <trkpt lat="42.32979" lon="2.6882">
        <ele>543.872</ele>
        <time>2014-07-05T10:34:57Z</time>
      </trkpt>
      <trkpt lat="42.32971" lon="2.68803">
        <ele>544.741</ele>
        <time>2014-07-05T10:35:07Z</time>
      </trkpt>
      <trkpt lat="42.3297" lon="2.68797">
        <ele>545.281</ele>
        <time>2014-07-05T10:35:11Z</time>
      </trkpt>
      <trkpt lat="42.32964" lon="2.68791">
        <ele>546.709</ele>
        <time>2014-07-05T10:35:16Z</time>
      </trkpt>
      <trkpt lat="42.32943" lon="2.68785">
        <ele>548.607</ele>
        <time>2014-07-05T10:35:31Z</time>
      </trkpt>
      <trkpt lat="42.32935" lon="2.68781">
        <ele>549.161</ele>
        <time>2014-07-05T10:35:40Z</time>
      </trkpt>
      <trkpt lat="42.32924" lon="2.68767">
        <ele>548.656</ele>
        <time>2014-07-05T10:35:50Z</time>
      </trkpt>
      <trkpt lat="42.32892" lon="2.6874">
        <ele>546.798</ele>
        <time>2014-07-05T10:36:02Z</time>
      </trkpt>
      <trkpt lat="42.32881" lon="2.68738">
        <ele>545.769</ele>
        <time>2014-07-05T10:36:07Z</time>
      </trkpt>
      <trkpt lat="42.32875" lon="2.68741">
        <ele>544.788</ele>
        <time>2014-07-05T10:36:11Z</time>
      </trkpt>
      <trkpt lat="42.32884" lon="2.68756">
        <ele>542.897</ele>
        <time>2014-07-05T10:36:19Z</time>
      </trkpt>
      <trkpt lat="42.32886" lon="2.68758">
        <ele>542.37</ele>
        <time>2014-07-05T10:36:20Z</time>
      </trkpt>
      <trkpt lat="42.32893" lon="2.68768">
        <ele>540.424</ele>
        <time>2014-07-05T10:36:23Z</time>
      </trkpt>
      <trkpt lat="42.32901" lon="2.688">
        <ele>536.604</ele>
        <time>2014-07-05T10:36:28Z</time>
      </trkpt>
      <trkpt lat="42.32901" lon="2.68816">
        <ele>535.114</ele>
        <time>2014-07-05T10:36:30Z</time>
      </trkpt>
      <trkpt lat="42.329" lon="2.68832">
        <ele>532.707</ele>
        <time>2014-07-05T10:36:32Z</time>
      </trkpt>
      <trkpt lat="42.32896" lon="2.68861">
        <ele>529.819</ele>
        <time>2014-07-05T10:36:36Z</time>
      </trkpt>
      <trkpt lat="42.32874" lon="2.68888">
        <ele>526.054</ele>
        <time>2014-07-05T10:36:41Z</time>
      </trkpt>
      <trkpt lat="42.32865" lon="2.68898">
        <ele>524.546</ele>
        <time>2014-07-05T10:36:43Z</time>
      </trkpt>
      <trkpt lat="42.32857" lon="2.68923">
        <ele>521.767</ele>
        <time>2014-07-05T10:36:47Z</time>
      </trkpt>
      <trkpt lat="42.32852" lon="2.68954">
        <ele>517.346</ele>
        <time>2014-07-05T10:36:51Z</time>
      </trkpt>
      <trkpt lat="42.32831" lon="2.68984">
        <ele>513.035</ele>
        <time>2014-07-05T10:36:57Z</time>
      </trkpt>
      <trkpt lat="42.32826" lon="2.68983">
        <ele>512.598</ele>
        <time>2014-07-05T10:36:58Z</time>
      </trkpt>
      <trkpt lat="42.32804" lon="2.68975">
        <ele>510.164</ele>
        <time>2014-07-05T10:37:03Z</time>
      </trkpt>
      <trkpt lat="42.32794" lon="2.68968">
        <ele>508.206</ele>
        <time>2014-07-05T10:37:05Z</time>
      </trkpt>
      <trkpt lat="42.32772" lon="2.68958">
        <ele>504.416</ele>
        <time>2014-07-05T10:37:08Z</time>
      </trkpt>
      <trkpt lat="42.32766" lon="2.68956">
        <ele>503.407</ele>
        <time>2014-07-05T10:37:09Z</time>
      </trkpt>
      <trkpt lat="42.32737" lon="2.68937">
        <ele>498.643</ele>
        <time>2014-07-05T10:37:14Z</time>
      </trkpt>
      <trkpt lat="42.32731" lon="2.68934">
        <ele>497.658</ele>
        <time>2014-07-05T10:37:15Z</time>
      </trkpt>
      <trkpt lat="42.32704" lon="2.68924">
        <ele>493.37</ele>
        <time>2014-07-05T10:37:19Z</time>
      </trkpt>
      <trkpt lat="42.32697" lon="2.68922">
        <ele>491.921</ele>
        <time>2014-07-05T10:37:20Z</time>
      </trkpt>
      <trkpt lat="42.32673" lon="2.68917">
        <ele>487.56</ele>
        <time>2014-07-05T10:37:23Z</time>
      </trkpt>
      <trkpt lat="42.32639" lon="2.68927">
        <ele>482.269</ele>
        <time>2014-07-05T10:37:27Z</time>
      </trkpt>
      <trkpt lat="42.32608" lon="2.6896">
        <ele>477.932</ele>
        <time>2014-07-05T10:37:31Z</time>
      </trkpt>
      <trkpt lat="42.3258" lon="2.68992">
        <ele>473.656</ele>
        <time>2014-07-05T10:37:34Z</time>
      </trkpt>
      <trkpt lat="42.32538" lon="2.69033">
        <ele>469.759</ele>
        <time>2014-07-05T10:37:38Z</time>
      </trkpt>
      <trkpt lat="42.32516" lon="2.69048">
        <ele>468.314</ele>
        <time>2014-07-05T10:37:40Z</time>
      </trkpt>
      <trkpt lat="42.3245" lon="2.69076">
        <ele>464.907</ele>
        <time>2014-07-05T10:37:46Z</time>
      </trkpt>
      <trkpt lat="42.3243" lon="2.6908">
        <ele>464.042</ele>
        <time>2014-07-05T10:37:48Z</time>
      </trkpt>
      <trkpt lat="42.32384" lon="2.69112">
        <ele>459.717</ele>
        <time>2014-07-05T10:37:53Z</time>
      </trkpt>
      <trkpt lat="42.32361" lon="2.69133">
        <ele>456.869</ele>
        <time>2014-07-05T10:37:55Z</time>
      </trkpt>
      <trkpt lat="42.32335" lon="2.69143">
        <ele>455.34</ele>
        <time>2014-07-05T10:37:58Z</time>
      </trkpt>
      <trkpt lat="42.32328" lon="2.69145">
        <ele>454.469</ele>
        <time>2014-07-05T10:37:59Z</time>
      </trkpt>
      <trkpt lat="42.32303" lon="2.6915">
        <ele>453.438</ele>
        <time>2014-07-05T10:38:01Z</time>
      </trkpt>
      <trkpt lat="42.32281" lon="2.69151">
        <ele>451.511</ele>
        <time>2014-07-05T10:38:03Z</time>
      </trkpt>
      <trkpt lat="42.32267" lon="2.69155">
        <ele>450.088</ele>
        <time>2014-07-05T10:38:06Z</time>
      </trkpt>
      <trkpt lat="42.32261" lon="2.69158">
        <ele>449.124</ele>
        <time>2014-07-05T10:38:07Z</time>
      </trkpt>
      <trkpt lat="42.32253" lon="2.69168">
        <ele>446.226</ele>
        <time>2014-07-05T10:38:09Z</time>
      </trkpt>
      <trkpt lat="42.32251" lon="2.69202">
        <ele>443.307</ele>
        <time>2014-07-05T10:38:13Z</time>
      </trkpt>
      <trkpt lat="42.32253" lon="2.69225">
        <ele>439.585</ele>
        <time>2014-07-05T10:38:15Z</time>
      </trkpt>
      <trkpt lat="42.32254" lon="2.69238">
        <ele>438.02</ele>
        <time>2014-07-05T10:38:16Z</time>
      </trkpt>
      <trkpt lat="42.32244" lon="2.69289">
        <ele>432.792</ele>
        <time>2014-07-05T10:38:20Z</time>
      </trkpt>
      <trkpt lat="42.32238" lon="2.69311">
        <ele>429.963</ele>
        <time>2014-07-05T10:38:22Z</time>
      </trkpt>
      <trkpt lat="42.32236" lon="2.6932">
        <ele>428.932</ele>
        <time>2014-07-05T10:38:23Z</time>
      </trkpt>
      <trkpt lat="42.32241" lon="2.69355">
        <ele>426.031</ele>
        <time>2014-07-05T10:38:27Z</time>
      </trkpt>
      <trkpt lat="42.32249" lon="2.69374">
        <ele>425.564</ele>
        <time>2014-07-05T10:38:29Z</time>
      </trkpt>
      <trkpt lat="42.32257" lon="2.69391">
        <ele>422.633</ele>
        <time>2014-07-05T10:38:31Z</time>
      </trkpt>
      <trkpt lat="42.32265" lon="2.69417">
        <ele>417.823</ele>
        <time>2014-07-05T10:38:35Z</time>
      </trkpt>
      <trkpt lat="42.32252" lon="2.694">
        <ele>414.015</ele>
        <time>2014-07-05T10:38:40Z</time>
      </trkpt>
      <trkpt lat="42.32246" lon="2.69392">
        <ele>413.507</ele>
        <time>2014-07-05T10:38:41Z</time>
      </trkpt>
      <trkpt lat="42.32227" lon="2.69365">
        <ele>411.62</ele>
        <time>2014-07-05T10:38:44Z</time>
      </trkpt>
      <trkpt lat="42.32202" lon="2.69324">
        <ele>408.765</ele>
        <time>2014-07-05T10:38:48Z</time>
      </trkpt>
      <trkpt lat="42.32186" lon="2.69283">
        <ele>405.377</ele>
        <time>2014-07-05T10:38:52Z</time>
      </trkpt>
      <trkpt lat="42.32176" lon="2.69265">
        <ele>403.428</ele>
        <time>2014-07-05T10:38:54Z</time>
      </trkpt>
      <trkpt lat="42.32166" lon="2.69258">
        <ele>401.587</ele>
        <time>2014-07-05T10:38:56Z</time>
      </trkpt>
      <trkpt lat="42.32158" lon="2.69262">
        <ele>400.516</ele>
        <time>2014-07-05T10:38:58Z</time>
      </trkpt>
      <trkpt lat="42.32155" lon="2.69287">
        <ele>397.289</ele>
        <time>2014-07-05T10:39:04Z</time>
      </trkpt>
      <trkpt lat="42.32153" lon="2.69301">
        <ele>395.774</ele>
        <time>2014-07-05T10:39:06Z</time>
      </trkpt>
      <trkpt lat="42.32149" lon="2.69327">
        <ele>391.456</ele>
        <time>2014-07-05T10:39:11Z</time>
      </trkpt>
      <trkpt lat="42.32148" lon="2.69344">
        <ele>389.021</ele>
        <time>2014-07-05T10:39:15Z</time>
      </trkpt>
      <trkpt lat="42.3216" lon="2.69351">
        <ele>389.507</ele>
        <time>2014-07-05T10:39:24Z</time>
      </trkpt>
      <trkpt lat="42.32178" lon="2.69351">
        <ele>389.544</ele>
        <time>2014-07-05T10:39:31Z</time>
      </trkpt>
      <trkpt lat="42.32192" lon="2.69367">
        <ele>388.099</ele>
        <time>2014-07-05T10:39:39Z</time>
      </trkpt>
      <trkpt lat="42.32195" lon="2.69371">
        <ele>388.081</ele>
        <time>2014-07-05T10:39:46Z</time>
      </trkpt>
      <trkpt lat="42.32201" lon="2.69378">
        <ele>387.622</ele>
        <time>2014-07-05T10:39:50Z</time>
      </trkpt>
      <trkpt lat="42.32208" lon="2.69395">
        <ele>386.191</ele>
        <time>2014-07-05T10:39:54Z</time>
      </trkpt>
      <trkpt lat="42.32199" lon="2.69413">
        <ele>384.73</ele>
        <time>2014-07-05T10:39:58Z</time>
      </trkpt>
      <trkpt lat="42.32177" lon="2.69432">
        <ele>379.923</ele>
        <time>2014-07-05T10:40:02Z</time>
      </trkpt>
      <trkpt lat="42.32139" lon="2.69453">
        <ele>376.056</ele>
        <time>2014-07-05T10:40:06Z</time>
      </trkpt>
      <trkpt lat="42.3212" lon="2.69458">
        <ele>373.659</ele>
        <time>2014-07-05T10:40:08Z</time>
      </trkpt>
      <trkpt lat="42.32092" lon="2.69464">
        <ele>369.814</ele>
        <time>2014-07-05T10:40:11Z</time>
      </trkpt>
      <trkpt lat="42.32066" lon="2.69479">
        <ele>365.907</ele>
        <time>2014-07-05T10:40:14Z</time>
      </trkpt>
      <trkpt lat="42.32061" lon="2.69483">
        <ele>365.992</ele>
        <time>2014-07-05T10:40:15Z</time>
      </trkpt>
      <trkpt lat="42.32048" lon="2.69493">
        <ele>362.697</ele>
        <time>2014-07-05T10:40:17Z</time>
      </trkpt>
      <trkpt lat="42.32033" lon="2.6951">
        <ele>360.289</ele>
        <time>2014-07-05T10:40:20Z</time>
      </trkpt>
      <trkpt lat="42.32033" lon="2.6952">
        <ele>359.72</ele>
        <time>2014-07-05T10:40:21Z</time>
      </trkpt>
      <trkpt lat="42.32032" lon="2.69537">
        <ele>359.269</ele>
        <time>2014-07-05T10:40:23Z</time>
      </trkpt>
      <trkpt lat="42.3202" lon="2.69573">
        <ele>356.818</ele>
        <time>2014-07-05T10:40:27Z</time>
      </trkpt>
      <trkpt lat="42.32015" lon="2.69611">
        <ele>352.971</ele>
        <time>2014-07-05T10:40:30Z</time>
      </trkpt>
      <trkpt lat="42.32007" lon="2.69638">
        <ele>351.568</ele>
        <time>2014-07-05T10:40:32Z</time>
      </trkpt>
      <trkpt lat="42.32001" lon="2.69664">
        <ele>349.642</ele>
        <time>2014-07-05T10:40:34Z</time>
      </trkpt>
      <trkpt lat="42.31996" lon="2.69685">
        <ele>344.326</ele>
        <time>2014-07-05T10:40:36Z</time>
      </trkpt>
      <trkpt lat="42.31992" lon="2.69702">
        <ele>342.407</ele>
        <time>2014-07-05T10:40:38Z</time>
      </trkpt>
      <trkpt lat="42.31995" lon="2.69745">
        <ele>340.073</ele>
        <time>2014-07-05T10:40:42Z</time>
      </trkpt>
      <trkpt lat="42.31994" lon="2.69753">
        <ele>339.028</ele>
        <time>2014-07-05T10:40:43Z</time>
      </trkpt>
      <trkpt lat="42.31993" lon="2.69765">
        <ele>339.08</ele>
        <time>2014-07-05T10:40:45Z</time>
      </trkpt>
      <trkpt lat="42.31971" lon="2.69788">
        <ele>336.661</ele>
        <time>2014-07-05T10:40:49Z</time>
      </trkpt>
      <trkpt lat="42.31954" lon="2.69819">
        <ele>335.24</ele>
        <time>2014-07-05T10:40:52Z</time>
      </trkpt>
      <trkpt lat="42.3194" lon="2.69856">
        <ele>328.469</ele>
        <time>2014-07-05T10:40:55Z</time>
      </trkpt>
      <trkpt lat="42.31932" lon="2.69882">
        <ele>324.652</ele>
        <time>2014-07-05T10:40:57Z</time>
      </trkpt>
      <trkpt lat="42.31921" lon="2.69909">
        <ele>321.279</ele>
        <time>2014-07-05T10:40:59Z</time>
      </trkpt>
      <trkpt lat="42.31916" lon="2.69918">
        <ele>320.305</ele>
        <time>2014-07-05T10:41:00Z</time>
      </trkpt>
      <trkpt lat="42.31889" lon="2.6996">
        <ele>317.425</ele>
        <time>2014-07-05T10:41:06Z</time>
      </trkpt>
      <trkpt lat="42.31885" lon="2.69967">
        <ele>316.907</ele>
        <time>2014-07-05T10:41:07Z</time>
      </trkpt>
      <trkpt lat="42.31877" lon="2.69985">
        <ele>315.044</ele>
        <time>2014-07-05T10:41:09Z</time>
      </trkpt>
      <trkpt lat="42.31862" lon="2.70011">
        <ele>312.169</ele>
        <time>2014-07-05T10:41:13Z</time>
      </trkpt>
      <trkpt lat="42.31852" lon="2.70031">
        <ele>308.741</ele>
        <time>2014-07-05T10:41:16Z</time>
      </trkpt>
      <trkpt lat="42.31842" lon="2.70045">
        <ele>306.822</ele>
        <time>2014-07-05T10:41:18Z</time>
      </trkpt>
      <trkpt lat="42.31832" lon="2.70062">
        <ele>304.431</ele>
        <time>2014-07-05T10:41:20Z</time>
      </trkpt>
      <trkpt lat="42.3182" lon="2.70082">
        <ele>302.57</ele>
        <time>2014-07-05T10:41:22Z</time>
      </trkpt>
      <trkpt lat="42.31808" lon="2.70103">
        <ele>300.153</ele>
        <time>2014-07-05T10:41:24Z</time>
      </trkpt>
      <trkpt lat="42.31798" lon="2.70119">
        <ele>297.753</ele>
        <time>2014-07-05T10:41:26Z</time>
      </trkpt>
      <trkpt lat="42.31774" lon="2.70144">
        <ele>293.304</ele>
        <time>2014-07-05T10:41:31Z</time>
      </trkpt>
      <trkpt lat="42.31737" lon="2.7017">
        <ele>295.314</ele>
        <time>2014-07-05T10:41:38Z</time>
      </trkpt>
      <trkpt lat="42.31703" lon="2.70207">
        <ele>292.407</ele>
        <time>2014-07-05T10:41:50Z</time>
      </trkpt>
      <trkpt lat="42.3168" lon="2.70237">
        <ele>289.082</ele>
        <time>2014-07-05T10:41:59Z</time>
      </trkpt>
      <trkpt lat="42.31673" lon="2.7024">
        <ele>287.197</ele>
        <time>2014-07-05T10:42:01Z</time>
      </trkpt>
      <trkpt lat="42.3166" lon="2.70235">
        <ele>285.299</ele>
        <time>2014-07-05T10:42:06Z</time>
      </trkpt>
      <trkpt lat="42.31658" lon="2.70234">
        <ele>284.74</ele>
        <time>2014-07-05T10:42:07Z</time>
      </trkpt>
      <trkpt lat="42.31635" lon="2.7022">
        <ele>281.379</ele>
        <time>2014-07-05T10:42:17Z</time>
      </trkpt>
      <trkpt lat="42.31632" lon="2.70222">
        <ele>281.878</ele>
        <time>2014-07-05T10:42:28Z</time>
      </trkpt>
      <trkpt lat="42.31637" lon="2.7023">
        <ele>282.841</ele>
        <time>2014-07-05T10:42:48Z</time>
      </trkpt>
      <trkpt lat="42.31638" lon="2.70233">
        <ele>283.764</ele>
        <time>2014-07-05T10:43:14Z</time>
      </trkpt>
      <trkpt lat="42.31645" lon="2.70237">
        <ele>284.706</ele>
        <time>2014-07-05T10:43:36Z</time>
      </trkpt>
      <trkpt lat="42.31646" lon="2.70237">
        <ele>285.216</ele>
        <time>2014-07-05T10:43:51Z</time>
      </trkpt>
      <trkpt lat="42.31647" lon="2.70238">
        <ele>285.207</ele>
        <time>2014-07-05T10:43:55Z</time>
      </trkpt>
      <trkpt lat="42.3164" lon="2.70235">
        <ele>284.773</ele>
        <time>2014-07-05T10:43:58Z</time>
      </trkpt>
      <trkpt lat="42.31623" lon="2.70237">
        <ele>283.738</ele>
        <time>2014-07-05T10:44:02Z</time>
      </trkpt>
      <trkpt lat="42.3159" lon="2.7025">
        <ele>280.86</ele>
        <time>2014-07-05T10:44:08Z</time>
      </trkpt>
      <trkpt lat="42.31543" lon="2.70283">
        <ele>280.851</ele>
        <time>2014-07-05T10:44:17Z</time>
      </trkpt>
      <trkpt lat="42.31521" lon="2.70306">
        <ele>281.81</ele>
        <time>2014-07-05T10:44:29Z</time>
      </trkpt>
      <trkpt lat="42.31498" lon="2.70323">
        <ele>283.359</ele>
        <time>2014-07-05T10:44:40Z</time>
      </trkpt>
      <trkpt lat="42.31483" lon="2.7034">
        <ele>285.272</ele>
        <time>2014-07-05T10:44:51Z</time>
      </trkpt>
      <trkpt lat="42.31461" lon="2.7036">
        <ele>286.173</ele>
        <time>2014-07-05T10:45:03Z</time>
      </trkpt>
      <trkpt lat="42.31426" lon="2.70368">
        <ele>286.185</ele>
        <time>2014-07-05T10:45:15Z</time>
      </trkpt>
      <trkpt lat="42.31389" lon="2.70374">
        <ele>285.713</ele>
        <time>2014-07-05T10:45:26Z</time>
      </trkpt>
      <trkpt lat="42.31368" lon="2.70372">
        <ele>285.207</ele>
        <time>2014-07-05T10:45:32Z</time>
      </trkpt>
      <trkpt lat="42.31359" lon="2.70367">
        <ele>285.254</ele>
        <time>2014-07-05T10:45:34Z</time>
      </trkpt>
      <trkpt lat="42.31345" lon="2.70356">
        <ele>284.729</ele>
        <time>2014-07-05T10:45:38Z</time>
      </trkpt>
      <trkpt lat="42.31333" lon="2.70351">
        <ele>284.771</ele>
        <time>2014-07-05T10:45:41Z</time>
      </trkpt>
      <trkpt lat="42.31318" lon="2.70332">
        <ele>284.712</ele>
        <time>2014-07-05T10:45:46Z</time>
      </trkpt>
      <trkpt lat="42.31308" lon="2.70281">
        <ele>283.341</ele>
        <time>2014-07-05T10:45:55Z</time>
      </trkpt>
      <trkpt lat="42.31313" lon="2.70266">
        <ele>282.88</ele>
        <time>2014-07-05T10:45:57Z</time>
      </trkpt>
      <trkpt lat="42.31309" lon="2.70215">
        <ele>279.463</ele>
        <time>2014-07-05T10:46:03Z</time>
      </trkpt>
      <trkpt lat="42.31305" lon="2.70211">
        <ele>278.973</ele>
        <time>2014-07-05T10:46:04Z</time>
      </trkpt>
      <trkpt lat="42.31294" lon="2.70204">
        <ele>278.485</ele>
        <time>2014-07-05T10:46:06Z</time>
      </trkpt>
      <trkpt lat="42.31262" lon="2.70188">
        <ele>277.013</ele>
        <time>2014-07-05T10:46:12Z</time>
      </trkpt>
      <trkpt lat="42.31216" lon="2.70214">
        <ele>279.407</ele>
        <time>2014-07-05T10:46:25Z</time>
      </trkpt>
      <trkpt lat="42.3119" lon="2.7024">
        <ele>279.974</ele>
        <time>2014-07-05T10:46:34Z</time>
      </trkpt>
      <trkpt lat="42.3117" lon="2.70274">
        <ele>278.419</ele>
        <time>2014-07-05T10:46:40Z</time>
      </trkpt>
      <trkpt lat="42.31161" lon="2.70284">
        <ele>278.031</ele>
        <time>2014-07-05T10:46:42Z</time>
      </trkpt>
      <trkpt lat="42.31119" lon="2.7035">
        <ele>278.032</ele>
        <time>2014-07-05T10:46:55Z</time>
      </trkpt>
      <trkpt lat="42.31093" lon="2.7038">
        <ele>279.961</ele>
        <time>2014-07-05T10:47:06Z</time>
      </trkpt>
      <trkpt lat="42.31086" lon="2.7038">
        <ele>279.43</ele>
        <time>2014-07-05T10:47:08Z</time>
      </trkpt>
      <trkpt lat="42.31077" lon="2.70378">
        <ele>279.423</ele>
        <time>2014-07-05T10:47:10Z</time>
      </trkpt>
      <trkpt lat="42.31061" lon="2.70375">
        <ele>278.494</ele>
        <time>2014-07-05T10:47:14Z</time>
      </trkpt>
      <trkpt lat="42.31048" lon="2.70373">
        <ele>278.457</ele>
        <time>2014-07-05T10:47:17Z</time>
      </trkpt>
      <trkpt lat="42.31027" lon="2.70377">
        <ele>277.522</ele>
        <time>2014-07-05T10:47:20Z</time>
      </trkpt>
      <trkpt lat="42.30978" lon="2.70387">
        <ele>274.607</ele>
        <time>2014-07-05T10:47:26Z</time>
      </trkpt>
      <trkpt lat="42.30912" lon="2.70406">
        <ele>273.216</ele>
        <time>2014-07-05T10:47:34Z</time>
      </trkpt>
      <trkpt lat="42.30847" lon="2.70438">
        <ele>272.281</ele>
        <time>2014-07-05T10:47:42Z</time>
      </trkpt>
      <trkpt lat="42.30832" lon="2.70446">
        <ele>273.223</ele>
        <time>2014-07-05T10:47:45Z</time>
      </trkpt>
      <trkpt lat="42.30789" lon="2.70481">
        <ele>275.624</ele>
        <time>2014-07-05T10:48:00Z</time>
      </trkpt>
      <trkpt lat="42.30752" lon="2.70509">
        <ele>272.293</ele>
        <time>2014-07-05T10:48:07Z</time>
      </trkpt>
      <trkpt lat="42.30735" lon="2.70519">
        <ele>270.822</ele>
        <time>2014-07-05T10:48:09Z</time>
      </trkpt>
      <trkpt lat="42.30693" lon="2.70545">
        <ele>268.495</ele>
        <time>2014-07-05T10:48:14Z</time>
      </trkpt>
      <trkpt lat="42.3068" lon="2.70577">
        <ele>266.445</ele>
        <time>2014-07-05T10:48:18Z</time>
      </trkpt>
      <trkpt lat="42.30679" lon="2.70588">
        <ele>265.947</ele>
        <time>2014-07-05T10:48:19Z</time>
      </trkpt>
      <trkpt lat="42.30693" lon="2.70642">
        <ele>266.411</ele>
        <time>2014-07-05T10:48:24Z</time>
      </trkpt>
      <trkpt lat="42.30718" lon="2.70686">
        <ele>267.407</ele>
        <time>2014-07-05T10:48:29Z</time>
      </trkpt>
      <trkpt lat="42.30731" lon="2.70704">
        <ele>268.451</ele>
        <time>2014-07-05T10:48:31Z</time>
      </trkpt>
      <trkpt lat="42.30745" lon="2.7073">
        <ele>269.876</ele>
        <time>2014-07-05T10:48:35Z</time>
      </trkpt>
      <trkpt lat="42.3075" lon="2.70762">
        <ele>270.358</ele>
        <time>2014-07-05T10:48:40Z</time>
      </trkpt>
      <trkpt lat="42.3075" lon="2.70803">
        <ele>269.889</ele>
        <time>2014-07-05T10:48:46Z</time>
      </trkpt>
      <trkpt lat="42.30751" lon="2.70828">
        <ele>270.388</ele>
        <time>2014-07-05T10:48:50Z</time>
      </trkpt>
      <trkpt lat="42.30748" lon="2.70875">
        <ele>270.377</ele>
        <time>2014-07-05T10:48:57Z</time>
      </trkpt>
      <trkpt lat="42.3074" lon="2.70905">
        <ele>270.81</ele>
        <time>2014-07-05T10:49:02Z</time>
      </trkpt>
      <trkpt lat="42.30711" lon="2.70919">
        <ele>270.829</ele>
        <time>2014-07-05T10:49:10Z</time>
      </trkpt>
      <trkpt lat="42.30681" lon="2.70902">
        <ele>270.8</ele>
        <time>2014-07-05T10:49:18Z</time>
      </trkpt>
      <trkpt lat="42.30662" lon="2.709">
        <ele>272.22</ele>
        <time>2014-07-05T10:49:24Z</time>
      </trkpt>
      <trkpt lat="42.30634" lon="2.70932">
        <ele>274.607</ele>
        <time>2014-07-05T10:49:35Z</time>
      </trkpt>
      <trkpt lat="42.30632" lon="2.70974">
        <ele>277.529</ele>
        <time>2014-07-05T10:49:44Z</time>
      </trkpt>
      <trkpt lat="42.30626" lon="2.71006">
        <ele>278.034</ele>
        <time>2014-07-05T10:49:51Z</time>
      </trkpt>
      <trkpt lat="42.3062" lon="2.71071">
        <ele>278.036</ele>
        <time>2014-07-05T10:50:04Z</time>
      </trkpt>
      <trkpt lat="42.30622" lon="2.71113">
        <ele>277.557</ele>
        <time>2014-07-05T10:50:12Z</time>
      </trkpt>
      <trkpt lat="42.30636" lon="2.71198">
        <ele>274.166</ele>
        <time>2014-07-05T10:50:23Z</time>
      </trkpt>
      <trkpt lat="42.30643" lon="2.71292">
        <ele>272.225</ele>
        <time>2014-07-05T10:50:32Z</time>
      </trkpt>
      <trkpt lat="42.30626" lon="2.71409">
        <ele>270.368</ele>
        <time>2014-07-05T10:50:45Z</time>
      </trkpt>
      <trkpt lat="42.30622" lon="2.71437">
        <ele>269.371</ele>
        <time>2014-07-05T10:50:48Z</time>
      </trkpt>
      <trkpt lat="42.30623" lon="2.71499">
        <ele>266.441</ele>
        <time>2014-07-05T10:50:54Z</time>
      </trkpt>
      <trkpt lat="42.30622" lon="2.71515">
        <ele>265.015</ele>
        <time>2014-07-05T10:50:56Z</time>
      </trkpt>
      <trkpt lat="42.30614" lon="2.71529">
        <ele>264.507</ele>
        <time>2014-07-05T10:50:59Z</time>
      </trkpt>
      <trkpt lat="42.30606" lon="2.71535">
        <ele>264.584</ele>
        <time>2014-07-05T10:51:01Z</time>
      </trkpt>
      <trkpt lat="42.30601" lon="2.71585">
        <ele>261.129</ele>
        <time>2014-07-05T10:51:07Z</time>
      </trkpt>
      <trkpt lat="42.30612" lon="2.71637">
        <ele>260.781</ele>
        <time>2014-07-05T10:51:12Z</time>
      </trkpt>
      <trkpt lat="42.30607" lon="2.71686">
        <ele>261.642</ele>
        <time>2014-07-05T10:51:19Z</time>
      </trkpt>
      <trkpt lat="42.30564" lon="2.7174">
        <ele>262.651</ele>
        <time>2014-07-05T10:51:35Z</time>
      </trkpt>
      <trkpt lat="42.30545" lon="2.71818">
        <ele>262.67</ele>
        <time>2014-07-05T10:51:50Z</time>
      </trkpt>
      <trkpt lat="42.30544" lon="2.71885">
        <ele>262.173</ele>
        <time>2014-07-05T10:52:01Z</time>
      </trkpt>
      <trkpt lat="42.3055" lon="2.71938">
        <ele>262.625</ele>
        <time>2014-07-05T10:52:09Z</time>
      </trkpt>
      <trkpt lat="42.3055" lon="2.71974">
        <ele>261.126</ele>
        <time>2014-07-05T10:52:14Z</time>
      </trkpt>
      <trkpt lat="42.30538" lon="2.71992">
        <ele>260.208</ele>
        <time>2014-07-05T10:52:18Z</time>
      </trkpt>
      <trkpt lat="42.3052" lon="2.71998">
        <ele>259.207</ele>
        <time>2014-07-05T10:52:22Z</time>
      </trkpt>
      <trkpt lat="42.3051" lon="2.72026">
        <ele>258.389</ele>
        <time>2014-07-05T10:52:29Z</time>
      </trkpt>
      <trkpt lat="42.30551" lon="2.72106">
        <ele>258.394</ele>
        <time>2014-07-05T10:52:44Z</time>
      </trkpt>
      <trkpt lat="42.30554" lon="2.72112">
        <ele>258.346</ele>
        <time>2014-07-05T10:52:45Z</time>
      </trkpt>
      <trkpt lat="42.30581" lon="2.72166">
        <ele>257.827</ele>
        <time>2014-07-05T10:52:54Z</time>
      </trkpt>
      <trkpt lat="42.30598" lon="2.72203">
        <ele>257.836</ele>
        <time>2014-07-05T10:53:00Z</time>
      </trkpt>
      <trkpt lat="42.30602" lon="2.72239">
        <ele>257.895</ele>
        <time>2014-07-05T10:53:05Z</time>
      </trkpt>
      <trkpt lat="42.30598" lon="2.72283">
        <ele>257.878</ele>
        <time>2014-07-05T10:53:11Z</time>
      </trkpt>
      <trkpt lat="42.30596" lon="2.72314">
        <ele>257.899</ele>
        <time>2014-07-05T10:53:15Z</time>
      </trkpt>
      <trkpt lat="42.30591" lon="2.72433">
        <ele>256.307</ele>
        <time>2014-07-05T10:53:30Z</time>
      </trkpt>
      <trkpt lat="42.30582" lon="2.7255">
        <ele>254.427</ele>
        <time>2014-07-05T10:53:44Z</time>
      </trkpt>
      <trkpt lat="42.30581" lon="2.72567">
        <ele>254.407</ele>
        <time>2014-07-05T10:53:46Z</time>
      </trkpt>
      <trkpt lat="42.30575" lon="2.72691">
        <ele>253.076</ele>
        <time>2014-07-05T10:54:02Z</time>
      </trkpt>
      <trkpt lat="42.30566" lon="2.72818">
        <ele>251.091</ele>
        <time>2014-07-05T10:54:18Z</time>
      </trkpt>
      <trkpt lat="42.30565" lon="2.72968">
        <ele>250.123</ele>
        <time>2014-07-05T10:54:34Z</time>
      </trkpt>
      <trkpt lat="42.30595" lon="2.73138">
        <ele>246.754</ele>
        <time>2014-07-05T10:54:53Z</time>
      </trkpt>
      <trkpt lat="42.30623" lon="2.73295">
        <ele>245.873</ele>
        <time>2014-07-05T10:55:10Z</time>
      </trkpt>
      <trkpt lat="42.3065" lon="2.73452">
        <ele>245.352</ele>
        <time>2014-07-05T10:55:26Z</time>
      </trkpt>
      <trkpt lat="42.30664" lon="2.73583">
        <ele>244.815</ele>
        <time>2014-07-05T10:55:40Z</time>
      </trkpt>
      <trkpt lat="42.30676" lon="2.7372">
        <ele>243.824</ele>
        <time>2014-07-05T10:55:55Z</time>
      </trkpt>
      <trkpt lat="42.3069" lon="2.73862">
        <ele>243.404</ele>
        <time>2014-07-05T10:56:10Z</time>
      </trkpt>
      <trkpt lat="42.30694" lon="2.73911">
        <ele>242.414</ele>
        <time>2014-07-05T10:56:15Z</time>
      </trkpt>
      <trkpt lat="42.30735" lon="2.74062">
        <ele>240.007</ele>
        <time>2014-07-05T10:56:31Z</time>
      </trkpt>
      <trkpt lat="42.30778" lon="2.74208">
        <ele>238.519</ele>
        <time>2014-07-05T10:56:47Z</time>
      </trkpt>
      <trkpt lat="42.30815" lon="2.7434">
        <ele>238.194</ele>
        <time>2014-07-05T10:57:00Z</time>
      </trkpt>
      <trkpt lat="42.30818" lon="2.74351">
        <ele>238.126</ele>
        <time>2014-07-05T10:57:01Z</time>
      </trkpt>
      <trkpt lat="42.30833" lon="2.74502">
        <ele>236.677</ele>
        <time>2014-07-05T10:57:14Z</time>
      </trkpt>
      <trkpt lat="42.30845" lon="2.74662">
        <ele>233.776</ele>
        <time>2014-07-05T10:57:29Z</time>
      </trkpt>
      <trkpt lat="42.30866" lon="2.748">
        <ele>231.845</ele>
        <time>2014-07-05T10:57:41Z</time>
      </trkpt>
      <trkpt lat="42.30883" lon="2.74865">
        <ele>231.338</ele>
        <time>2014-07-05T10:57:47Z</time>
      </trkpt>
      <trkpt lat="42.30889" lon="2.74975">
        <ele>227.538</ele>
        <time>2014-07-05T10:57:56Z</time>
      </trkpt>
      <trkpt lat="42.3089" lon="2.75153">
        <ele>226.57</ele>
        <time>2014-07-05T10:58:11Z</time>
      </trkpt>
      <trkpt lat="42.30897" lon="2.75351">
        <ele>228.517</ele>
        <time>2014-07-05T10:58:28Z</time>
      </trkpt>
      <trkpt lat="42.30901" lon="2.75411">
        <ele>230.407</ele>
        <time>2014-07-05T10:58:34Z</time>
      </trkpt>
      <trkpt lat="42.30906" lon="2.75558">
        <ele>228.05</ele>
        <time>2014-07-05T10:58:50Z</time>
      </trkpt>
      <trkpt lat="42.3091" lon="2.75686">
        <ele>227.015</ele>
        <time>2014-07-05T10:59:04Z</time>
      </trkpt>
      <trkpt lat="42.30916" lon="2.7581">
        <ele>226.547</ele>
        <time>2014-07-05T10:59:19Z</time>
      </trkpt>
      <trkpt lat="42.30921" lon="2.75928">
        <ele>227.518</ele>
        <time>2014-07-05T10:59:33Z</time>
      </trkpt>
      <trkpt lat="42.30923" lon="2.76087">
        <ele>229.437</ele>
        <time>2014-07-05T10:59:52Z</time>
      </trkpt>
      <trkpt lat="42.30893" lon="2.76174">
        <ele>230.916</ele>
        <time>2014-07-05T11:00:05Z</time>
      </trkpt>
      <trkpt lat="42.30891" lon="2.76181">
        <ele>230.989</ele>
        <time>2014-07-05T11:00:06Z</time>
      </trkpt>
      <trkpt lat="42.30892" lon="2.76209">
        <ele>231.863</ele>
        <time>2014-07-05T11:00:10Z</time>
      </trkpt>
      <trkpt lat="42.30925" lon="2.76254">
        <ele>231.344</ele>
        <time>2014-07-05T11:00:19Z</time>
      </trkpt>
      <trkpt lat="42.31018" lon="2.76299">
        <ele>228.518</ele>
        <time>2014-07-05T11:00:32Z</time>
      </trkpt>
      <trkpt lat="42.31056" lon="2.76336">
        <ele>225.107</ele>
        <time>2014-07-05T11:00:37Z</time>
      </trkpt>
      <trkpt lat="42.31082" lon="2.76378">
        <ele>223.693</ele>
        <time>2014-07-05T11:00:41Z</time>
      </trkpt>
      <trkpt lat="42.31103" lon="2.76443">
        <ele>221.288</ele>
        <time>2014-07-05T11:00:46Z</time>
      </trkpt>
      <trkpt lat="42.31118" lon="2.76493">
        <ele>219.87</ele>
        <time>2014-07-05T11:00:50Z</time>
      </trkpt>
      <trkpt lat="42.31152" lon="2.76602">
        <ele>216.911</ele>
        <time>2014-07-05T11:00:59Z</time>
      </trkpt>
      <trkpt lat="42.31193" lon="2.76741">
        <ele>215.56</ele>
        <time>2014-07-05T11:01:13Z</time>
      </trkpt>
      <trkpt lat="42.31199" lon="2.76788">
        <ele>215.069</ele>
        <time>2014-07-05T11:01:18Z</time>
      </trkpt>
      <trkpt lat="42.31203" lon="2.76936">
        <ele>215.592</ele>
        <time>2014-07-05T11:01:34Z</time>
      </trkpt>
      <trkpt lat="42.31204" lon="2.77013">
        <ele>216.435</ele>
        <time>2014-07-05T11:01:44Z</time>
      </trkpt>
      <trkpt lat="42.31206" lon="2.77034">
        <ele>217.486</ele>
        <time>2014-07-05T11:01:47Z</time>
      </trkpt>
      <trkpt lat="42.31212" lon="2.77055">
        <ele>217.914</ele>
        <time>2014-07-05T11:01:50Z</time>
      </trkpt>
      <trkpt lat="42.31222" lon="2.77089">
        <ele>219.307</ele>
        <time>2014-07-05T11:01:55Z</time>
      </trkpt>
      <trkpt lat="42.31224" lon="2.77118">
        <ele>219.31</ele>
        <time>2014-07-05T11:01:59Z</time>
      </trkpt>
      <trkpt lat="42.31221" lon="2.7715">
        <ele>219.345</ele>
        <time>2014-07-05T11:02:03Z</time>
      </trkpt>
      <trkpt lat="42.31222" lon="2.77184">
        <ele>219.357</ele>
        <time>2014-07-05T11:02:07Z</time>
      </trkpt>
      <trkpt lat="42.3124" lon="2.7731">
        <ele>216.978</ele>
        <time>2014-07-05T11:02:20Z</time>
      </trkpt>
      <trkpt lat="42.31255" lon="2.77346">
        <ele>215.517</ele>
        <time>2014-07-05T11:02:24Z</time>
      </trkpt>
      <trkpt lat="42.31336" lon="2.77461">
        <ele>212.666</ele>
        <time>2014-07-05T11:02:40Z</time>
      </trkpt>
      <trkpt lat="42.31401" lon="2.77553">
        <ele>210.279</ele>
        <time>2014-07-05T11:02:53Z</time>
      </trkpt>
      <trkpt lat="42.31469" lon="2.77648">
        <ele>208.325</ele>
        <time>2014-07-05T11:03:06Z</time>
      </trkpt>
      <trkpt lat="42.31536" lon="2.77741">
        <ele>207.826</ele>
        <time>2014-07-05T11:03:20Z</time>
      </trkpt>
      <trkpt lat="42.316" lon="2.77836">
        <ele>204.908</ele>
        <time>2014-07-05T11:03:34Z</time>
      </trkpt>
      <trkpt lat="42.31605" lon="2.77843">
        <ele>204.407</ele>
        <time>2014-07-05T11:03:35Z</time>
      </trkpt>
      <trkpt lat="42.31629" lon="2.779">
        <ele>203.089</ele>
        <time>2014-07-05T11:03:41Z</time>
      </trkpt>
      <trkpt lat="42.31639" lon="2.77942">
        <ele>203.054</ele>
        <time>2014-07-05T11:03:45Z</time>
      </trkpt>
      <trkpt lat="42.31643" lon="2.77974">
        <ele>201.586</ele>
        <time>2014-07-05T11:03:48Z</time>
      </trkpt>
      <trkpt lat="42.31661" lon="2.78099">
        <ele>200.187</ele>
        <time>2014-07-05T11:04:00Z</time>
      </trkpt>
      <trkpt lat="42.31699" lon="2.7814">
        <ele>200.626</ele>
        <time>2014-07-05T11:04:08Z</time>
      </trkpt>
      <trkpt lat="42.31724" lon="2.78136">
        <ele>200.655</ele>
        <time>2014-07-05T11:04:12Z</time>
      </trkpt>
      <trkpt lat="42.31737" lon="2.78131">
        <ele>200.688</ele>
        <time>2014-07-05T11:04:14Z</time>
      </trkpt>
      <trkpt lat="42.31769" lon="2.78115">
        <ele>199.626</ele>
        <time>2014-07-05T11:04:19Z</time>
      </trkpt>
      <trkpt lat="42.31823" lon="2.7809">
        <ele>198.247</ele>
        <time>2014-07-05T11:04:27Z</time>
      </trkpt>
      <trkpt lat="42.31852" lon="2.78081">
        <ele>197.211</ele>
        <time>2014-07-05T11:04:31Z</time>
      </trkpt>
      <trkpt lat="42.31945" lon="2.78077">
        <ele>195.307</ele>
        <time>2014-07-05T11:04:43Z</time>
      </trkpt>
      <trkpt lat="42.31979" lon="2.781">
        <ele>194.389</ele>
        <time>2014-07-05T11:04:48Z</time>
      </trkpt>
      <trkpt lat="42.32026" lon="2.7822">
        <ele>191.924</ele>
        <time>2014-07-05T11:05:02Z</time>
      </trkpt>
      <trkpt lat="42.32047" lon="2.78304">
        <ele>193.486</ele>
        <time>2014-07-05T11:05:13Z</time>
      </trkpt>
      <trkpt lat="42.32058" lon="2.78357">
        <ele>195.387</ele>
        <time>2014-07-05T11:05:21Z</time>
      </trkpt>
      <trkpt lat="42.32061" lon="2.78382">
        <ele>196.316</ele>
        <time>2014-07-05T11:05:25Z</time>
      </trkpt>
      <trkpt lat="42.32055" lon="2.78412">
        <ele>196.365</ele>
        <time>2014-07-05T11:05:30Z</time>
      </trkpt>
      <trkpt lat="42.32039" lon="2.78514">
        <ele>193.888</ele>
        <time>2014-07-05T11:05:45Z</time>
      </trkpt>
      <trkpt lat="42.32026" lon="2.78581">
        <ele>192.454</ele>
        <time>2014-07-05T11:05:54Z</time>
      </trkpt>
      <trkpt lat="42.32016" lon="2.7861">
        <ele>191.956</ele>
        <time>2014-07-05T11:05:58Z</time>
      </trkpt>
      <trkpt lat="42.31993" lon="2.78638">
        <ele>190.511</ele>
        <time>2014-07-05T11:06:03Z</time>
      </trkpt>
      <trkpt lat="42.31984" lon="2.78659">
        <ele>190.507</ele>
        <time>2014-07-05T11:06:07Z</time>
      </trkpt>
      <trkpt lat="42.31978" lon="2.78738">
        <ele>191.052</ele>
        <time>2014-07-05T11:06:22Z</time>
      </trkpt>
      <trkpt lat="42.31978" lon="2.78743">
        <ele>191.017</ele>
        <time>2014-07-05T11:06:23Z</time>
      </trkpt>
      <trkpt lat="42.31981" lon="2.78766">
        <ele>190.549</ele>
        <time>2014-07-05T11:06:27Z</time>
      </trkpt>
      <trkpt lat="42.32004" lon="2.78824">
        <ele>190.55</ele>
        <time>2014-07-05T11:06:41Z</time>
      </trkpt>
      <trkpt lat="42.32027" lon="2.78849">
        <ele>189.559</ele>
        <time>2014-07-05T11:06:51Z</time>
      </trkpt>
      <trkpt lat="42.32048" lon="2.78879">
        <ele>189.068</ele>
        <time>2014-07-05T11:07:02Z</time>
      </trkpt>
      <trkpt lat="42.32073" lon="2.78903">
        <ele>188.641</ele>
        <time>2014-07-05T11:07:10Z</time>
      </trkpt>
      <trkpt lat="42.32087" lon="2.78918">
        <ele>188.115</ele>
        <time>2014-07-05T11:07:14Z</time>
      </trkpt>
      <trkpt lat="42.32124" lon="2.78951">
        <ele>186.265</ele>
        <time>2014-07-05T11:07:26Z</time>
      </trkpt>
      <trkpt lat="42.32125" lon="2.78955">
        <ele>186.211</ele>
        <time>2014-07-05T11:07:29Z</time>
      </trkpt>
      <trkpt lat="42.32118" lon="2.78962">
        <ele>186.607</ele>
        <time>2014-07-05T11:07:34Z</time>
      </trkpt>
      <trkpt lat="42.32087" lon="2.78988">
        <ele>186.628</ele>
        <time>2014-07-05T11:07:44Z</time>
      </trkpt>
      <trkpt lat="42.32081" lon="2.78992">
        <ele>186.273</ele>
        <time>2014-07-05T11:07:46Z</time>
      </trkpt>
      <trkpt lat="42.32046" lon="2.79">
        <ele>186.615</ele>
        <time>2014-07-05T11:07:58Z</time>
      </trkpt>
      <trkpt lat="42.32035" lon="2.79001">
        <ele>187.626</ele>
        <time>2014-07-05T11:08:03Z</time>
      </trkpt>
      <trkpt lat="42.32022" lon="2.78995">
        <ele>188.135</ele>
        <time>2014-07-05T11:08:08Z</time>
      </trkpt>
      <trkpt lat="42.32011" lon="2.78976">
        <ele>187.634</ele>
        <time>2014-07-05T11:08:20Z</time>
      </trkpt>
      <trkpt lat="42.32009" lon="2.78973">
        <ele>187.667</ele>
        <time>2014-07-05T11:08:33Z</time>
      </trkpt>
      <trkpt lat="42.32007" lon="2.7897">
        <ele>187.131</ele>
        <time>2014-07-05T11:09:02Z</time>
      </trkpt>
      <trkpt lat="42.32007" lon="2.7897">
        <ele>187.161</ele>
        <time>2014-07-05T11:09:31Z</time>
      </trkpt>
      <trkpt lat="42.32005" lon="2.78969">
        <ele>186.607</ele>
        <time>2014-07-05T11:10:03Z</time>
      </trkpt>
      <trkpt lat="42.32005" lon="2.78969">
        <ele>186.207</ele>
        <time>2014-07-05T11:10:33Z</time>
      </trkpt>
      <trkpt lat="42.32005" lon="2.78969">
        <ele>186.66</ele>
        <time>2014-07-05T11:11:03Z</time>
      </trkpt>
      <trkpt lat="42.32002" lon="2.78966">
        <ele>186.675</ele>
        <time>2014-07-05T11:11:35Z</time>
      </trkpt>
      <trkpt lat="42.32" lon="2.78966">
        <ele>187.177</ele>
        <time>2014-07-05T11:12:06Z</time>
      </trkpt>
      <trkpt lat="42.31999" lon="2.78964">
        <ele>187.678</ele>
        <time>2014-07-05T11:12:38Z</time>
      </trkpt>
      <trkpt lat="42.31998" lon="2.78963">
        <ele>188.137</ele>
        <time>2014-07-05T11:13:15Z</time>
      </trkpt>
      <trkpt lat="42.31997" lon="2.78963">
        <ele>188.186</ele>
        <time>2014-07-05T11:13:50Z</time>
      </trkpt>
      <trkpt lat="42.31997" lon="2.78963">
        <ele>188.159</ele>
        <time>2014-07-05T11:14:26Z</time>
      </trkpt>
      <trkpt lat="42.31996" lon="2.78965">
        <ele>188.683</ele>
        <time>2014-07-05T11:15:04Z</time>
      </trkpt>
      <trkpt lat="42.31994" lon="2.78967">
        <ele>189.025</ele>
        <time>2014-07-05T11:15:35Z</time>
      </trkpt>
      <trkpt lat="42.31994" lon="2.78967">
        <ele>189.517</ele>
        <time>2014-07-05T11:16:07Z</time>
      </trkpt>
      <trkpt lat="42.31994" lon="2.78967">
        <ele>189.507</ele>
        <time>2014-07-05T11:16:37Z</time>
      </trkpt>
      <trkpt lat="42.31995" lon="2.78968">
        <ele>190.025</ele>
        <time>2014-07-05T11:17:12Z</time>
      </trkpt>
      <trkpt lat="42.31996" lon="2.78968">
        <ele>190.51</ele>
        <time>2014-07-05T11:17:42Z</time>
      </trkpt>
      <trkpt lat="42.31996" lon="2.78968">
        <ele>190.542</ele>
        <time>2014-07-05T11:18:10Z</time>
      </trkpt>
      <trkpt lat="42.31997" lon="2.7897">
        <ele>190.593</ele>
        <time>2014-07-05T11:18:38Z</time>
      </trkpt>
      <trkpt lat="42.31998" lon="2.78969">
        <ele>191.092</ele>
        <time>2014-07-05T11:19:15Z</time>
      </trkpt>
      <trkpt lat="42.31998" lon="2.78969">
        <ele>191.071</ele>
        <time>2014-07-05T11:19:50Z</time>
      </trkpt>
      <trkpt lat="42.31998" lon="2.7897">
        <ele>191.064</ele>
        <time>2014-07-05T11:20:24Z</time>
      </trkpt>
      <trkpt lat="42.31997" lon="2.78972">
        <ele>191.446</ele>
        <time>2014-07-05T11:20:58Z</time>
      </trkpt>
      <trkpt lat="42.31996" lon="2.78973">
        <ele>191.488</ele>
        <time>2014-07-05T11:21:30Z</time>
      </trkpt>
      <trkpt lat="42.31996" lon="2.78974">
        <ele>191.416</ele>
        <time>2014-07-05T11:22:01Z</time>
      </trkpt>
      <trkpt lat="42.31997" lon="2.78974">
        <ele>191.907</ele>
        <time>2014-07-05T11:22:32Z</time>
      </trkpt>
      <trkpt lat="42.31996" lon="2.78974">
        <ele>192.461</ele>
        <time>2014-07-05T11:23:05Z</time>
      </trkpt>
      <trkpt lat="42.31997" lon="2.78974">
        <ele>192.496</ele>
        <time>2014-07-05T11:23:35Z</time>
      </trkpt>
      <trkpt lat="42.31997" lon="2.78974">
        <ele>192.498</ele>
        <time>2014-07-05T11:24:06Z</time>
      </trkpt>
      <trkpt lat="42.31997" lon="2.78973">
        <ele>192.969</ele>
        <time>2014-07-05T11:24:37Z</time>
      </trkpt>
      <trkpt lat="42.31997" lon="2.78972">
        <ele>193.418</ele>
        <time>2014-07-05T11:25:11Z</time>
      </trkpt>
      <trkpt lat="42.31997" lon="2.78972">
        <ele>193.897</ele>
        <time>2014-07-05T11:25:43Z</time>
      </trkpt>
      <trkpt lat="42.31997" lon="2.78972">
        <ele>193.81</ele>
        <time>2014-07-05T11:26:18Z</time>
      </trkpt>
      <trkpt lat="42.31998" lon="2.78972">
        <ele>194.376</ele>
        <time>2014-07-05T11:26:50Z</time>
      </trkpt>
      <trkpt lat="42.31998" lon="2.78972">
        <ele>194.39</ele>
        <time>2014-07-05T11:27:22Z</time>
      </trkpt>
      <trkpt lat="42.31997" lon="2.7897">
        <ele>194.819</ele>
        <time>2014-07-05T11:27:57Z</time>
      </trkpt>
      <trkpt lat="42.31997" lon="2.78971">
        <ele>195.307</ele>
        <time>2014-07-05T11:28:32Z</time>
      </trkpt>
      <trkpt lat="42.31997" lon="2.78971">
        <ele>195.334</ele>
        <time>2014-07-05T11:29:04Z</time>
      </trkpt>
      <trkpt lat="42.31996" lon="2.78971">
        <ele>195.389</ele>
        <time>2014-07-05T11:29:38Z</time>
      </trkpt>
      <trkpt lat="42.31997" lon="2.78972">
        <ele>195.851</ele>
        <time>2014-07-05T11:30:11Z</time>
      </trkpt>
      <trkpt lat="42.31997" lon="2.78974">
        <ele>195.852</ele>
        <time>2014-07-05T11:30:41Z</time>
      </trkpt>
      <trkpt lat="42.31997" lon="2.78974">
        <ele>196.331</ele>
        <time>2014-07-05T11:31:18Z</time>
      </trkpt>
      <trkpt lat="42.31997" lon="2.78974">
        <ele>196.72</ele>
        <time>2014-07-05T11:31:49Z</time>
      </trkpt>
      <trkpt lat="42.31996" lon="2.78973">
        <ele>196.733</ele>
        <time>2014-07-05T11:32:23Z</time>
      </trkpt>
      <trkpt lat="42.31996" lon="2.78973">
        <ele>196.749</ele>
        <time>2014-07-05T11:32:53Z</time>
      </trkpt>
      <trkpt lat="42.31996" lon="2.78973">
        <ele>196.702</ele>
        <time>2014-07-05T11:33:25Z</time>
      </trkpt>
      <trkpt lat="42.31997" lon="2.78974">
        <ele>197.222</ele>
        <time>2014-07-05T11:33:57Z</time>
      </trkpt>
      <trkpt lat="42.31998" lon="2.78974">
        <ele>197.207</ele>
        <time>2014-07-05T11:34:30Z</time>
      </trkpt>
      <trkpt lat="42.31998" lon="2.78973">
        <ele>197.251</ele>
        <time>2014-07-05T11:35:05Z</time>
      </trkpt>
      <trkpt lat="42.31999" lon="2.78973">
        <ele>197.786</ele>
        <time>2014-07-05T11:35:37Z</time>
      </trkpt>
      <trkpt lat="42.31999" lon="2.78974">
        <ele>197.778</ele>
        <time>2014-07-05T11:36:10Z</time>
      </trkpt>
      <trkpt lat="42.32" lon="2.78975">
        <ele>197.779</ele>
        <time>2014-07-05T11:36:43Z</time>
      </trkpt>
      <trkpt lat="42.32001" lon="2.78976">
        <ele>197.738</ele>
        <time>2014-07-05T11:37:15Z</time>
      </trkpt>
      <trkpt lat="42.32001" lon="2.78976">
        <ele>197.777</ele>
        <time>2014-07-05T11:37:48Z</time>
      </trkpt>
      <trkpt lat="42.32002" lon="2.78976">
        <ele>197.75</ele>
        <time>2014-07-05T11:38:20Z</time>
      </trkpt>
      <trkpt lat="42.32002" lon="2.78975">
        <ele>197.733</ele>
        <time>2014-07-05T11:38:55Z</time>
      </trkpt>
      <trkpt lat="42.32002" lon="2.78975">
        <ele>197.723</ele>
        <time>2014-07-05T11:39:31Z</time>
      </trkpt>
      <trkpt lat="42.32002" lon="2.78976">
        <ele>197.715</ele>
        <time>2014-07-05T11:40:05Z</time>
      </trkpt>
      <trkpt lat="42.32002" lon="2.78978">
        <ele>198.207</ele>
        <time>2014-07-05T11:40:37Z</time>
      </trkpt>
      <trkpt lat="42.32004" lon="2.78979">
        <ele>198.27</ele>
        <time>2014-07-05T11:41:10Z</time>
      </trkpt>
      <trkpt lat="42.32003" lon="2.78978">
        <ele>197.775</ele>
        <time>2014-07-05T11:41:43Z</time>
      </trkpt>
      <trkpt lat="42.32003" lon="2.78976">
        <ele>197.787</ele>
        <time>2014-07-05T11:42:18Z</time>
      </trkpt>
      <trkpt lat="42.32002" lon="2.78977">
        <ele>197.728</ele>
        <time>2014-07-05T11:42:51Z</time>
      </trkpt>
      <trkpt lat="42.32002" lon="2.78977">
        <ele>197.757</ele>
        <time>2014-07-05T11:43:18Z</time>
      </trkpt>
      <trkpt lat="42.32002" lon="2.78977">
        <ele>198.276</ele>
        <time>2014-07-05T11:43:52Z</time>
      </trkpt>
      <trkpt lat="42.32002" lon="2.78976">
        <ele>198.219</ele>
        <time>2014-07-05T11:44:26Z</time>
      </trkpt>
      <trkpt lat="42.32003" lon="2.78976">
        <ele>198.226</ele>
        <time>2014-07-05T11:44:59Z</time>
      </trkpt>
      <trkpt lat="42.32004" lon="2.78976">
        <ele>197.747</ele>
        <time>2014-07-05T11:45:36Z</time>
      </trkpt>
      <trkpt lat="42.32003" lon="2.78976">
        <ele>198.211</ele>
        <time>2014-07-05T11:46:09Z</time>
      </trkpt>
      <trkpt lat="42.32003" lon="2.78976">
        <ele>198.207</ele>
        <time>2014-07-05T11:46:42Z</time>
      </trkpt>
      <trkpt lat="42.32003" lon="2.78976">
        <ele>198.259</ele>
        <time>2014-07-05T11:47:17Z</time>
      </trkpt>
      <trkpt lat="42.32004" lon="2.78975">
        <ele>197.794</ele>
        <time>2014-07-05T11:47:46Z</time>
      </trkpt>
      <trkpt lat="42.32003" lon="2.78975">
        <ele>197.796</ele>
        <time>2014-07-05T11:48:15Z</time>
      </trkpt>
      <trkpt lat="42.32003" lon="2.78974">
        <ele>197.257</ele>
        <time>2014-07-05T11:48:49Z</time>
      </trkpt>
      <trkpt lat="42.32003" lon="2.78974">
        <ele>197.266</ele>
        <time>2014-07-05T11:49:20Z</time>
      </trkpt>
      <trkpt lat="42.32002" lon="2.78976">
        <ele>197.265</ele>
        <time>2014-07-05T11:49:51Z</time>
      </trkpt>
      <trkpt lat="42.32003" lon="2.78975">
        <ele>196.798</ele>
        <time>2014-07-05T11:50:26Z</time>
      </trkpt>
      <trkpt lat="42.32004" lon="2.78976">
        <ele>196.729</ele>
        <time>2014-07-05T11:50:59Z</time>
      </trkpt>
      <trkpt lat="42.32004" lon="2.78975">
        <ele>196.3</ele>
        <time>2014-07-05T11:51:28Z</time>
      </trkpt>
      <trkpt lat="42.32004" lon="2.78975">
        <ele>196.72</ele>
        <time>2014-07-05T11:51:58Z</time>
      </trkpt>
      <trkpt lat="42.32004" lon="2.78974">
        <ele>196.307</ele>
        <time>2014-07-05T11:52:28Z</time>
      </trkpt>
      <trkpt lat="42.32004" lon="2.78974">
        <ele>195.819</ele>
        <time>2014-07-05T11:52:56Z</time>
      </trkpt>
      <trkpt lat="42.32004" lon="2.78974">
        <ele>195.344</ele>
        <time>2014-07-05T11:53:24Z</time>
      </trkpt>
      <trkpt lat="42.32005" lon="2.78973">
        <ele>195.376</ele>
        <time>2014-07-05T11:53:59Z</time>
      </trkpt>
      <trkpt lat="42.32005" lon="2.78974">
        <ele>195.357</ele>
        <time>2014-07-05T11:54:32Z</time>
      </trkpt>
      <trkpt lat="42.32005" lon="2.78978">
        <ele>195.366</ele>
        <time>2014-07-05T11:55:07Z</time>
      </trkpt>
      <trkpt lat="42.32005" lon="2.78978">
        <ele>195.335</ele>
        <time>2014-07-05T11:55:40Z</time>
      </trkpt>
      <trkpt lat="42.32005" lon="2.78978">
        <ele>194.878</ele>
        <time>2014-07-05T11:56:11Z</time>
      </trkpt>
      <trkpt lat="42.32004" lon="2.78976">
        <ele>194.384</ele>
        <time>2014-07-05T11:56:43Z</time>
      </trkpt>
      <trkpt lat="42.32004" lon="2.78975">
        <ele>194.307</ele>
        <time>2014-07-05T11:57:08Z</time>
      </trkpt>
      <trkpt lat="42.32003" lon="2.78974">
        <ele>194.317</ele>
        <time>2014-07-05T11:57:40Z</time>
      </trkpt>
      <trkpt lat="42.32004" lon="2.78973">
        <ele>194.307</ele>
        <time>2014-07-05T11:58:13Z</time>
      </trkpt>
      <trkpt lat="42.32006" lon="2.78973">
        <ele>193.895</ele>
        <time>2014-07-05T11:58:46Z</time>
      </trkpt>
      <trkpt lat="42.32007" lon="2.78973">
        <ele>193.85</ele>
        <time>2014-07-05T11:59:14Z</time>
      </trkpt>
      <trkpt lat="42.32006" lon="2.78973">
        <ele>193.472</ele>
        <time>2014-07-05T11:59:50Z</time>
      </trkpt>
      <trkpt lat="42.32007" lon="2.78972">
        <ele>192.923</ele>
        <time>2014-07-05T12:00:28Z</time>
      </trkpt>
      <trkpt lat="42.32006" lon="2.78973">
        <ele>192.482</ele>
        <time>2014-07-05T12:01:01Z</time>
      </trkpt>
      <trkpt lat="42.32005" lon="2.78972">
        <ele>192.441</ele>
        <time>2014-07-05T12:01:35Z</time>
      </trkpt>
      <trkpt lat="42.32006" lon="2.78973">
        <ele>191.964</ele>
        <time>2014-07-05T12:02:09Z</time>
      </trkpt>
      <trkpt lat="42.32005" lon="2.78973">
        <ele>191.483</ele>
        <time>2014-07-05T12:02:47Z</time>
      </trkpt>
      <trkpt lat="42.32005" lon="2.78974">
        <ele>191.025</ele>
        <time>2014-07-05T12:03:16Z</time>
      </trkpt>
      <trkpt lat="42.32004" lon="2.78976">
        <ele>191.417</ele>
        <time>2014-07-05T12:03:49Z</time>
      </trkpt>
      <trkpt lat="42.32004" lon="2.78975">
        <ele>191.407</ele>
        <time>2014-07-05T12:04:21Z</time>
      </trkpt>
      <trkpt lat="42.32004" lon="2.78976">
        <ele>192.465</ele>
        <time>2014-07-05T12:04:52Z</time>
      </trkpt>
      <trkpt lat="42.32004" lon="2.78976">
        <ele>190.56</ele>
        <time>2014-07-05T12:05:20Z</time>
      </trkpt>
      <trkpt lat="42.32005" lon="2.78974">
        <ele>190.582</ele>
        <time>2014-07-05T12:06:00Z</time>
      </trkpt>
      <trkpt lat="42.32005" lon="2.78974">
        <ele>190.583</ele>
        <time>2014-07-05T12:06:39Z</time>
      </trkpt>
      <trkpt lat="42.32003" lon="2.78975">
        <ele>190.052</ele>
        <time>2014-07-05T12:07:16Z</time>
      </trkpt>
      <trkpt lat="42.32003" lon="2.78976">
        <ele>190.051</ele>
        <time>2014-07-05T12:07:46Z</time>
      </trkpt>
      <trkpt lat="42.32002" lon="2.78979">
        <ele>189.544</ele>
        <time>2014-07-05T12:08:18Z</time>
      </trkpt>
      <trkpt lat="42.32003" lon="2.78979">
        <ele>189.524</ele>
        <time>2014-07-05T12:08:38Z</time>
      </trkpt>
      <trkpt lat="42.32" lon="2.78976">
        <ele>189.504</ele>
        <time>2014-07-05T12:08:48Z</time>
      </trkpt>
      <trkpt lat="42.31999" lon="2.78973">
        <ele>190.014</ele>
        <time>2014-07-05T12:08:50Z</time>
      </trkpt>
      <trkpt lat="42.31998" lon="2.78965">
        <ele>190.007</ele>
        <time>2014-07-05T12:08:55Z</time>
      </trkpt>
      <trkpt lat="42.31994" lon="2.78943">
        <ele>189.539</ele>
        <time>2014-07-05T12:09:09Z</time>
      </trkpt>
      <trkpt lat="42.31988" lon="2.78929">
        <ele>190.064</ele>
        <time>2014-07-05T12:09:22Z</time>
      </trkpt>
      <trkpt lat="42.31987" lon="2.78928">
        <ele>190.026</ele>
        <time>2014-07-05T12:09:23Z</time>
      </trkpt>
      <trkpt lat="42.31986" lon="2.78918">
        <ele>190.017</ele>
        <time>2014-07-05T12:09:34Z</time>
      </trkpt>
      <trkpt lat="42.31985" lon="2.78917">
        <ele>189.516</ele>
        <time>2014-07-05T12:10:01Z</time>
      </trkpt>
      <trkpt lat="42.31984" lon="2.78917">
        <ele>189.035</ele>
        <time>2014-07-05T12:10:33Z</time>
      </trkpt>
      <trkpt lat="42.31985" lon="2.78916">
        <ele>188.648</ele>
        <time>2014-07-05T12:11:06Z</time>
      </trkpt>
      <trkpt lat="42.31986" lon="2.78916">
        <ele>189.087</ele>
        <time>2014-07-05T12:11:32Z</time>
      </trkpt>
      <trkpt lat="42.31986" lon="2.78915">
        <ele>189.542</ele>
        <time>2014-07-05T12:12:04Z</time>
      </trkpt>
      <trkpt lat="42.31986" lon="2.78914">
        <ele>188.626</ele>
        <time>2014-07-05T12:12:33Z</time>
      </trkpt>
      <trkpt lat="42.31986" lon="2.78913">
        <ele>188.107</ele>
        <time>2014-07-05T12:13:05Z</time>
      </trkpt>
      <trkpt lat="42.31985" lon="2.78913">
        <ele>188.125</ele>
        <time>2014-07-05T12:13:33Z</time>
      </trkpt>
      <trkpt lat="42.31986" lon="2.78913">
        <ele>188.69</ele>
        <time>2014-07-05T12:13:57Z</time>
      </trkpt>
      <trkpt lat="42.31986" lon="2.78914">
        <ele>188.142</ele>
        <time>2014-07-05T12:14:25Z</time>
      </trkpt>
      <trkpt lat="42.31986" lon="2.78915">
        <ele>188.183</ele>
        <time>2014-07-05T12:14:52Z</time>
      </trkpt>
      <trkpt lat="42.31985" lon="2.78915">
        <ele>187.672</ele>
        <time>2014-07-05T12:15:25Z</time>
      </trkpt>
      <trkpt lat="42.31985" lon="2.78916">
        <ele>187.131</ele>
        <time>2014-07-05T12:15:52Z</time>
      </trkpt>
      <trkpt lat="42.31985" lon="2.78918">
        <ele>187.674</ele>
        <time>2014-07-05T12:16:01Z</time>
      </trkpt>
      <trkpt lat="42.31985" lon="2.78921">
        <ele>187.183</ele>
        <time>2014-07-05T12:16:04Z</time>
      </trkpt>
      <trkpt lat="42.31988" lon="2.7895">
        <ele>186.625</ele>
        <time>2014-07-05T12:16:14Z</time>
      </trkpt>
      <trkpt lat="42.32011" lon="2.78995">
        <ele>187.617</ele>
        <time>2014-07-05T12:16:29Z</time>
      </trkpt>
      <trkpt lat="42.32012" lon="2.78997">
        <ele>187.607</ele>
        <time>2014-07-05T12:16:31Z</time>
      </trkpt>
      <trkpt lat="42.32005" lon="2.79009">
        <ele>187.195</ele>
        <time>2014-07-05T12:16:39Z</time>
      </trkpt>
      <trkpt lat="42.32001" lon="2.79005">
        <ele>186.22</ele>
        <time>2014-07-05T12:16:43Z</time>
      </trkpt>
      <trkpt lat="42.32053" lon="2.7901">
        <ele>185.722</ele>
        <time>2014-07-05T12:16:49Z</time>
      </trkpt>
      <trkpt lat="42.32081" lon="2.78999">
        <ele>185.283</ele>
        <time>2014-07-05T12:16:56Z</time>
      </trkpt>
      <trkpt lat="42.32111" lon="2.78962">
        <ele>184.722</ele>
        <time>2014-07-05T12:17:07Z</time>
      </trkpt>
      <trkpt lat="42.32142" lon="2.78938">
        <ele>184.211</ele>
        <time>2014-07-05T12:17:19Z</time>
      </trkpt>
      <trkpt lat="42.32177" lon="2.78918">
        <ele>185.294</ele>
        <time>2014-07-05T12:17:32Z</time>
      </trkpt>
      <trkpt lat="42.32235" lon="2.78894">
        <ele>184.222</ele>
        <time>2014-07-05T12:17:48Z</time>
      </trkpt>
      <trkpt lat="42.32293" lon="2.78869">
        <ele>183.362</ele>
        <time>2014-07-05T12:18:03Z</time>
      </trkpt>
      <trkpt lat="42.32319" lon="2.78893">
        <ele>183.308</ele>
        <time>2014-07-05T12:18:12Z</time>
      </trkpt>
      <trkpt lat="42.32324" lon="2.78983">
        <ele>182.807</ele>
        <time>2014-07-05T12:18:31Z</time>
      </trkpt>
      <trkpt lat="42.32331" lon="2.79055">
        <ele>182.889</ele>
        <time>2014-07-05T12:18:46Z</time>
      </trkpt>
      <trkpt lat="42.32344" lon="2.7912">
        <ele>184.764</ele>
        <time>2014-07-05T12:19:02Z</time>
      </trkpt>
      <trkpt lat="42.32354" lon="2.79164">
        <ele>186.276</ele>
        <time>2014-07-05T12:19:17Z</time>
      </trkpt>
      <trkpt lat="42.32363" lon="2.79204">
        <ele>188.127</ele>
        <time>2014-07-05T12:19:32Z</time>
      </trkpt>
      <trkpt lat="42.32371" lon="2.79226">
        <ele>189.056</ele>
        <time>2014-07-05T12:19:41Z</time>
      </trkpt>
    </trkseg>
  </trk>
</gpx>